[[{"header":{"parameterUnit":"m.s-1","parameterCategory":1,"la1":30.6,"la2":29.2853,"lo1":-89.7004,"lo2":-87.6739,"dy":0.0162,"dx":0.0183,"nx":112,"ny":82,"refTime":"2024-06-22T18:00:00:Z","depth":0,"parameterNumber":2,"parameterNumberName":"U-component_of_WINDS"},"data":[0.0,0.0,0.0,0.0,0.0,0.0,0.0,0.0,0.0,0.0,0.0,0.0,0.0,0.0,0.0,0.0,0.0,0.0,0.0,0.0,0.0,0.0,0.0,0.0,0.0,0.0,0.0,0.0,0.0,0.0,0.0,0.0,0.0,0.0,0.0,0.0,0.0,0.0,0.0,0.0,0.0,0.0,0.0,0.0,0.0,0.0,0.0,0.0,0.0,0.0,0.0,0.0,0.0,0.0,0.0,0.0,0.0,0.0,0.0,0.0,0.0,0.0,0.0,0.0,0.0,0.0,0.0,0.0,0.0,0.0,0.0,0.0,0.0,0.0,0.0,0.0,0.0,0.0,0.0,0.0,0.0,0.0,0.0,0.0,0.0,0.0,0.0,0.0,0.0,0.0,-0.3275,-0.3741,-0.4354,-0.4693,-0.4731,-0.4802,-0.4451,-0.3556,0.0,0.0,0.0,0.0,0.0,0.0,0.0,0.0,0.0,0.0,0.0,0.0,0.0,0.0,0.0,0.0,0.0,0.0,0.0,0.0,0.0,0.0,0.0,0.0,0.0,0.0,0.0,0.0,0.0,0.0,0.0,0.0,0.0,0.0,0.0,0.0,0.0,0.0,0.0,0.0,0.0,0.0,0.0,0.0,0.0,0.0,0.0,0.0,0.0,0.0,0.0,0.0,0.0,0.0,0.0,0.0,0.0,0.0,0.0,0.0,0.0,0.0,0.0,0.0,0.0,0.0,0.0,0.0,0.0,0.0,0.0,0.0,0.0,0.0,0.0,0.0,0.0,0.0,0.0,0.0,0.0,0.0,0.0,0.0,0.0,0.0,0.0,0.0,0.0,0.0,0.0,0.0,0.0,0.0,0.0,0.0,0.0,0.0,0.0,0.0,0.0,0.0,0.0,0.0,-0.2617,-0.3514,-0.3721,-0.4107,-0.4803,-0.4667,-0.4169,-0.3259,0.0,0.0,0.0,0.0,0.0,0.0,0.0,0.0,0.0,0.0,0.0,0.0,0.0,0.0,0.0,0.0,0.0,0.0,0.0,0.0,0.0,0.0,0.0,0.0,0.0,0.0,0.0,0.0,0.0,0.0,0.0,0.0,0.0,0.0,0.0,0.0,0.0,0.0,0.0,0.0,0.0,0.0,0.0,0.0,0.0,0.0,0.0,0.0,0.0,0.0,0.0,0.0,0.0,0.0,0.0,0.0,0.0,0.0,0.0,0.0,0.0,0.0,0.0,0.0,0.0,0.0,0.0,0.0,0.0,0.0,0.0,0.0,0.0,0.0,0.0,0.0,0.0,0.0,0.0,0.0,0.0,0.0,0.0,0.0,0.0,0.0,0.0,0.0,0.0,0.0,0.0,0.0,0.0,0.0,0.0,0.0,0.0,0.0,0.0,0.0,0.0,0.0,0.0,-0.1983,-0.257,-0.308,-0.3131,-0.3328,-0.3853,-0.3653,-0.3227,-0.2521,-0.2474,0.0,0.0,0.0,0.0,0.0,0.0,0.0,0.0,0.0,0.0,0.0,0.0,0.0,0.0,0.0,0.0,0.0,0.0,0.0,0.0,0.0,0.0,0.0,0.0,0.0,0.0,0.0,0.0,0.0,0.0,0.0,0.0,0.0,0.0,0.0,0.0,0.0,0.0,0.0,0.0,0.0,0.0,0.0,0.0,0.0,0.0,0.0,0.0,0.0,0.0,0.0,0.0,0.0,0.0,0.0,0.0,0.0,0.0,0.0,0.0,0.0,0.0,0.0,0.0,0.0,0.0,0.0,0.0,0.0,0.0,0.0,0.0,0.0,0.0,0.0,0.0,0.0,0.0,0.0,0.0,0.0,0.0,0.0,0.0,0.0,0.0,0.0,0.0,0.0,0.0,0.0,0.0,0.0,0.0,0.0,0.0,0.0,0.0,0.0,0.0,0.0,0.0,-0.1968,-0.2263,-0.2477,-0.252,-0.264,-0.2999,-0.2824,-0.2464,-0.2029,-0.1727,0.0,0.0,0.0,0.0,0.0,0.0,0.0,0.0,0.0,0.0,0.0,0.0,0.0,0.0,0.0,0.0,0.0,0.0,0.0,0.0,0.0,0.0,0.0,0.0,0.0,0.0,0.0,0.0,0.0,0.0,0.0,0.0,0.0,0.0,0.0,0.0,0.0,0.0,0.0,0.0,0.0,0.0,0.0,0.0,0.0,0.0,0.0,0.0,0.0,0.0,0.0,0.0,0.0,0.0,0.0,0.0,0.0,0.0,0.0,0.0,0.0,0.0,0.0,0.0,0.0,0.0,0.0,0.0,0.0,0.0,0.0,0.0,0.0,0.0,0.0,0.0,0.0,0.0,0.0,0.0,0.0,0.0,0.0,0.0,0.0,0.0,0.0,0.0,0.0,0.0,0.0,0.0,0.0,0.0,0.0,0.0,0.0,0.0,0.0,0.0,0.0,0.0,-0.1008,-0.126,-0.1891,-0.1918,-0.2183,-0.2938,-0.2763,-0.2431,-0.2017,-0.1753,0.0,0.0,0.0,0.0,0.0,0.0,0.0,0.0,0.0,0.0,0.0,0.0,0.0,0.0,0.0,0.0,0.0,0.0,0.0,0.0,0.0,0.0,0.0,0.0,0.0,0.0,0.0,0.0,0.0,0.0,0.0,0.0,0.0,0.0,0.0,0.0,0.0,0.0,0.0,0.0,0.0,0.0,0.0,0.0,0.0,0.0,0.0,0.0,0.0,0.0,0.0,0.0,0.0,0.0,0.0,0.0,0.0,0.0,0.0,0.0,0.0,0.0,0.0,0.0,0.0,0.0,0.0,0.0,0.0,0.0,0.0,0.0,0.0,0.0,0.0,0.0,0.0,0.0,0.0,0.0,0.0,0.0,0.0,0.0,0.0,0.0,0.0,0.0,0.0,0.0,0.0,0.0,0.0,0.0,0.0,0.0,0.0,0.0,0.0,0.0,0.0,0.0,-0.0923,-0.1004,0.0,-0.1267,-0.1381,-0.1717,-0.1611,-0.1491,-0.1344,0.0,0.0,0.0,0.0,0.0,0.0,0.0,0.0,0.0,0.0,0.0,0.0,0.0,0.0,0.0,0.0,0.0,0.0,0.0,0.0,0.0,0.0,0.0,0.0,0.0,0.0,0.0,0.0,0.0,0.0,0.0,0.0,0.0,0.0,0.0,0.0,0.0,0.0,0.0,0.0,0.0,0.0,0.0,0.0,0.0,0.0,0.0,0.0,0.0,0.0,0.0,0.0,0.0,0.0,0.0,0.0,0.0,0.0,0.0,0.0,0.0,0.0,0.0,0.0,0.0,0.0,0.0,0.0,0.0,0.0,0.0,0.0,0.0,0.0,0.0,0.0,0.0,0.0,0.0,0.0,0.0,0.0,0.0,0.0,0.0,0.0,0.0,0.0,0.0,0.0,0.0,0.0,0.0,0.0,0.0,0.0,0.0,0.0,0.0,0.0,0.0,0.0,-0.0891,-0.0914,-0.0886,0.0,-0.0915,-0.0922,-0.0983,-0.0924,-0.0887,-0.0897,0.0,0.0,0.0,0.0,0.0,0.0,0.0,0.0,0.0,0.0,0.0,0.0,0.0,0.0,0.0,0.0,0.0,0.0,0.0,0.0,0.0,0.0,0.0,0.0,0.0,0.0,0.0,0.0,0.0,0.0,0.0,0.0,0.0,0.0,0.0,0.0,0.0,0.0,0.0,0.0,0.0,0.0,0.0,0.0,0.0,0.0,0.0,0.0,0.0,0.0,0.0,0.0,0.0,0.0,0.0,0.0,0.0,0.0,0.0,0.0,0.0,0.0,0.0,0.0,0.0,0.0,0.0,0.0,0.0,0.0,0.0,0.0,0.0,0.0,0.0,0.0,0.0,0.0,0.0,0.0,0.0,0.0,0.0,0.0,0.0,0.0,0.0,0.0,0.0,0.0,0.0,0.0,0.0,0.0,0.0,0.0,0.0,0.0,0.0,0.0,0.0,0.0,-0.0893,-0.0879,-0.0909,-0.0881,-0.0915,-0.0922,-0.0983,-0.0961,-0.092,0.0,0.0,0.0,0.0,0.0,0.0,0.0,0.0,0.0,0.0,0.0,0.0,0.0,0.0,0.0,0.0,0.0,0.0,0.0,0.0,0.0,0.0,0.0,0.0,0.0,0.0,0.0,0.0,0.0,0.0,0.0,0.0,0.0,0.0,0.0,0.0,0.0,0.0,0.0,0.0,0.0,0.0,0.0,0.0,0.0,0.0,0.0,0.0,0.0,0.0,0.0,0.0,0.0,0.0,0.0,0.0,0.0,0.0,0.0,0.0,0.0,0.0,0.0,0.0,0.0,0.0,0.0,0.0,0.0,0.0,0.0,0.0,0.0,0.0,0.0,0.0,0.0,0.0,0.0,0.0,0.0,0.0,0.0,0.0,0.0,0.0,0.0,0.0,0.0,0.0,0.0,0.0,0.0,0.0,0.0,0.0,0.0,0.0,0.0,0.0,0.0,0.0,0.0,-0.0814,-0.0884,-0.0925,-0.0912,-0.0902,-0.0922,-0.0983,-0.0924,-0.0888,-0.0897,0.0,0.0,0.0,0.0,0.0,0.0,0.0,0.0,0.0,0.0,0.0,0.0,0.0,0.0,0.0,0.0,0.0,0.0,0.0,0.0,0.0,0.0,0.0,0.0,0.0,0.0,0.0,0.0,0.0,0.0,0.0,0.0,0.0,0.0,0.0,0.0,0.0,0.0,0.0,0.0,0.0,0.0,0.0,0.0,0.0,0.0,0.0,0.0,0.0,0.0,0.0,0.0,0.0,0.0,0.0,0.0,0.0,0.0,0.0,0.0,0.0,0.0,0.0,0.0,0.0,0.0,0.0,0.0,0.0,0.0,0.0,0.0,0.0,0.0,0.0,0.0,0.0,0.0,0.0,0.0,0.0,0.0,0.0,0.0,0.0,0.0,0.0,0.0,0.0,0.0,0.0,0.0,0.0,0.0,0.0,0.0,0.0,0.0,0.0,0.0,0.0,0.0,-0.0803,-0.0831,-0.0877,-0.0917,-0.0905,-0.0922,-0.0983,-0.0932,-0.0898,-0.0898,0.0,0.0,0.0,0.0,0.0,0.0,0.0,0.0,0.0,0.0,0.0,0.0,0.0,0.0,0.0,0.0,0.0,0.0,0.0,0.0,0.0,0.0,0.0,0.0,0.0,0.0,0.0,0.0,0.0,0.0,0.0,0.0,0.0,0.0,0.0,0.0,0.0,0.0,0.0,0.0,0.0,0.0,0.0,0.0,0.0,0.0,0.0,0.0,0.0,0.0,0.0,0.0,0.0,0.0,0.0,0.0,0.0,0.0,0.0,0.0,0.0,0.0,0.0,0.0,0.0,0.0,0.0,0.0,0.0,0.0,0.0,0.0,0.0,0.0,0.0,0.0,0.0,0.0,0.0,0.0,0.0,0.0,0.0,0.0,0.0,0.0,0.0,0.0,0.0,0.0,0.0,0.0,0.0,0.0,0.0,0.0,0.0,0.0,0.0,0.0,0.0,0.0,-0.0815,-0.0899,-0.0895,-0.0892,-0.0926,-0.0931,-0.0984,-0.0938,-0.0903,-0.0898,0.0,0.0,0.0,0.0,0.0,0.0,0.0,0.0,0.0,0.0,0.0,0.0,0.0,0.0,0.0,0.0,0.0,0.0,0.0,0.0,0.0,0.0,0.0,0.0,0.0,0.0,0.0,0.0,0.0,0.0,0.0,0.0,0.0,0.0,0.0,0.0,0.0,0.0,0.0,0.0,0.0,0.0,0.0,0.0,0.0,0.0,0.0,0.0,0.0,0.0,0.0,0.0,0.0,0.0,0.0,0.0,0.0,0.0,0.0,0.0,-0.0,-0.0,0.0,0.0,0.0,0.0,0.0,0.0,0.0,0.0,0.0,0.0,0.0,0.0,0.0,0.0,0.0,0.0,0.0,0.0,0.0,0.0,0.0,0.0,0.0,0.0,0.0,0.0,0.0,0.0,0.0,0.0,0.0,0.0,0.0,0.0,0.0,0.0,0.0,0.0,0.0,0.0,-0.0847,-0.0992,-0.1039,-0.0953,-0.1009,-0.1,-0.0989,-0.0976,-0.0948,-0.09,-0.0798,0.0,0.0,0.0,0.0,0.0,0.0,0.0,0.0,0.0,0.0,0.0,0.0,0.0,0.0,0.0,0.0,0.0,0.0,0.0,0.0,0.0,0.0,0.0,0.0,0.0,0.0,0.0,0.0,0.0,0.0,0.0,0.0,0.0,0.0,0.0,0.0,0.0,0.0,0.0,0.0,0.0,0.0,0.0,0.0,0.0,0.0,0.0,0.0,0.0,0.0,0.0,0.0,0.0,0.0,0.0,0.0,0.0,0.0,0.0,-0.0,-0.0,0.0,0.0,0.0,0.0,0.0,0.0,0.0,0.0,0.0,0.0,0.0,0.0,0.0,0.0,0.0,0.0,0.0,0.0,0.0,0.0,0.0,0.0,0.0,0.0,0.0,0.0,0.0,0.0,0.0,0.0,0.0,0.0,0.0,0.0,0.0,0.0,0.0,0.0,0.0,0.0,-0.0873,-0.1009,-0.1061,-0.1074,-0.105,-0.1027,-0.1012,-0.0984,-0.0953,-0.0921,-0.0863,0.0,0.0,0.0,0.0,0.0,0.0,0.0,0.0,0.0,0.0,0.0,0.0,0.0,0.0,0.0,0.0,0.0,0.0,0.0,0.0,0.0,0.0,0.0,0.0,0.0,0.0,0.0,0.0,0.0,0.0,0.0,0.0,0.0,0.0,0.0,0.0,0.0,0.0,0.0,0.0,0.0,0.0,0.0,0.0,0.0,0.0,0.0,0.0,0.0,0.0,0.0,0.0,0.0,-0.0,-0.0,-0.0,-0.0,-0.0,-0.0,-0.0,-0.0,-0.0,-0.0,0.0,0.0,0.0,0.0,0.0,0.0,0.0,0.0,0.0,0.0,0.0,0.0,0.0,0.0,0.0,0.0,0.0,0.0,0.0,0.0,0.0,0.0,-0.0,-0.0,-0.0,-0.0,-0.0,0.0,0.0,0.0,0.0,0.0,0.0,0.0,0.0,0.0,0.0,0.0,-0.0954,-0.1019,-0.1075,-0.1124,-0.1086,-0.1052,-0.1042,-0.0996,-0.09,-0.0885,-0.0877,-0.0737,0.0,0.0,0.0,0.0,0.0,0.0,0.0,0.0,0.0,0.0,0.0,0.0,0.0,0.0,0.0,0.0,0.0,0.0,0.0,0.0,0.0,0.0,0.0,0.0,0.0,0.0,0.0,0.0,0.0,0.0,0.0,0.0,0.0222,0.0086,0.0,0.0,0.0,0.0,0.0,0.0,0.0,0.0,0.0,0.0,0.0,0.0,0.0,-0.0,-0.0,-0.0,-0.0,-0.0,-0.0,-0.0,-0.0,-0.0,-0.0,-0.0,-0.0,0.0,-0.0,-0.0,0.0,0.0,0.0,0.0,0.0,0.0,0.0,0.0,0.0,0.0,0.0,0.0,0.0,0.0,0.0,0.0,0.0,0.0,0.0,0.0,0.0,0.0,-0.0,-0.0,-0.0,-0.0,-0.0,-0.0,-0.0,-0.0,-0.0,-0.0,0.0,0.0,0.0,0.0,0.0,0.0,-0.1046,-0.1111,-0.1152,-0.1159,-0.1153,-0.1128,-0.1078,-0.1066,-0.1027,-0.0888,-0.1016,-0.0872,-0.0427,-0.021,0.0,0.0,0.0,0.0,0.0,0.0,0.0,0.0,0.0,0.0,0.0,0.0,0.0,0.0,0.0,0.0,0.0,0.0,0.0,0.0,0.0,0.0,0.0,0.0,0.0,0.0,0.0,0.0,0.0,0.0706,0.0298,0.0046,-0.0,-0.0,0.0,0.0,0.0,0.0,0.0,0.0,0.0,0.0,0.0,-0.0,-0.0,-0.0,-0.0,-0.0,-0.0,-0.0,-0.0,-0.0,-0.0,-0.0,-0.0,-0.0,-0.0,-0.0,-0.0,-0.0,-0.0,-0.0,0.0,0.0,0.0,0.0,-0.0,-0.0,-0.0,-0.0,-0.0,-0.0,0.0,0.0,0.0,0.0,0.0,0.0,0.0,-0.0,-0.0,-0.0,-0.0,-0.0,-0.0,-0.0,-0.0,-0.0,-0.0,-0.0,-0.0,-0.0,-0.0,-0.0353,0.0,0.0,0.0,-0.1043,-0.1087,-0.111,-0.1128,-0.1163,-0.1166,-0.1142,-0.1219,-0.093,-0.0772,-0.0911,-0.0965,-0.0714,-0.0174,-0.0056,-0.0106,0.0,0.0,0.0,0.0,0.0,0.0,0.0,0.0,0.0,0.0,0.0,0.0,0.0,0.0,0.0,0.0,0.0,0.0,0.0,0.0,0.0,0.0,0.0,0.0,0.0,0.0,0.0,0.0,0.0848,0.0374,0.005,-0.0,-0.0,0.0,0.0,0.0,0.0,0.0,0.0,-0.0,-0.0,-0.0,-0.0,-0.0,-0.0,-0.0,-0.0,-0.0,-0.0,-0.0,-0.0,-0.0,-0.0,-0.0,-0.0,-0.0,-0.0,-0.0,-0.0,-0.0,-0.0,-0.0,-0.0,-0.0,-0.0,-0.0,-0.0,-0.0,-0.0,-0.0,-0.0,-0.0,-0.0,-0.0,0.0,0.0,0.0,0.0,-0.0,-0.0,-0.0,-0.0,-0.0,-0.0,-0.0,-0.0,-0.0,-0.0,-0.0,-0.0,-0.0,-0.0,-0.0453,0.0,0.0,0.0,-0.1073,-0.1099,-0.1028,-0.1035,-0.115,-0.101,-0.1069,-0.1312,-0.0939,-0.0715,-0.0689,-0.0678,-0.0488,-0.0,-0.0,-0.0,-0.0,0.0,0.0,0.0,0.0,0.0,0.0,0.0,0.0,0.0,0.0,0.0,0.0,0.0,0.0,0.0,0.0,0.0,0.0,0.0,0.0,0.0,0.0,0.0,0.0,0.0,0.0,0.0,0.0,0.0,0.0055,-0.0,0.0,0.0,0.0,0.0,-0.0,-0.0,-0.0,-0.0,-0.0,-0.0,-0.0,-0.0,-0.0,-0.0,-0.0,-0.0,-0.0,-0.0,-0.0,-0.0,-0.0,-0.0,-0.0,-0.0,-0.0,-0.0,-0.0,-0.0,-0.0,-0.0,-0.0,-0.0,-0.0,-0.0,-0.0,-0.0,-0.0,-0.0,-0.0,-0.0,-0.0,-0.0,-0.0,0.0,0.0,-0.0,-0.0,-0.0,-0.0,-0.0,-0.0,-0.0,-0.0,-0.0,-0.0,-0.0,-0.0,-0.0,-0.0,-0.0,0.0,-0.0311,-0.096,-0.1185,-0.1209,-0.1148,-0.0827,-0.077,-0.1053,-0.0772,-0.0709,-0.1233,-0.1276,-0.0887,-0.0065,-0.0066,-0.0,-0.0,-0.0,-0.0,-0.0,-0.0,0.0,0.0,0.0,0.0,0.0,0.0,0.0,0.0,0.0,0.0,0.0,0.0,0.0,0.0,0.0,0.0,0.0,0.0,0.0,0.0,0.0,0.0,0.0,0.0,0.0,0.0,0.0,0.0,-0.0,-0.0,0.0,-0.0,-0.0,-0.0,-0.0,-0.0,-0.0,-0.0,-0.0,-0.0,-0.0,-0.0,-0.0,-0.0,-0.0,-0.0,-0.0,-0.0,-0.0,-0.0,-0.0,-0.0,-0.0,-0.0,-0.0,-0.0,-0.0,-0.0,-0.0,-0.0,-0.0,-0.0,-0.0,-0.0,-0.0,-0.0,-0.0,-0.0,-0.0,-0.0,-0.0,-0.0,-0.0,-0.0,-0.0,-0.0,-0.0,-0.0,-0.0,-0.0,-0.0,-0.0,-0.0,-0.0,-0.0,-0.0,-0.0,-0.0,-0.0,-0.0,-0.0,-0.0069,-0.0349,-0.0635,-0.0928,-0.1162,-0.0854,-0.0491,-0.0421,-0.0701,-0.0774,-0.0498,-0.0486,-0.0339,-0.0,-0.0,-0.0,-0.0,-0.0,-0.0,-0.0,-0.0,-0.0,0.0,0.0,0.0,0.0,0.0,0.0,0.0,0.0,0.0,0.0,0.0,0.0,0.0,0.0,0.0,0.0,0.0,0.0,0.0,0.0,0.0,0.0,0.0,0.0,0.0,0.0,-0.0,-0.0,-0.0,-0.0,-0.0,-0.0,-0.0,-0.0,-0.0,-0.0,-0.0,-0.0,-0.0,-0.0,-0.0,-0.0,-0.0,-0.0,-0.0,-0.0,-0.0,-0.0,-0.0,-0.0,-0.0,-0.0,-0.0,-0.0,-0.0,-0.0,-0.0,-0.0,-0.0,-0.0,-0.0,-0.0,-0.0,-0.0,-0.0,-0.0,-0.0,-0.0,-0.0,-0.0,-0.0,-0.0,-0.0,-0.0,-0.0,-0.0,-0.0,-0.0,-0.0,-0.0,-0.0,-0.0,-0.0,-0.0,-0.0,-0.0,-0.0,-0.0,-0.0,-0.0,-0.0,-0.0,-0.0224,-0.0451,-0.0842,-0.0521,-0.0218,-0.0,-0.0428,-0.0499,-0.0072,-0.0,-0.0,-0.0,-0.0,-0.0,-0.0,-0.0,-0.0,-0.0,-0.0,-0.0,-0.0,0.0,0.0,0.0,0.0,0.0,0.0,0.0,0.0,0.0,0.0,0.0,0.0,0.0,0.0,0.0,0.0,0.0,0.0,0.0,0.0,0.0,0.0,0.0,-0.0,-0.0,-0.0,-0.0,-0.0,-0.0,-0.0,-0.0,-0.0,-0.0,-0.0,-0.0,-0.0,-0.0,-0.0,-0.0,-0.0,-0.0,-0.0,-0.0,-0.0,-0.0,-0.0,-0.0,-0.0,-0.0,-0.0,-0.0,-0.0,-0.0,-0.0,-0.0,-0.0,-0.0,-0.0,-0.0,-0.0,-0.0,-0.0,-0.0,-0.0,-0.0,-0.0,-0.0,-0.0,-0.0,-0.0,-0.0,-0.0,-0.0,-0.0,-0.0,-0.0,-0.0,-0.0,-0.0,-0.0,-0.0,-0.0,-0.0,-0.0,-0.0,-0.0,-0.0,-0.0,-0.0,-0.0,-0.0,-0.0,0.0,-0.0,-0.0,-0.0,-0.0,-0.0,-0.0,-0.0,-0.0,-0.0,-0.0,-0.0,-0.0,-0.0,-0.0,-0.0,-0.0,-0.0,-0.0,-0.0,0.0,0.0,0.0,0.0,0.0,0.0,0.0,0.0,0.0,0.0,0.0,0.0,0.0,0.0,0.0,0.0,0.0,0.0,0.0,0.0,0.0,-0.0,-0.0,-0.0,-0.0,-0.0,-0.0,-0.0,-0.0,-0.0,-0.0,-0.0,-0.0,-0.0,-0.0,-0.0,-0.0,-0.0,-0.0,-0.0,-0.0,-0.0,-0.0,-0.0,-0.0,-0.0,-0.0,-0.0,-0.0,-0.0,-0.0,-0.0,-0.0,-0.0,-0.0,-0.0,-0.0,-0.0,-0.0,-0.0,-0.0,-0.0,-0.0,-0.0,-0.0,-0.0,-0.0,-0.0,-0.0,-0.0,-0.0,-0.0,-0.0,-0.0,-0.0,-0.0,-0.0,-0.0,-0.0,-0.0,-0.0,-0.0,-0.0,-0.0,-0.0,-0.0,-0.0,-0.0,-0.0,-0.0,-0.0,-0.0,-0.0,-0.0,-0.0,-0.0,-0.0,-0.0,-0.0,-0.0,-0.0,-0.0,-0.0,-0.0,-0.0,-0.0,-0.0,-0.0,-0.0,-0.0,-0.0,0.0,0.0,0.0,0.0,0.0,0.0,0.0,0.0,0.0,0.0,0.0,0.0,0.0,0.0,0.0,0.0,0.0,0.0,0.0,0.0,0.0,0.0,-0.0,-0.0,-0.0,-0.0,-0.0,-0.0,-0.0,-0.0,-0.0,-0.0,-0.0,-0.0,-0.0,-0.0,-0.0,-0.0,-0.0,-0.0,-0.0,-0.0,-0.0,-0.0,-0.0,-0.0,-0.0,-0.0,-0.0,-0.0,-0.0,-0.0,-0.0,-0.0,-0.0,-0.0,-0.0,-0.0,0.0,0.0,0.0,0.0,-0.0,-0.0,-0.0,-0.0,-0.0,-0.0,-0.0,-0.0,-0.0,-0.0,-0.0,-0.0,-0.0,-0.0,-0.0,-0.0,-0.0,-0.0,-0.0,-0.0,-0.0,-0.0,-0.0,-0.0,-0.0,0.0,-0.0,-0.0,-0.0,-0.0,-0.0,-0.0,-0.0,-0.0,-0.0,-0.0,-0.0,-0.0,-0.0,-0.0,0.0,0.0,0.0,-0.0,-0.0,-0.0,0.0,0.0,0.0,0.0,0.0,0.0,0.0,0.0,-0.0,-0.0232,0.0,0.0,0.0,0.0,0.0,0.0,0.0,0.0,0.0,0.0,0.0,0.0,0.0,0.0,0.0,0.0,-0.0,-0.0,-0.0,-0.0,-0.0,-0.0,-0.0,-0.0,-0.0,-0.0,-0.0,-0.0,-0.0,-0.0,-0.0,0.0,0.0,0.0,0.0,-0.0,-0.0,-0.0,-0.0,-0.0,-0.0,-0.0,-0.0,-0.0,-0.0,-0.0,-0.0,-0.0,-0.0,-0.0,-0.0,-0.0,-0.0,-0.0,-0.0,-0.0,-0.0,-0.0,-0.0,0.0,0.0,-0.0,-0.0,-0.0,-0.0,-0.0,-0.0,-0.0,-0.0,-0.0,-0.0,-0.0,-0.0,-0.0,-0.0,-0.0,-0.0,-0.0,-0.0,-0.0,-0.0,-0.0,-0.0,-0.0,-0.0,-0.0,-0.0,-0.0,-0.0,-0.0,-0.0,-0.0,-0.0,0.0,-0.0,-0.0,-0.0,-0.0,-0.0,-0.0,-0.0,-0.0,-0.0,-0.0,-0.0,-0.0,-0.0,-0.0,-0.0,-0.0,-0.0,-0.0,0.0,0.0,0.0,0.0,0.0,0.0,0.0,0.0,0.0,0.0,0.0,0.0,0.0,0.0,0.0,-0.0,-0.0,-0.0,-0.0,-0.0,-0.0,-0.0,-0.0,-0.0,-0.0,-0.0,-0.0,-0.0,-0.0,-0.0,-0.0,-0.0,-0.0,-0.0,-0.0,-0.0,-0.0,-0.0,-0.0,-0.0,-0.0,0.0,-0.0,-0.0,-0.0,-0.0,-0.0,-0.0,-0.0,-0.0,-0.0,-0.0,-0.0,-0.0,-0.0,-0.0,-0.0,-0.0,-0.0,-0.0,-0.0,-0.0,-0.0,-0.0,-0.0,-0.0,0.0,-0.0,-0.0,-0.0,-0.0,-0.0,-0.0,-0.0,-0.0,-0.0,-0.0,-0.0,-0.0,-0.0,-0.0,-0.0,-0.0,-0.0,-0.0,-0.0,-0.0,-0.0,-0.0,-0.0,-0.0,-0.0,-0.0,-0.0,-0.0,-0.0,-0.0,-0.0,-0.0,-0.0,-0.0,-0.0,-0.0,-0.0,-0.0,-0.0,-0.0,-0.0,-0.0,-0.0,-0.0,-0.0,0.0,0.0,0.0,0.0,0.0,0.0,0.0,0.0,0.0,0.0,0.0,0.0572,0.0488,0.0,-0.0,-0.0,-0.0,-0.0,-0.0,-0.0,-0.0,-0.0,-0.0,-0.0,-0.0,-0.0,-0.0,-0.0,-0.0,-0.0,-0.0,-0.0,-0.0,-0.0,-0.0,-0.0,-0.0,-0.0,-0.0,-0.0,-0.0,-0.0,-0.0,-0.0,-0.0,-0.0,-0.0,-0.0,-0.0,-0.0,-0.0,-0.0,-0.0,-0.0,-0.0,-0.0,-0.0,-0.0,-0.0,-0.0,-0.0,-0.0,-0.0,-0.0,-0.0,-0.0,-0.0,-0.0,-0.0,-0.0,-0.0,-0.0,-0.0,-0.0,-0.0,-0.0,-0.0,-0.0,-0.0,-0.0,-0.0,-0.0,-0.0,-0.0,-0.0,-0.0,-0.0,-0.0,-0.0,-0.0,-0.0,-0.0,-0.0,-0.0,-0.0,-0.0,-0.0,-0.0,-0.0,-0.0,-0.0,-0.0,-0.0,-0.0,-0.0,-0.0,-0.0,-0.0,-0.0,-0.0,-0.0,-0.0,0.0,0.0,0.0,0.0,0.0,0.0,0.0,0.0,0.0597,0.0359,0.0434,0.0572,0.0724,0.0343,-0.0,-0.0,-0.0,-0.0,-0.0,-0.0,-0.0,-0.0,-0.0,-0.0,-0.0,-0.0,-0.0,-0.0,-0.0,-0.0,-0.0,-0.0,-0.0,-0.0,-0.0,-0.0,-0.0,-0.0,-0.0,-0.0,-0.0,-0.0,-0.0,-0.0,-0.0,-0.0,-0.0,-0.0,-0.0,-0.0,-0.0,-0.0,-0.0,-0.0,-0.0,-0.0,-0.0,-0.0,-0.0,-0.0,-0.0,-0.0,-0.0,-0.0,-0.0,-0.0,-0.0,-0.0,-0.0,-0.0,-0.0,-0.0,-0.0,-0.0,-0.0,-0.0,-0.0,-0.0,-0.0,-0.0,-0.0,-0.0,-0.0,-0.0,-0.0,-0.0,-0.0,-0.0,-0.0,-0.0,-0.0,-0.0,-0.0,-0.0,-0.0,-0.0,-0.0,-0.0,-0.0,-0.0,-0.0,-0.0,-0.0,-0.0,-0.0,-0.0,-0.0,-0.0,-0.0,-0.0,-0.0,-0.0,0.0878,0.0857,0.0889,0.0916,0.0902,0.0911,0.0,0.0,0.0372,0.0068,0.0068,0.0068,0.0071,0.0072,-0.0,-0.0,-0.0,-0.0,-0.0,-0.0,-0.0,-0.0,-0.0,-0.0,-0.0,-0.0,-0.0,-0.0,-0.0,-0.0,-0.0,-0.0,-0.0,-0.0,-0.0,-0.0,-0.0,-0.0,-0.0,-0.0,-0.0,-0.0,-0.0,-0.0,-0.0,-0.0,-0.0,-0.0,-0.0,-0.0,-0.0,-0.0,-0.0,-0.0,-0.0,-0.0,-0.0,-0.0,-0.0,-0.0,-0.0,-0.0,-0.0,-0.0,-0.0,-0.0,-0.0,-0.0,-0.0,-0.0,-0.0,-0.0,-0.0,-0.0,-0.0,-0.0,-0.0,-0.0,-0.0,-0.0,-0.0,-0.0,-0.0,-0.0,-0.0,-0.0,-0.0,-0.0,-0.0,-0.0,-0.0,-0.0,-0.0,-0.0,-0.0,-0.0,-0.0,-0.0,-0.0,-0.0,-0.0,-0.0,-0.0,-0.0,-0.0,-0.0,-0.0,-0.0,-0.0,-0.0,-0.0,-0.0,0.0945,0.0954,0.0958,0.0,0.0986,0.0994,0.1063,0.0927,0.0663,0.0142,-0.0,-0.0,-0.0,-0.0,-0.0,0.0,-0.0,-0.0,-0.0,-0.0,-0.0,-0.0,-0.0,-0.0,-0.0,-0.0,-0.0,-0.0,-0.0,-0.0,-0.0,-0.0,-0.0,-0.0,-0.0,-0.0,-0.0,-0.0,-0.0,-0.0,-0.0,-0.0,-0.0,-0.0,-0.0,-0.0,-0.0,-0.0,-0.0,-0.0,-0.0,-0.0,-0.0,-0.0,-0.0,-0.0,-0.0,-0.0,-0.0,-0.0,-0.0,-0.0,-0.0,-0.0,-0.0,-0.0,-0.0,-0.0,-0.0,-0.0,-0.0,-0.0,-0.0,-0.0,-0.0,-0.0,-0.0,-0.0,-0.0,-0.0,-0.0,-0.0,-0.0,-0.0,-0.0,-0.0,-0.0,-0.0,-0.0,-0.0,-0.0,-0.0,-0.0,-0.0,-0.0,-0.0,-0.0,-0.0,-0.0,-0.0,-0.0,-0.0,-0.0,-0.0,-0.0,-0.0,-0.0,-0.0,-0.0,-0.0,-0.0,-0.0,0.0937,0.0,0.0,0.1028,0.1046,0.1063,0.1086,0.1097,0.0978,0.0438,0.0224,0.0152,0.0153,0.0078,-0.0,-0.0,-0.0,-0.0,-0.0,-0.0,-0.0,-0.0,-0.0,-0.0,-0.0,-0.0,-0.0,-0.0,-0.0,-0.0,-0.0,-0.0,-0.0,-0.0,-0.0,-0.0,-0.0,-0.0,-0.0,-0.0,-0.0,-0.0,-0.0,-0.0,-0.0,-0.0,-0.0,-0.0,-0.0,-0.0,-0.0,-0.0,-0.0,-0.0,-0.0,-0.0,-0.0,-0.0,-0.0,-0.0,-0.0,-0.0,-0.0,-0.0,-0.0,-0.0,-0.0,-0.0,-0.0,-0.0,-0.0,-0.0,-0.0,-0.0,-0.0,-0.0,-0.0,-0.0,-0.0,-0.0,-0.0,-0.0,-0.0,-0.0,-0.0,-0.0,-0.0,-0.0,-0.0,-0.0,-0.0,-0.0,-0.0,-0.0,-0.0,-0.0,-0.0,-0.0,-0.0,-0.0,-0.0,-0.0,-0.0,-0.0,-0.0,-0.0,-0.0,-0.0,-0.0,-0.0,-0.0,-0.0,0.0,0.0,0.0968,0.0969,0.1076,0.1119,0.1119,0.1142,0.1172,0.1204,0.0832,0.061,0.0547,0.0235,-0.0,-0.0,-0.0,-0.0,-0.0,-0.0,-0.0,-0.0,-0.0,-0.0,-0.0,-0.0,-0.0,-0.0,-0.0,-0.0,-0.0,-0.0,-0.0,-0.0,-0.0,-0.0,-0.0,-0.0,-0.0,-0.0,-0.0,-0.0,-0.0,-0.0,-0.0,-0.0,-0.0,-0.0,-0.0,-0.0,-0.0,-0.0,-0.0,-0.0,-0.0,-0.0,-0.0,-0.0,-0.0,-0.0,-0.0,-0.0,-0.0,-0.0,-0.0,-0.0,-0.0,-0.0,-0.0,-0.0,-0.0,-0.0,-0.0,-0.0,-0.0,-0.0,-0.0,-0.0,-0.0,-0.0,-0.0,-0.0,-0.0,-0.0,-0.0,-0.0,-0.0,-0.0,-0.0,-0.0,-0.0,-0.0,-0.0,-0.0,-0.0,-0.0,-0.0,-0.0,-0.0,-0.0,-0.0,-0.0,-0.0,-0.0,-0.0,-0.0,-0.0,-0.0,-0.0,-0.0,-0.0,-0.0,0.1018,0.0,0.1043,0.1082,0.1106,0.1132,0.1172,0.1189,0.12,0.121,0.106,0.0982,0.0974,0.091,0.0699,0.0081,-0.0,-0.0,-0.0,-0.0,-0.0,-0.0,-0.0,0.0,-0.0,-0.0,0.0,-0.0,-0.0,-0.0,-0.0,-0.0,-0.0,-0.0,-0.0,-0.0,-0.0,-0.0,-0.0,-0.0,-0.0,-0.0,-0.0,-0.0,-0.0,-0.0,-0.0,-0.0,-0.0,-0.0,-0.0,-0.0,-0.0,-0.0,-0.0,-0.0,-0.0,-0.0,-0.0,-0.0,-0.0,-0.0,-0.0,-0.0,-0.0,-0.0,-0.0,-0.0,-0.0,-0.0,-0.0,-0.0,-0.0,-0.0,-0.0,-0.0,-0.0,-0.0,-0.0,-0.0,-0.0,-0.0,-0.0,-0.0,-0.0,-0.0,-0.0,-0.0,-0.0,-0.0,-0.0,-0.0,-0.0,-0.0,-0.0,-0.0,-0.0,-0.0,-0.0,-0.0,-0.0,-0.0,-0.0,-0.0,-0.0,-0.0,-0.0,-0.0,-0.0,-0.0,-0.0,-0.0,0.106,0.107,0.1076,0.1125,0.1145,0.1161,0.1189,0.1204,0.1209,0.1198,0.1196,0.1189,0.117,0.1183,0.1063,0.0558,0.0328,0.0169,-0.0,-0.0,-0.0,-0.0,-0.0,-0.0,0.0,0.0,0.0,-0.0,-0.0,-0.0,-0.0,-0.0,-0.0,-0.0,-0.0,-0.0,-0.0,-0.0,-0.0,-0.0,-0.0,-0.0,-0.0,-0.0,-0.0,-0.0,-0.0,-0.0,-0.0,-0.0,-0.0,-0.0,-0.0,-0.0,-0.0,-0.0,-0.0,-0.0,-0.0,-0.0,-0.0,-0.0,-0.0,-0.0,-0.0,-0.0,-0.0,-0.0,-0.0,-0.0,-0.0,-0.0,-0.0,-0.0,-0.0,-0.0,-0.0,-0.0,-0.0,-0.0,-0.0,-0.0,-0.0,-0.0,-0.0,-0.0,-0.0,-0.0,-0.0,-0.0,-0.0,-0.0,-0.0,-0.0,-0.0,-0.0,-0.0,-0.0,-0.0,-0.0,-0.0,-0.0,-0.0,-0.0,-0.0,-0.0,-0.0,-0.0,-0.0,-0.0,-0.0,-0.0,0.101,0.11,0.1131,0.1161,0.1189,0.1202,0.1174,0.1189,0.12,0.1168,0.1162,0.1161,0.1157,0.0,0.1109,0.1243,0.0961,0.058,0.0173,0.0087,-0.0,0.0,0.0,0.0,0.0,0.0,0.0,-0.0,0.0,-0.0,-0.0,-0.0,-0.0,-0.0,-0.0,-0.0,-0.0,-0.0,-0.0,-0.0,-0.0,-0.0,-0.0,-0.0,-0.0,-0.0,-0.0,-0.0,-0.0,-0.0,-0.0,-0.0,-0.0,-0.0,-0.0,-0.0,-0.0,-0.0,-0.0,-0.0,-0.0,-0.0,-0.0,-0.0,-0.0,-0.0,-0.0,-0.0,-0.0,-0.0,-0.0,-0.0,-0.0,-0.0,-0.0,-0.0,-0.0,-0.0,-0.0,-0.0,-0.0,-0.0,-0.0,-0.0,-0.0,-0.0,-0.0,-0.0,-0.0,-0.0,-0.0,-0.0,-0.0,-0.0,-0.0,-0.0,-0.0,-0.0,-0.0,-0.0,-0.0,-0.0,-0.0,-0.0,-0.0,-0.0,-0.0,-0.0,-0.0,-0.0,-0.0,-0.0,0.0827,0.0919,0.1162,0.1193,0.1189,0.1182,0.1197,0.1189,0.1163,0.111,0.1099,0.1085,0.1042,0.0,0.0,0.1109,0.1113,0.0,0.1041,0.0706,0.0,-0.0,0.0,-0.0,-0.0,-0.0,0.0,0.0,-0.0,-0.0,-0.0,-0.0,-0.0,-0.0,-0.0,-0.0,-0.0,-0.0,-0.0,-0.0,-0.0,-0.0,-0.0,-0.0,-0.0,-0.0,-0.0,-0.0,-0.0,-0.0,-0.0,-0.0,-0.0,-0.0,-0.0,-0.0,-0.0,-0.0,-0.0,-0.0,-0.0,-0.0,-0.0,-0.0,-0.0,-0.0,-0.0,-0.0,-0.0,-0.0,-0.0,-0.0,-0.0,-0.0,-0.0,-0.0,-0.0,-0.0,-0.0,-0.0,-0.0,-0.0,-0.0,-0.0,-0.0,-0.0,-0.0,-0.0,-0.0,-0.0,-0.0,-0.0,-0.0,-0.0,-0.0,-0.0,-0.0,-0.0,-0.0,-0.0,-0.0,-0.0,-0.0,-0.0,-0.0,-0.0,-0.0,-0.0,-0.0,-0.0,-0.0,-0.0,0.1225,0.133,0.1436,0.1304,0.1209,0.1184,0.1174,0.1148,0.111,0.105,0.1037,0.0,0.0994,0.104,0.0,0.0,0.0,0.0,0.1367,0.1145,0.0893,0.0,0.0267,0.0,-0.0,-0.0,-0.0,0.0,-0.0,-0.0,-0.0,-0.0,-0.0,-0.0,-0.0,-0.0,-0.0,-0.0,-0.0,-0.0,-0.0,-0.0,-0.0,0.0505,0.0404,-0.0,-0.0,-0.0,-0.0,-0.0,-0.0,-0.0,-0.0,-0.0,-0.0,-0.0,-0.0,-0.0,-0.0,-0.0,-0.0,-0.0,-0.0,-0.0,-0.0,-0.0,-0.0,-0.0,-0.0,-0.0,-0.0,-0.0,-0.0,-0.0,-0.0,-0.0,-0.0,-0.0,-0.0,-0.0,-0.0,-0.0,-0.0,-0.0,-0.0,-0.0,-0.0,-0.0,-0.0,-0.0,-0.0,-0.0,-0.0,-0.0,-0.0,-0.0,-0.0,-0.0,-0.0,-0.0,-0.0,-0.0,-0.0,-0.0,-0.0,-0.0,-0.0,-0.0,-0.0,-0.0,-0.0,-0.0,0.1722,0.1845,0.1803,0.1487,0.1305,0.1189,0.1129,0.1091,0.1053,0.0994,0.0,0.0981,0.0977,0.1004,0.1047,0.1106,0.0,0.1274,0.1339,0.1395,0.1431,0.1435,0.0718,0.0179,-0.0,-0.0,-0.0,-0.0,-0.0,-0.0,-0.0,-0.0,-0.0,-0.0,-0.0,-0.0,-0.0,-0.0,-0.0,-0.0,-0.0,-0.0,-0.0,0.111,0.1111,0.0202,0.0101,-0.0,0.0101,-0.0,-0.0,-0.0,-0.0,-0.0,-0.0,-0.0,-0.0,-0.0,-0.0,-0.0,-0.0,-0.0,-0.0,-0.0,-0.0,-0.0,-0.0,-0.0,-0.0,-0.0,-0.0,-0.0,-0.0,-0.0,-0.0,-0.0,-0.0,-0.0,-0.0,-0.0,-0.0,-0.0,-0.0,-0.0,-0.0,-0.0,-0.0,-0.0,-0.0,-0.0,-0.0,-0.0,-0.0,-0.0,-0.0,-0.0,-0.0,-0.0,-0.0,-0.0,-0.0,-0.0,-0.0,-0.0,-0.0,-0.0,-0.0,-0.0,-0.0,-0.0,-0.0,-0.0,0.1539,0.1669,0.1873,0.1762,0.1421,0.1158,0.1097,0.1061,0.0,0.0,0.0891,0.0943,0.0917,0.0958,0.0,0.1074,0.0,0.0,0.0,0.0,0.1409,0.0,0.0,0.0,0.0,0.0,0.0,0.0,-0.0,-0.0,-0.0,-0.0,-0.0,-0.0,-0.0,-0.0,-0.0,-0.0,-0.0,-0.0,-0.0,-0.0,-0.0,0.1103,0.1516,0.1313,0.0404,0.0202,0.0606,0.0202,-0.0,-0.0,-0.0,-0.0,-0.0,-0.0,-0.0,-0.0,-0.0,-0.0,-0.0,-0.0,-0.0,-0.0,-0.0,-0.0,-0.0,-0.0,-0.0,-0.0,-0.0,-0.0,-0.0,-0.0,-0.0,-0.0,-0.0,-0.0,-0.0,-0.0,-0.0,-0.0,-0.0,-0.0,-0.0,-0.0,-0.0,-0.0,-0.0,-0.0,-0.0,-0.0,-0.0,-0.0,-0.0,-0.0,-0.0,-0.0,-0.0,-0.0,-0.0,-0.0,-0.0,-0.0,-0.0,-0.0,-0.0,-0.0,-0.0,-0.0,-0.0,-0.0,0.1699,0.1665,0.1767,0.152,0.1337,0.1147,0.1071,0.0,0.0,0.0,0.0907,0.0896,0.0897,0.0,0.0,0.0,0.0,0.0,0.0,0.0,0.0,0.0,0.0,0.0,0.0,0.0,0.0,-0.0,-0.0,-0.0,-0.0,-0.0,-0.0,-0.0,-0.0,-0.0,-0.0,-0.0,-0.0,-0.0,-0.0,-0.0,-0.0,0.0501,0.1111,0.1617,0.101,0.101,0.1212,0.0909,0.0505,-0.0,-0.0,-0.0,-0.0,-0.0,-0.0,-0.0,-0.0,-0.0,-0.0,-0.0,-0.0,-0.0,-0.0,-0.0,-0.0,-0.0,-0.0,-0.0,-0.0,-0.0,-0.0,-0.0,-0.0,-0.0,-0.0,-0.0,-0.0,-0.0,-0.0,-0.0,-0.0,-0.0,-0.0,-0.0,-0.0,-0.0,-0.0,-0.0,-0.0,-0.0,-0.0,-0.0,-0.0,-0.0,-0.0,-0.0,-0.0,-0.0,-0.0,-0.0,-0.0,-0.0,-0.0,-0.0,-0.0,-0.0,-0.0,-0.0,-0.0,-0.0,0.1844,0.1797,0.1726,0.1418,0.1243,0.1125,0.1043,0.0977,0.0,0.0,0.0923,0.0913,0.0883,0.0,0.0,0.0,0.0,0.0,0.0,0.0,0.0,0.0,0.0,0.0,0.0,0.0,0.0,-0.0,-0.0,-0.0,-0.0,-0.0,-0.0,-0.0,-0.0,-0.0,-0.0,-0.0,-0.0,-0.0,-0.0,-0.0,-0.0,0.01,0.0604,0.1415,0.1415,0.1516,0.1617,0.1617,0.1111,0.0303,0.0101,-0.0,-0.0,-0.0,-0.0,-0.0,-0.0,-0.0,-0.0,-0.0,-0.0,-0.0,-0.0,-0.0,-0.0,-0.0,-0.0,-0.0,-0.0,-0.0,-0.0,-0.0,-0.0,-0.0,-0.0,-0.0,-0.0,-0.0,-0.0,-0.0,-0.0,-0.0,-0.0,-0.0,-0.0,-0.0,-0.0,-0.0,-0.0,-0.0,-0.0,-0.0,-0.0,-0.0,-0.0,-0.0,-0.0,-0.0,-0.0,-0.0,-0.0,-0.0,-0.0,-0.0,-0.0,-0.0,-0.0,-0.0,-0.0,-0.0,0.1693,0.1725,0.1747,0.1705,0.1384,0.1068,0.1007,0.0,0.0,0.0916,0.0907,0.0906,0.0909,0.0881,0.0922,0.0,0.0,0.1013,0.0,0.0,0.0,0.0,0.0,0.0,0.0,0.0,0.0,-0.0,-0.0,-0.0,-0.0,-0.0,-0.0,-0.0,-0.0,-0.0,-0.0,-0.0,-0.0,-0.0,-0.0,-0.0,-0.0,0.0488,0.0795,0.0909,0.0909,0.1111,0.1617,0.1617,0.1516,0.1314,0.0404,-0.0,-0.0,-0.0,-0.0,-0.0,-0.0,-0.0,-0.0,-0.0,-0.0,-0.0,-0.0,-0.0,-0.0,-0.0,-0.0,-0.0,-0.0,-0.0,-0.0,-0.0,-0.0,-0.0,-0.0,-0.0,-0.0,-0.0,-0.0,-0.0,-0.0,-0.0,-0.0,-0.0,-0.0,-0.0,-0.0,-0.0,-0.0,-0.0,-0.0,-0.0,-0.0,-0.0,-0.0,-0.0,-0.0,-0.0,-0.0,-0.0,-0.0,-0.0,-0.0,-0.0,-0.0,-0.0,-0.0,-0.0,-0.0,-0.0,0.132,0.1342,0.1349,0.1335,0.1235,0.106,0.1001,0.0,0.0921,0.0908,0.089,0.083,0.0902,0.0877,0.0911,0.1014,0.0777,0.0,0.0,0.0,0.0,0.0,0.0,0.0,0.0,0.0,-0.0,-0.0,-0.0,-0.0,-0.0,-0.0,-0.0,-0.0,-0.0,-0.0,-0.0,-0.0,-0.0,-0.0,-0.0,-0.0,-0.0,0.0765,0.117,0.1292,0.1292,0.1,0.0707,0.1111,0.1415,0.1516,0.0404,-0.0,-0.0,-0.0,-0.0,-0.0,-0.0,-0.0,-0.0,-0.0,-0.0,-0.0,-0.0,-0.0,-0.0,-0.0,-0.0,-0.0,-0.0,-0.0,-0.0,-0.0,-0.0,-0.0,-0.0,-0.0,-0.0,-0.0,-0.0,-0.0,-0.0,-0.0,-0.0,-0.0,-0.0,-0.0,-0.0,-0.0,-0.0,-0.0,-0.0,-0.0,-0.0,-0.0,-0.0,-0.0,-0.0,-0.0,-0.0,-0.0,-0.0,-0.0,-0.0,-0.0,-0.0,-0.0,-0.0,-0.0,-0.0,-0.0,0.1084,0.1101,0.1108,0.1108,0.1078,0.1039,0.0,0.0,0.0894,0.0904,0.0828,0.0816,0.0847,0.0877,0.0905,0.0984,0.0747,0.0479,0.0,0.0,0.0,0.0,0.0,0.0,0.0,0.0,-0.0,-0.0,-0.0,-0.0,-0.0,-0.0,-0.0,-0.0,-0.0,-0.0,-0.0,-0.0,-0.0,-0.0,-0.0,-0.0,-0.0,0.0657,0.1147,0.1558,0.1558,0.1177,0.0497,0.07,0.1102,0.1503,0.0801,0.0302,-0.0,-0.0,-0.0,-0.0,-0.0,-0.0,-0.0,-0.0,-0.0,-0.0,-0.0,-0.0,-0.0,-0.0,-0.0,-0.0,-0.0,-0.0,-0.0,-0.0,-0.0,-0.0,-0.0,-0.0,-0.0,-0.0,-0.0,-0.0,-0.0,-0.0,-0.0,-0.0,-0.0,-0.0,-0.0,-0.0,-0.0,-0.0,-0.0,-0.0,-0.0,-0.0,-0.0,-0.0,-0.0,-0.0,-0.0,-0.0,-0.0,-0.0,-0.0,-0.0,-0.0,-0.0,-0.0,-0.0,-0.0,-0.0,0.0969,0.1055,0.1076,0.1076,0.1032,0.0989,0.0,0.0894,0.0816,0.0899,0.0828,0.0816,0.0794,0.0877,0.0898,0.0898,0.0923,0.0,0.0,0.0,0.0,0.0,0.0,0.0,0.0,0.0,-0.0,-0.0,-0.0,0.0,-0.0,-0.0,-0.0,-0.0,-0.0,-0.0,-0.0,-0.0,-0.0,-0.0,-0.0,-0.0,-0.0,-0.0,0.0561,0.1431,0.1526,0.1622,0.1529,0.0487,0.0687,0.1572,0.1572,0.0894,-0.0,-0.0,-0.0,-0.0,-0.0,-0.0,-0.0,-0.0,-0.0,-0.0,-0.0,-0.0,-0.0,-0.0,-0.0,-0.0,-0.0,-0.0,-0.0,-0.0,-0.0,-0.0,-0.0,-0.0,-0.0,-0.0,-0.0,-0.0,-0.0,-0.0,-0.0,-0.0,-0.0,-0.0,-0.0,-0.0,-0.0,-0.0,-0.0,-0.0,-0.0,-0.0,-0.0,-0.0,-0.0,-0.0,-0.0,-0.0,-0.0,-0.0,-0.0,-0.0,-0.0,-0.0,-0.0,-0.0,-0.0,-0.0,0.0906,0.0993,0.1011,0.099,0.0971,0.0957,0.0957,0.0879,0.0815,0.0899,0.0828,0.0816,0.0794,0.0877,0.0911,0.0893,0.0544,0.0189,0.0,0.0,0.0,0.0,0.0,0.0,0.0,0.0,-0.0,-0.0,-0.0,-0.0,-0.0,-0.0,-0.0,-0.0,-0.0,-0.0,-0.0,-0.0,-0.0,-0.0,-0.0,-0.0,-0.0,-0.0,0.0183,0.0467,0.0841,0.0847,0.0477,0.0576,0.0578,0.0578,0.1251,0.087,-0.0,-0.0,-0.0,-0.0,-0.0,-0.0,-0.0,-0.0,-0.0,-0.0,-0.0,-0.0,-0.0,-0.0,-0.0,-0.0,-0.0,-0.0,-0.0,-0.0,-0.0,-0.0,-0.0,-0.0,-0.0,-0.0,-0.0,-0.0,-0.0,-0.0,-0.0,-0.0,-0.0,-0.0,-0.0,-0.0,-0.0,-0.0,-0.0,-0.0,-0.0,-0.0,-0.0,-0.0,-0.0,-0.0,-0.0,-0.0,-0.0,-0.0,-0.0,-0.0,-0.0,-0.0,-0.0,-0.0,-0.0,-0.0,0.0,0.0939,0.0967,0.0888,0.0875,0.0926,0.0926,0.0856,0.08,0.0829,0.082,0.0765,0.0688,0.0603,0.0569,0.0533,0.0241,-0.0,0.0,0.0,0.0,0.0,0.0,0.0,0.0,-0.0,-0.0,-0.0,-0.0,-0.0,-0.0,-0.0,-0.0,-0.0,-0.0,-0.0,-0.0,-0.0,-0.0,-0.0,-0.0,-0.0,-0.0,-0.0,-0.0,-0.0,0.0275,0.0277,0.0,0.0376,0.0471,0.0566,0.0849,0.0758,0.0571,0.0562,0.0562,0.0471,0.0093,-0.0,-0.0,-0.0,-0.0,-0.0,-0.0,-0.0,-0.0,-0.0,-0.0,-0.0,-0.0,-0.0,-0.0,-0.0,-0.0,-0.0,-0.0,-0.0,-0.0,-0.0,-0.0,-0.0,-0.0,-0.0,-0.0,-0.0,-0.0,-0.0,-0.0,-0.0,-0.0,-0.0,-0.0,-0.0,-0.0,-0.0,-0.0,-0.0,-0.0,-0.0,-0.0,-0.0,-0.0,-0.0,-0.0,-0.0,-0.0,-0.0,-0.0,-0.0,-0.0,-0.0,0.0,0.0885,0.0874,0.0872,0.0911,0.0891,0.0891,0.0825,0.0,0.0801,0.0806,0.0715,0.0477,0.022,-0.0,-0.0,-0.0,0.0,0.0,0.0,0.0,0.0,0.0,0.0,-0.0,-0.0,-0.0,-0.0,-0.0,-0.0,-0.0,-0.0,-0.0,-0.0,-0.0,-0.0,-0.0,-0.0,-0.0,-0.0,-0.0,-0.0,-0.0,-0.0,-0.0,-0.0,-0.0,-0.0,-0.0,-0.0,0.0554,0.12,0.0369,0.0654,0.1418,0.1365,0.1362,0.1289,0.0361,0.009,-0.0,-0.0,-0.0,-0.0,0.009,0.009,-0.0,-0.0,-0.0,-0.0,-0.0,-0.0,-0.0,-0.0,-0.0,-0.0,-0.0,-0.0,-0.0,-0.0,-0.0,-0.0,-0.0,-0.0,-0.0,-0.0,-0.0,-0.0,-0.0,-0.0,-0.0,-0.0,-0.0,-0.0,-0.0,-0.0,-0.0,-0.0,-0.0,-0.0,-0.0,-0.0,-0.0,-0.0,-0.0,-0.0,-0.0,-0.0,-0.0,-0.0,-0.0,-0.0,0.0703,0.0,0.0834,0.0812,0.0817,0.0828,0.0,0.0795,0.0821,0.0,0.0,0.072,0.0767,0.0335,-0.0,-0.0,-0.0,0.0,0.0,0.0,0.0,0.0,0.0,0.0,-0.0,-0.0,-0.0,-0.0,-0.0,-0.0,-0.0,-0.0,-0.0,-0.0,-0.0,-0.0,-0.0,-0.0,-0.0,-0.0,-0.0,-0.0,-0.0,-0.0,-0.0,-0.0,-0.0,-0.0,-0.0,-0.0,0.0091,0.0362,0.0904,0.1178,0.1364,0.144,0.144,0.1355,0.1168,0.0807,0.0448,0.009,-0.0,0.009,0.0897,0.0539,-0.0,-0.0,-0.0,-0.0,-0.0,-0.0,-0.0,-0.0,-0.0,-0.0,-0.0,-0.0,-0.0,-0.0,-0.0,-0.0,-0.0,-0.0,-0.0,-0.0,-0.0,-0.0,-0.0,-0.0,-0.0,-0.0,-0.0,-0.0,-0.0,-0.0,-0.0,-0.0,-0.0,-0.0,-0.0,-0.0,-0.0,-0.0,-0.0,-0.0,-0.0,-0.0,-0.0,-0.0,-0.0,-0.0,0.0549,0.062,0.0737,0.0736,0.0795,0.0806,0.0806,0.0,0.0,0.0,0.0,0.0,0.0796,0.0,0.0,0.0061,-0.0,0.0,0.0,0.0,0.0,0.0,0.0,-0.0,0.0,-0.0,-0.0,-0.0,-0.0,-0.0,-0.0,-0.0,-0.0,-0.0,-0.0,-0.0,-0.0,-0.0,-0.0,-0.0,-0.0,-0.0,-0.0,-0.0,-0.0,-0.0,-0.0,-0.0,-0.0,-0.0,-0.0,0.009,0.0539,0.0987,0.1436,0.1436,0.1436,0.1436,0.1436,0.1076,0.0718,0.0628,0.0538,0.0448,0.0897,0.0897,0.0539,0.009,-0.0,-0.0,-0.0,-0.0,-0.0,-0.0,-0.0,-0.0,-0.0,-0.0,-0.0,-0.0,-0.0,-0.0,-0.0,-0.0,-0.0,-0.0,-0.0,-0.0,-0.0,-0.0,-0.0,-0.0,-0.0,-0.0,-0.0,-0.0,-0.0,-0.0,-0.0,-0.0,-0.0,-0.0,-0.0,-0.0,-0.0,-0.0,-0.0,-0.0,-0.0,-0.0,-0.0,-0.0,0.0334,0.0464,0.0668,0.064,0.07,0.0756,0.0756,0.0,0.0,0.0,0.0,0.0,0.0,0.0,0.0,0.0,0.0,0.0,0.0,0.0,0.0,0.0,0.0,0.0,-0.0,-0.0,-0.0,-0.0,-0.0,-0.0,-0.0,-0.0,-0.0,-0.0,-0.0,-0.0,-0.0,-0.0,-0.0,-0.0,-0.0,-0.0,-0.0,-0.0,-0.0,-0.0,-0.0,-0.0,-0.0,-0.0,0.009,0.0179,0.018,0.0719,0.1436,0.1436,0.1436,0.1436,0.1436,0.1166,0.0897,0.1256,0.1166,0.0807,0.0807,0.1076,0.1256,0.0448,0.0179,0.009,0.018,0.009,-0.0,-0.0,-0.0,-0.0,-0.0,-0.0,-0.0,-0.0,-0.0,-0.0,-0.0,-0.0,-0.0,-0.0,-0.0,-0.0,-0.0,-0.0,-0.0,-0.0,-0.0,-0.0,-0.0,-0.0,-0.0,-0.0,-0.0,-0.0,-0.0,-0.0,-0.0,-0.0,-0.0,-0.0,-0.0,-0.0,-0.0,-0.0,-0.0,-0.0,0.0279,0.0389,0.0455,0.0457,0.0433,0.0454,0.0454,0.0,0.0,0.0,0.0,0.0,0.0,0.0,0.0,0.0,0.0,0.0,0.0,0.0,0.0,0.0,0.0,-0.0,-0.0,-0.0,-0.0,-0.0,-0.0,-0.0,-0.0,-0.0,-0.0,-0.0,-0.0,-0.0,-0.0,-0.0,-0.0,-0.0,-0.0,-0.0,-0.0,-0.0,-0.0,-0.0,-0.0,-0.0,-0.0,-0.0,0.0449,0.1166,0.1168,0.1257,0.1436,0.1436,0.1436,0.1436,0.1436,0.1345,0.1345,0.1346,0.1345,0.1256,0.1256,0.1345,0.1345,0.1256,0.0897,0.0718,0.1077,0.0628,-0.0,-0.0,-0.0,-0.0,-0.0,-0.0,-0.0,-0.0,-0.0,-0.0,-0.0,-0.0,-0.0,-0.0,-0.0,-0.0,-0.0,-0.0,-0.0,-0.0,-0.0,-0.0,-0.0,-0.0,-0.0,-0.0,-0.0,-0.0,-0.0,-0.0,-0.0,-0.0,-0.0,-0.0,-0.0,-0.0,-0.0,-0.0,-0.0,-0.0,0.011,0.0162,0.0175,0.0179,0.0194,0.0208,0.0208,0.0,0.0,0.0,0.0,0.0,0.0,0.0,0.0,0.0,0.0,0.0,0.0,0.0,-0.0,0.0,0.0,-0.0,-0.0,-0.0,-0.0,-0.0,-0.0,-0.0,-0.0,-0.0,-0.0,-0.0,-0.0,-0.0,-0.0,-0.0,-0.0,-0.0,-0.0,-0.0,-0.0,-0.0,-0.0,-0.0,-0.0,-0.0,-0.0,0.0539,0.0988,0.1437,0.1437,0.1257,0.1076,0.1345,0.1436,0.1436,0.1436,0.1436,0.1436,0.1436,0.1436,0.1436,0.1436,0.1436,0.1436,0.1436,0.1076,0.0807,0.1256,0.1076,0.0628,0.009,0.0179,0.0269,0.009,-0.0,-0.0,-0.0,-0.0,-0.0,-0.0,-0.0,-0.0,-0.0,-0.0,-0.0,-0.0,-0.0,-0.0,-0.0,-0.0,-0.0,-0.0,-0.0,-0.0,-0.0,-0.0,-0.0,-0.0,-0.0,-0.0,-0.0,-0.0,-0.0,-0.0,-0.0,-0.0,-0.0,-0.0,-0.0,-0.0,-0.0,-0.0,-0.0,-0.0,-0.0,-0.0,0.0,0.0,0.0,0.0,0.0,0.0,0.0,0.0,0.0,0.0,0.0,-0.0,-0.0,-0.0,-0.0,-0.0,-0.0,-0.0,-0.0,-0.0,-0.0,-0.0,-0.0,-0.0,-0.0,-0.0,-0.0,-0.0,-0.0,-0.0,-0.0,-0.0,-0.0,-0.0,-0.0,-0.0,-0.0,-0.0,-0.0,0.0269,0.0359,0.0359,0.1077,0.1436,0.1438,0.1436,0.1166,0.0897,0.1256,0.1436,0.1436,0.1436,0.1436,0.1436,0.1436,0.1436,0.1436,0.1436,0.1436,0.1436,0.1436,0.1166,0.0987,0.1345,0.1436,0.1256,0.0538,0.0448,0.0538,0.0359,0.018,-0.0,-0.0,-0.0,-0.0,-0.0,-0.0,-0.0,-0.0,-0.0,-0.0,-0.0,-0.0,-0.0,-0.0,-0.0,-0.0,-0.0,-0.0,-0.0,-0.0,-0.0,-0.0,-0.0,-0.0,-0.0,-0.0,-0.0,-0.0,-0.0,-0.0,-0.0,-0.0,-0.0,-0.0,-0.0,-0.0,-0.0,-0.0,-0.0,0.0,-0.0,-0.0,0.0,0.0,0.0,0.0,0.0,0.0,0.0,0.0,0.0,-0.0,-0.0,0.0,-0.0,-0.0,-0.0,-0.0,-0.0,-0.0,-0.0,-0.0,-0.0,-0.0,-0.0,-0.0,-0.0,-0.0,-0.0,-0.0,-0.0,-0.0,-0.0,-0.0,-0.0,-0.0,-0.0,-0.0,-0.0,0.009,0.0897,0.1256,0.1346,0.1345,0.1436,0.1436,0.1436,0.1346,0.1345,0.1346,0.1436,0.1436,0.1436,0.1436,0.1436,0.1436,0.1436,0.1436,0.1436,0.1436,0.1436,0.1436,0.1345,0.1345,0.1436,0.1436,0.1346,0.1345,0.0628,0.0269,0.1077,0.0628,-0.0,-0.0,-0.0,-0.0,-0.0,-0.0,-0.0,-0.0,-0.0,-0.0,-0.0,-0.0,-0.0,-0.0,-0.0,-0.0,-0.0,-0.0,-0.0,-0.0,-0.0,-0.0,-0.0,-0.0,-0.0,-0.0,-0.0,-0.0,-0.0,-0.0,-0.0,-0.0,-0.0,-0.0,-0.0,-0.0,-0.0,-0.0,0.0,0.0,0.0,0.0,0.0,0.0,-0.0,0.0,0.0,0.0,0.0,0.0,0.0,-0.0,-0.0,-0.0,-0.0,-0.0,-0.0,-0.0,-0.0,-0.0,-0.0,-0.0,-0.0,-0.0,-0.0,-0.0,-0.0,-0.0,-0.0,-0.0,-0.0,-0.0,-0.0,-0.0,-0.0,-0.0,-0.0,-0.0,-0.0,0.009,0.0987,0.1436,0.1436,0.1436,0.1256,0.0987,0.1256,0.1436,0.1436,0.1436,0.1436,0.1436,0.1436,0.1436,0.1436,0.1436,0.1436,0.1436,0.1436,0.1436,0.1436,0.1436,0.1436,0.1436,0.1436,0.1436,0.1436,0.1436,0.1166,0.0807,0.0539,0.0718,0.0718,0.009,-0.0,-0.0,-0.0,-0.1977,-0.3509,-0.3509,-0.1527,-0.0,-0.0,-0.0,-0.0,-0.0,-0.0,-0.0,-0.0,-0.0,-0.0,-0.0,-0.0,-0.0,-0.0,-0.0,-0.0,-0.0,-0.0,-0.0,-0.0,-0.0,-0.0,-0.0,-0.0,-0.0,-0.0,-0.0,-0.0,-0.0,0.0,0.0,0.0,0.0,0.0,0.0,-0.0,0.0,0.0,0.0,0.0,0.0,-0.0,-0.0,-0.0,-0.0,-0.0,-0.0,-0.0,-0.0,-0.0,-0.0,-0.0,-0.0,-0.0,-0.0,-0.0,-0.0,-0.0,-0.0,-0.0,-0.0,-0.0,-0.0,-0.0,-0.0,-0.0,-0.0,-0.0,-0.0,-0.0,0.009,0.0987,0.1436,0.1436,0.1436,0.1256,0.0987,0.1256,0.1436,0.1436,0.1436,0.1436,0.1436,0.1436,0.1436,0.1345,0.1166,0.1076,0.1076,0.1076,0.1076,0.1166,0.1345,0.1436,0.1436,0.1436,0.1436,0.1436,0.1436,0.1345,0.1077,0.0449,0.0808,0.0987,0.018,-0.0,-0.0359,-0.1617,-0.3961,-0.5684,-0.5681,-0.3502,-0.1613,-0.0986,-0.0897,-0.0898,-0.0898,-0.0898,-0.0628,-0.009,-0.0,-0.0,-0.0,-0.0,-0.0,-0.0,-0.0,-0.0,-0.0,-0.0,-0.0,-0.0,-0.0,-0.0,-0.0,-0.0,-0.0,-0.0,-0.0,-0.0,0.0,0.0,0.0,0.0,0.0,0.0,0.0,0.0,-0.0,-0.0,0.0,0.0,-0.0,-0.0,-0.0,-0.0,-0.0,-0.0,-0.0,-0.0,-0.0,-0.0,-0.0,-0.0,-0.0,-0.0,-0.0,-0.0,-0.0,-0.0,-0.0,-0.0,-0.0,-0.0,-0.0,-0.0,-0.0,-0.0,-0.0,-0.0,-0.0,-0.0,0.009,0.0987,0.1436,0.1436,0.1436,0.1436,0.1436,0.1436,0.1436,0.1436,0.1436,0.1436,0.1436,0.1436,0.1436,0.1256,0.0628,0.0359,0.0359,0.0359,0.0359,0.0538,0.1166,0.1436,0.1436,0.1436,0.1436,0.1436,0.1346,0.1166,0.0987,0.0987,0.0807,0.0538,0.009,-0.0,-0.1256,-0.5046,-0.5684,-0.5681,-0.5673,-0.567,-0.5034,-0.3136,-0.2957,-0.2957,-0.2957,-0.2957,-0.2151,-0.0179,-0.0,-0.0,-0.0,-0.0,-0.0,-0.009,-0.009,-0.0,-0.0,-0.0,-0.0,-0.0,-0.0,-0.0,-0.0,-0.0,-0.0,-0.0,-0.0,0.0,0.0,0.0,0.0,0.0,0.0,0.0,0.0,0.0,0.0674,0.0404,0.0,0.0,0.0352,0.036,0.0442,0.0457,0.0155,-0.0,-0.0,-0.0,-0.0,-0.0,-0.0,-0.0,-0.0,-0.0,-0.0,-0.0,-0.0,-0.0,-0.0,-0.0,-0.0,-0.0,-0.0,0.0337,0.0927,0.0933,0.0947,0.0967,0.0981,0.0808,0.0538,0.1166,0.1436,0.1436,0.1436,0.1436,0.1436,0.1436,0.1436,0.1436,0.1436,0.1436,0.1436,0.1436,0.1076,0.0628,0.0448,0.009,-0.0359,-0.0359,-0.0,0.0448,0.0628,0.1076,0.1256,0.0807,0.1076,0.1256,0.0538,0.0897,0.1256,0.1256,0.1256,0.1166,0.0987,-0.0627,-0.2419,-0.3501,-0.4851,-0.5665,-0.5662,-0.5662,-0.5481,-0.4942,-0.4853,-0.4855,-0.4862,-0.4862,-0.4593,-0.4055,-0.1527,-0.0,-0.0,-0.0,-0.1168,-0.387,-0.4051,-0.2786,-0.009,-0.0,-0.0,-0.0,-0.0,-0.0,-0.0,-0.0,-0.0,0.0274,0.0347,0.0,0.0,0.0,0.0,0.0,0.0,0.0,0.0,0.0,0.1012,0.0809,0.0742,0.0,0.0767,0.0781,0.0797,0.0817,0.0605,0.0383,-0.0,0.0155,0.0155,-0.0,-0.0,0.0157,0.0471,0.055,0.0395,-0.0,-0.0,-0.0,-0.0,0.0323,0.0485,0.0492,0.0328,0.0492,0.0984,0.1241,0.1339,0.1358,0.1387,0.1226,0.0963,0.1236,0.1418,0.142,0.1431,0.1436,0.1436,0.1436,0.1436,0.1436,0.1436,0.1256,0.0987,0.0987,0.0538,-0.009,-0.0359,-0.0807,-0.1166,-0.1166,-0.0807,-0.0448,-0.009,0.0448,0.0807,0.0179,0.0269,0.0538,0.0179,0.0807,0.1436,0.1436,0.1436,0.1256,0.0897,-0.0717,-0.233,-0.3494,-0.4574,-0.5384,-0.5652,-0.5741,-0.5744,-0.566,-0.5662,-0.5668,-0.5668,-0.5037,-0.4589,-0.4593,-0.3148,-0.1618,-0.009,-0.1438,-0.2607,-0.3416,-0.4869,-0.4598,-0.2336,-0.0808,-0.0,-0.0,-0.0,-0.0,-0.0,-0.0,-0.0,0.0734,0.0,0.0,0.0,0.0,0.0,0.0,0.0,0.0,0.0,0.0,0.1079,0.1079,0.1079,0.1087,0.1112,0.1119,0.1131,0.1158,0.1165,0.0956,0.015,0.0377,0.0457,0.0156,0.0078,0.0391,0.1175,0.1256,0.0943,0.0157,0.0079,0.0079,0.0079,0.0786,0.1257,0.1335,0.0864,0.0629,0.0707,0.1124,0.1299,0.1299,0.1333,0.1263,0.1265,0.1378,0.1389,0.1391,0.1416,0.1427,0.1427,0.1427,0.1427,0.1427,0.143,0.0984,0.0447,0.0448,-0.009,-0.0807,-0.1525,-0.1884,-0.1885,-0.1885,-0.1884,-0.1705,-0.0987,-0.0269,0.009,-0.0628,-0.0718,-0.0538,0.009,0.0628,0.1076,0.1076,0.1166,0.0987,0.009,-0.0538,-0.1613,-0.4121,-0.4661,-0.4928,-0.5555,-0.5644,-0.5555,-0.5644,-0.5652,-0.5563,-0.5466,-0.4032,-0.3047,-0.2689,-0.4226,-0.369,-0.018,-0.3599,-0.4139,-0.0628,-0.3871,-0.5697,-0.5697,-0.2249,-0.0359,-0.0,-0.0,-0.0,-0.0,-0.0,-0.0,0.0874,0.091,0.0,0.0,0.0,0.0,0.0,0.0,0.0,0.0,0.101,0.1078,0.1077,0.1076,0.1078,0.1084,0.1105,0.1123,0.1129,0.1151,0.1023,0.0881,0.0661,0.0663,0.0889,0.0679,0.0534,0.0763,0.1088,0.1257,0.1021,0.0707,0.0471,0.0471,0.0629,0.0943,0.1257,0.1178,0.1178,0.1178,0.1264,0.1267,0.1269,0.1323,0.1263,0.1264,0.1355,0.1358,0.1358,0.1365,0.1281,0.1281,0.1281,0.1281,0.1369,0.1392,0.1312,0.114,0.0624,-0.009,-0.0807,-0.1525,-0.2154,-0.2694,-0.2694,-0.2243,-0.1794,-0.1615,-0.1076,-0.0628,-0.1345,-0.1166,-0.0807,-0.1256,-0.1256,-0.1076,-0.1076,-0.0628,-0.0269,-0.0538,-0.1433,-0.2329,-0.2865,-0.3762,-0.4567,-0.5102,-0.4835,-0.4746,-0.5102,-0.5018,-0.4572,-0.3583,-0.4493,-0.3868,-0.0898,-0.0988,-0.0899,-0.009,-0.3604,-0.5325,-0.4501,-0.5223,-0.5681,-0.5687,-0.4867,-0.2967,-0.0,-0.0,-0.0,-0.0,-0.0,-0.0,0.0,0.0,0.0,0.0,0.0,0.0,0.0,0.0,0.0,0.0,0.1077,0.1077,0.1076,0.1076,0.1076,0.1076,0.1089,0.1099,0.1099,0.1113,0.1128,0.1072,0.093,0.0863,0.1092,0.0959,0.0818,0.0818,0.1054,0.1214,0.1214,0.1074,0.0926,0.0926,0.0937,0.1021,0.1335,0.1335,0.1335,0.1335,0.1335,0.1335,0.1337,0.129,0.1305,0.1305,0.132,0.1326,0.1327,0.1258,0.1263,0.1263,0.1263,0.1263,0.1265,0.1365,0.0941,0.0342,-0.0,-0.0783,-0.1743,-0.2114,-0.2565,-0.2837,-0.2865,-0.2604,-0.2334,-0.2334,-0.1794,-0.1436,-0.2154,-0.1794,-0.1436,-0.2154,-0.1974,-0.1525,-0.1345,-0.1525,-0.1525,-0.0807,-0.1793,-0.269,-0.2509,-0.3492,-0.4389,-0.4654,-0.4476,-0.4389,-0.4654,-0.4748,-0.4569,-0.3939,-0.3318,-0.2513,-0.1436,-0.0539,-0.0,-0.0,-0.1887,-0.3782,-0.5599,-0.5681,-0.486,-0.2964,-0.2966,-0.1977,-0.0,-0.0,-0.0,-0.0,-0.0,-0.0,0.0,0.0,0.0,0.0,0.0,0.0,0.0,0.0,0.0,0.1076,0.1076,0.1076,0.1076,0.1076,0.1076,0.1076,0.1076,0.1076,0.1076,0.1076,0.1085,0.111,0.1113,0.1123,0.1076,0.1083,0.1086,0.1086,0.109,0.1166,0.1166,0.1264,0.128,0.128,0.1305,0.1319,0.1319,0.1319,0.1241,0.1164,0.1169,0.1171,0.1171,0.1255,0.1335,0.1337,0.1284,0.1295,0.1296,0.1322,0.1332,0.1332,0.1332,0.1332,0.1333,0.1338,0.0585,-0.0418,-0.0587,-0.1429,-0.2362,-0.2665,-0.2767,-0.2777,-0.2827,-0.2842,-0.2842,-0.2842,-0.2397,-0.213,-0.2665,-0.2397,-0.213,-0.2753,-0.2226,-0.1519,-0.1165,-0.2064,-0.2513,-0.1345,-0.2064,-0.2872,-0.2599,-0.3405,-0.4121,-0.421,-0.4121,-0.4121,-0.43,-0.448,-0.4661,-0.4835,-0.2508,-0.1345,-0.2331,-0.0808,0.018,-0.0,-0.0,-0.1436,-0.46,-0.5325,-0.423,-0.1076,-0.0359,-0.0,-0.0,-0.0,-0.0,-0.0,-0.0,-0.0,0.0,0.0,0.0,0.0,0.0,0.0,0.0,0.0,0.0,0.0,0.1076,0.1076,0.1076,0.1076,0.1076,0.1076,0.1076,0.1076,0.1076,0.1076,0.1077,0.1081,0.1082,0.1083,0.1087,0.1112,0.1127,0.1127,0.1151,0.1166,0.1166,0.1243,0.1246,0.1246,0.1176,0.1179,0.1179,0.1179,0.0958,0.0516,0.0527,0.0533,0.0533,0.109,0.1335,0.1336,0.1262,0.1263,0.1264,0.1268,0.1269,0.1269,0.1269,0.1269,0.1273,0.1299,0.1226,0.0902,-0.0334,-0.084,-0.1177,-0.2363,-0.2704,-0.2706,-0.2714,-0.2717,-0.2717,-0.2717,-0.2632,-0.2632,-0.2717,-0.2632,-0.2632,-0.2717,-0.267,-0.2634,-0.2593,-0.2784,-0.2873,-0.2604,-0.2784,-0.2875,-0.2873,-0.2963,-0.323,-0.3587,-0.332,-0.3409,-0.421,-0.4123,-0.4036,-0.4397,-0.4678,-0.3688,-0.0629,0.0628,0.0898,0.009,-0.0,-0.0269,-0.0718,-0.3963,-0.542,-0.4956,-0.1708,-0.0,-0.0,-0.0,-0.0,-0.0,-0.0,-0.0,0.0,0.0,0.0,0.0,0.0,0.0,0.0,0.0,0.0,0.1052,0.1065,0.1076,0.1076,0.1076,0.1076,0.1076,0.1076,0.1076,0.1076,0.1076,0.1076,0.1076,0.1076,0.1076,0.1076,0.1088,0.1095,0.1095,0.1108,0.1115,0.1115,0.1132,0.1141,0.1141,0.0868,0.0729,0.0729,0.0437,0.0219,-0.0073,-0.0074,-0.0074,-0.0074,0.0152,0.0465,0.0707,0.0707,0.055,0.0236,0.0236,0.0236,0.0236,0.0628,0.0707,0.0787,0.1192,0.0878,0.016,-0.0404,-0.1133,-0.1783,-0.2465,-0.2642,-0.2647,-0.2681,-0.2692,-0.2692,-0.2692,-0.2692,-0.2692,-0.2692,-0.2692,-0.2692,-0.2692,-0.2713,-0.2749,-0.2809,-0.285,-0.2875,-0.2875,-0.2603,-0.2424,-0.2873,-0.2875,-0.2963,-0.3142,-0.323,-0.3409,-0.3853,-0.4212,-0.4393,-0.4574,-0.522,-0.5046,-0.3328,-0.0808,0.0629,0.0809,0.0269,-0.0,-0.0,-0.1618,-0.3514,-0.5692,-0.1978,-0.0,-0.0,-0.0,-0.0,-0.0,-0.0,-0.0,0.0,0.0,0.0,0.0,0.0,0.0,0.0,0.0,0.095,0.0,0.1097,0.1175,0.1182,0.1198,0.1277,0.1345,0.1277,0.121,0.121,0.1143,0.1076,0.1076,0.1076,0.1076,0.1076,0.1076,0.1076,0.1076,0.1076,0.1076,0.1076,0.1097,0.104,0.0901,0.0565,0.0286,0.0143,-0.0357,-0.0643,-0.0643,-0.0647,-0.0649,-0.065,-0.0519,-0.0379,-0.0154,-0.0,-0.0157,-0.0628,-0.0628,-0.0628,-0.055,0.0079,0.0236,0.0157,0.0786,0.0314,-0.0628,-0.0785,-0.1491,-0.2281,-0.2483,-0.2578,-0.2587,-0.2632,-0.2646,-0.2646,-0.2646,-0.2646,-0.2646,-0.2646,-0.2646,-0.2646,-0.2646,-0.2658,-0.2691,-0.2766,-0.2831,-0.2875,-0.2875,-0.2424,-0.2243,-0.2784,-0.2875,-0.2963,-0.3053,-0.3409,-0.3676,-0.3765,-0.4121,-0.4391,-0.4302,-0.4764,-0.5225,-0.5684,-0.2606,-0.0269,0.0988,0.0539,0.009,-0.0,-0.0,-0.1349,-0.4238,-0.1439,-0.0,-0.0,-0.0,-0.0,-0.0,-0.0,-0.0,0.0,0.0,0.0,0.0,0.0,0.0,0.0,0.0,0.0,0.0985,0.1211,0.1377,0.1354,0.1491,0.1681,0.2087,0.1817,0.1547,0.1547,0.1277,0.1076,0.1076,0.1076,0.1076,0.1076,0.1076,0.1076,0.1076,0.1076,0.1076,0.1076,0.1077,0.0876,0.0337,0.0337,0.0067,-0.0472,-0.1013,-0.1283,-0.1284,-0.1248,-0.1264,-0.1265,-0.065,-0.0731,-0.1248,-0.077,-0.055,-0.0628,-0.0628,-0.0628,-0.055,0.0079,-0.0079,-0.0471,0.0157,-0.0079,-0.0707,-0.1333,-0.1568,-0.1725,-0.2356,-0.2515,-0.2516,-0.2519,-0.252,-0.252,-0.252,-0.252,-0.252,-0.252,-0.252,-0.252,-0.252,-0.2564,-0.2639,-0.2758,-0.2831,-0.2875,-0.2875,-0.2873,-0.2873,-0.2875,-0.2875,-0.3053,-0.3497,-0.3587,-0.3765,-0.421,-0.3669,-0.3221,-0.3045,-0.3047,-0.3771,-0.5592,-0.3862,-0.1972,-0.009,0.0448,0.0448,-0.0,-0.0,-0.009,-0.027,-0.009,-0.0,-0.0,-0.0,-0.0,-0.0,-0.0,-0.0,0.0,0.0,0.0,0.0,0.0,0.0,0.0,0.0915,0.0941,0.1165,0.1308,0.1512,0.1917,0.1887,0.1899,0.203,0.1995,0.1884,0.1614,0.148,0.1344,0.1143,0.1076,0.1076,0.1076,0.1076,0.1076,0.1076,0.1076,0.1076,0.1076,0.1076,0.0874,0.0336,-0.0067,-0.0672,-0.1614,-0.1749,-0.1884,-0.1884,-0.1903,-0.1844,-0.1845,-0.1686,-0.1707,-0.1925,-0.1772,-0.1724,-0.1726,-0.1753,-0.1762,-0.1689,-0.1169,-0.102,-0.1176,-0.0549,-0.0706,-0.1255,-0.1489,-0.1882,-0.2196,-0.2431,-0.2511,-0.2511,-0.2511,-0.2511,-0.2511,-0.2511,-0.2511,-0.2511,-0.2511,-0.2511,-0.2511,-0.2511,-0.2557,-0.2613,-0.2657,-0.2745,-0.2816,-0.2816,-0.2847,-0.2875,-0.2875,-0.2875,-0.2963,-0.3142,-0.3409,-0.3765,-0.421,-0.4032,-0.3314,-0.1877,-0.1254,-0.1346,-0.1974,-0.3688,-0.4414,-0.3692,-0.1167,0.018,-0.0,-0.0,-0.0,-0.0,-0.0,-0.0,-0.0,-0.0,-0.0,-0.0,0.0629,0.0899,-0.0,0.0,0.0,0.0,0.0,0.0,0.0,0.0,0.0941,0.1119,0.1323,0.1641,0.2029,0.2236,0.226,0.2345,0.2343,0.2257,0.199,0.1672,0.1344,0.1143,0.1076,0.1076,0.1076,0.121,0.1277,0.1277,0.1143,0.1008,0.0874,0.0807,0.047,-0.0202,-0.0806,-0.1412,-0.2221,-0.2221,-0.2221,-0.2221,-0.2221,-0.2221,-0.2223,-0.2196,-0.2214,-0.2217,-0.2258,-0.2297,-0.2338,-0.2376,-0.2402,-0.2348,-0.1771,-0.1713,-0.1803,-0.1177,-0.1333,-0.1882,-0.1882,-0.2195,-0.2511,-0.2511,-0.2511,-0.2511,-0.2511,-0.2511,-0.2511,-0.2511,-0.2511,-0.2511,-0.2511,-0.2353,-0.2275,-0.2431,-0.2382,-0.2329,-0.2491,-0.2666,-0.2752,-0.2752,-0.2785,-0.2819,-0.2839,-0.2665,-0.2671,-0.305,-0.3229,-0.3406,-0.4032,-0.3674,-0.2776,-0.1252,-0.0179,0.0449,0.0269,-0.2065,-0.378,-0.4232,-0.1886,-0.0269,0.018,0.0269,0.0269,0.0269,0.0269,0.0269,0.0269,0.0359,0.0359,0.027,0.0899,0.1257,0.0,0.0,0.0,0.0,0.0,0.0,0.0,0.0,0.0838,0.0877,0.1307,0.1721,0.1777,0.2355,0.285,0.2995,0.2778,0.2582,0.2584,0.1718,0.1143,0.1076,0.1076,0.1076,0.1076,0.1344,0.1547,0.1547,0.121,0.0807,0.0336,0.0269,-0.0202,-0.1277,-0.1884,-0.2221,-0.2221,-0.2221,-0.2221,-0.2221,-0.2221,-0.2221,-0.2221,-0.2221,-0.2221,-0.2221,-0.2221,-0.2221,-0.2331,-0.2332,-0.2365,-0.2339,-0.1739,-0.1919,-0.2427,-0.1801,-0.1958,-0.2508,-0.251,-0.2511,-0.2511,-0.2511,-0.2511,-0.2511,-0.2511,-0.2511,-0.2511,-0.2511,-0.2511,-0.2511,-0.251,-0.2038,-0.1803,-0.2353,-0.2038,-0.1724,-0.2353,-0.2604,-0.2687,-0.2689,-0.2691,-0.2711,-0.2771,-0.2172,-0.21,-0.3395,-0.2956,-0.2688,-0.3497,-0.2329,-0.1433,-0.1435,0.0269,0.1255,0.0716,0.0716,0.0179,-0.1253,-0.1342,-0.0716,0.0628,0.0718,0.0718,0.0718,0.0718,0.0718,0.0718,0.1166,0.1167,0.0719,0.0718,0.0987,-0.0,0.0,0.0,0.0,0.0,0.0,0.0,0.0,0.0845,0.1073,0.129,0.1553,0.1929,0.222,0.245,0.276,0.2887,0.2919,0.2715,0.2007,0.1345,0.1143,0.0605,0.0269,0.0134,0.0202,0.0202,0.0067,-0.0,-0.0134,-0.0269,-0.0672,-0.1008,-0.1277,-0.1884,-0.2221,-0.2221,-0.2221,-0.2221,-0.2221,-0.2221,-0.2221,-0.2221,-0.2221,-0.2221,-0.2221,-0.2221,-0.2241,-0.2207,-0.2252,-0.2208,-0.2225,-0.2123,-0.2221,-0.2314,-0.2202,-0.2292,-0.2451,-0.2495,-0.2511,-0.2511,-0.2511,-0.2511,-0.2511,-0.2511,-0.2511,-0.2511,-0.2511,-0.2511,-0.2431,-0.196,-0.2038,-0.2195,-0.1882,-0.1724,-0.1646,-0.1803,-0.1901,-0.201,-0.2536,-0.2662,-0.2698,-0.2714,-0.215,-0.1828,-0.2189,-0.1598,-0.1613,-0.2598,-0.2599,-0.2332,-0.1971,0.009,0.1345,0.1255,0.1165,0.1075,0.0627,0.0627,0.0807,0.1166,0.1166,0.1166,0.1166,0.1166,0.1166,0.1166,0.0987,0.0987,0.1167,0.1166,0.1076,0.0,0.0,0.0,0.0,0.0,0.0,0.0494,0.0674,0.0,0.0,0.1175,0.1403,0.1696,0.2025,0.2306,0.2512,0.2819,0.2935,0.2733,0.1931,0.1238,0.1055,0.0396,-0.0066,-0.0134,-0.0067,-0.0067,-0.0134,-0.0403,-0.0605,-0.0807,-0.1345,-0.1681,-0.1681,-0.2018,-0.2221,-0.2221,-0.2221,-0.2221,-0.2221,-0.2221,-0.2221,-0.2221,-0.2221,-0.2221,-0.2221,-0.2221,-0.2221,-0.2224,-0.2192,-0.2222,-0.2178,-0.2212,-0.2241,-0.2339,-0.2372,-0.2384,-0.239,-0.2425,-0.2452,-0.2469,-0.2446,-0.247,-0.2506,-0.248,-0.2491,-0.2511,-0.2511,-0.2511,-0.2353,-0.1724,-0.1882,-0.2038,-0.1646,-0.1411,-0.1255,-0.1568,-0.1724,-0.1889,-0.2156,-0.243,-0.2542,-0.2318,-0.1676,-0.1272,-0.1283,-0.0866,-0.0788,-0.159,-0.2036,-0.2132,-0.188,0.009,0.1436,0.1436,0.1436,0.1345,0.1256,0.1345,0.1429,0.1416,0.1416,0.1411,0.1399,0.141,0.1423,0.1436,0.1166,0.1166,0.1436,0.1436,0.1256,-0.0097,-0.0034,0.0,0.0,-0.0,0.0,0.0318,0.0531,0.0736,0.0,0.1017,0.1252,0.1262,0.1683,0.2079,0.2249,0.2447,0.2642,0.272,0.1756,0.0933,0.083,0.0256,-0.0129,-0.0133,-0.0,0.0133,0.0067,-0.0336,-0.0807,-0.1344,-0.1884,-0.2154,-0.2221,-0.2221,-0.2221,-0.2221,-0.2221,-0.2221,-0.2221,-0.2221,-0.2221,-0.2221,-0.2221,-0.2221,-0.2221,-0.2221,-0.2221,-0.2221,-0.2221,-0.2185,-0.2234,-0.2234,-0.2267,-0.2316,-0.2323,-0.2253,-0.2253,-0.2334,-0.2368,-0.2402,-0.2352,-0.2406,-0.2481,-0.2435,-0.2458,-0.2501,-0.2508,-0.2511,-0.2353,-0.1724,-0.1568,-0.1568,-0.1568,-0.1099,-0.0863,-0.1412,-0.1882,-0.2117,-0.1725,-0.2118,-0.2448,-0.1854,-0.1135,-0.0654,-0.0751,-0.0336,-0.0085,-0.0518,-0.0866,-0.1134,-0.1245,0.0357,0.134,0.1247,0.1339,0.1251,0.1069,0.1247,0.1413,0.1386,0.1385,0.1373,0.1264,0.1372,0.14,0.143,0.1433,0.1436,0.1436,0.1436,0.1436,-0.0339,-0.0157,-0.0,-0.0,0.0,0.0,0.0083,0.0403,0.0689,0.0,0.0749,0.0768,0.0866,0.1029,0.1228,0.1411,0.1527,0.1727,0.2184,0.1533,0.0802,0.031,-0.0373,-0.0874,-0.1005,-0.1005,-0.1078,-0.1232,-0.1327,-0.148,-0.1749,-0.1884,-0.2018,-0.2221,-0.2221,-0.2221,-0.2221,-0.2221,-0.2221,-0.2221,-0.2221,-0.2221,-0.2221,-0.2221,-0.2221,-0.2221,-0.2221,-0.2221,-0.2221,-0.2221,-0.2228,-0.2172,-0.2172,-0.2179,-0.2195,-0.2244,-0.2191,-0.2198,-0.2247,-0.2342,-0.235,-0.2339,-0.235,-0.2376,-0.241,-0.2428,-0.2447,-0.2496,-0.2511,-0.2353,-0.1724,-0.1568,-0.1568,-0.1568,-0.1411,-0.1176,-0.1335,-0.1726,-0.204,-0.1885,-0.2514,-0.2989,-0.2452,-0.1366,-0.057,-0.0655,0.0333,0.1012,0.0932,0.0847,0.0594,-0.017,0.0693,0.1043,0.0342,0.0954,0.1391,0.1281,0.1279,0.1362,0.1356,0.1356,0.1354,0.1263,0.1353,0.137,0.1399,0.1423,0.1436,0.1436,0.1436,0.1436,-0.0573,-0.0456,-0.0337,-0.021,0.0,0.0,0.0,0.0165,0.0373,0.0532,0.053,0.0536,0.058,0.0303,0.0207,0.057,0.0649,0.0675,0.0859,0.064,0.0414,0.006,-0.0543,-0.1032,-0.111,-0.1235,-0.1366,-0.1511,-0.1533,-0.1611,-0.1804,-0.183,-0.191,-0.2175,-0.2204,-0.2221,-0.2221,-0.2221,-0.2221,-0.2221,-0.2221,-0.2221,-0.2221,-0.2221,-0.2221,-0.2221,-0.2221,-0.2221,-0.2221,-0.2221,-0.2221,-0.2221,-0.2221,-0.2221,-0.2225,-0.2188,-0.2199,-0.2203,-0.2234,-0.2264,-0.2285,-0.2255,-0.2286,-0.2335,-0.2332,-0.2353,-0.2315,-0.2067,-0.2004,-0.1932,-0.1641,-0.1724,-0.1803,-0.1491,-0.1411,-0.1254,-0.11,-0.1256,-0.149,-0.1571,-0.2987,-0.3696,-0.2123,-0.1349,-0.072,-0.008,0.0727,0.1308,0.1324,0.1325,0.1165,0.0757,0.0681,0.0512,-0.0,0.0596,0.1023,0.0927,0.1179,0.1341,0.1326,0.1325,0.1325,0.1325,0.1325,0.1339,0.1369,0.1384,0.1407,0.1436,0.1436,0.1436,0.0,0.0,-0.0667,0.0,0.0,-0.0133,0.0,0.0,0.0,0.0274,0.0316,0.0,0.0,0.0,0.0,-0.036,0.0,0.0,0.0,-0.0433,0.0,-0.0231,-0.064,-0.0944,-0.1029,-0.1153,-0.1276,-0.1404,-0.1405,-0.147,-0.1602,-0.1704,-0.1854,-0.2045,-0.2105,-0.2203,-0.2203,-0.2216,-0.2221,-0.2221,-0.2221,-0.2221,-0.2221,-0.2221,-0.2221,-0.2221,-0.2221,-0.2221,-0.2221,-0.2221,-0.2221,-0.2221,-0.2221,-0.2221,-0.2221,-0.2221,-0.2221,-0.2221,-0.2221,-0.2185,-0.2218,-0.217,-0.2229,-0.2237,-0.2118,-0.2072,-0.2054,-0.1655,-0.1439,-0.1447,-0.1714,-0.1803,-0.1804,-0.1807,-0.1334,-0.0941,-0.11,-0.1412,-0.1568,-0.1335,-0.3304,-0.4173,-0.1492,-0.1021,-0.0707,0.0314,0.0786,0.1029,0.1048,0.1132,0.1222,0.1328,0.0668,0.0167,-0.0,0.0417,0.0752,0.0749,0.1081,0.1319,0.1295,0.1294,0.1294,0.1294,0.1294,0.1309,0.1339,0.1339,0.1369,0.1427,0.1427,0.1429,0.0,0.0,0.0,0.0,-0.0696,0.0,-0.0439,0.0,-0.0,0.0041,0.0,0.0,0.0,0.0,0.0,0.0,0.0,0.0,-0.1513,-0.1335,-0.1127,-0.1132,-0.0997,-0.096,-0.1078,-0.1021,-0.0976,-0.0945,-0.0947,-0.108,-0.1357,-0.1487,-0.1613,-0.1734,-0.1977,-0.2138,-0.2138,-0.2193,-0.2221,-0.2221,-0.2221,-0.2221,-0.2221,-0.2221,-0.2221,-0.2221,-0.2221,-0.2221,-0.2221,-0.2221,-0.2221,-0.2221,-0.2221,-0.2221,-0.2221,-0.2221,-0.2221,-0.2221,-0.2221,-0.2225,-0.2231,-0.2224,-0.22,-0.2113,-0.1613,-0.1571,-0.1613,-0.158,-0.1212,-0.1066,-0.2105,-0.1333,-0.0785,-0.2992,-0.1491,-0.0078,-0.1886,-0.3461,-0.3855,-0.1729,-0.3306,-0.3942,-0.0707,-0.0157,-0.0079,0.0079,0.0079,0.0157,0.0158,0.0473,0.0868,0.1267,0.1211,0.081,0.0079,0.0727,0.1215,0.119,0.1268,0.1266,0.1262,0.1262,0.1262,0.1262,0.1262,0.1277,0.1308,0.1308,0.1338,0.1395,0.1395,0.141,0.0,0.0,0.0,0.0,0.0,0.0,-0.0645,-0.0947,-0.1163,0.0,0.0,0.0,0.0,0.0,0.0,0.0,-0.208,0.0,0.0,0.0,-0.1563,-0.1288,0.0,-0.1118,-0.1196,-0.1035,-0.0995,-0.1143,-0.1125,-0.1243,-0.146,-0.1549,-0.1682,-0.1799,-0.2012,-0.2127,-0.2127,-0.2189,-0.2221,-0.2221,-0.2221,-0.2221,-0.2221,-0.2221,-0.2221,-0.2221,-0.2221,-0.2221,-0.2221,-0.2221,-0.2221,-0.2221,-0.2221,-0.2221,-0.2221,-0.2221,-0.2221,-0.2221,-0.2221,-0.2221,-0.2154,-0.1817,-0.1695,-0.1643,-0.1437,-0.1379,-0.1401,-0.1439,-0.1172,-0.1043,-0.168,-0.0699,-0.0235,-0.2516,-0.212,-0.1176,-0.11,-0.1178,-0.102,-0.0,-0.1021,-0.165,-0.0236,-0.0,-0.0,-0.0,-0.0,-0.0,-0.0,0.0157,0.0314,0.055,0.0555,0.0635,0.0708,0.0872,0.1032,0.1258,0.1335,0.1335,0.1335,0.1335,0.1335,0.1335,0.1335,0.1264,0.1277,0.1277,0.1298,0.1339,0.1357,0.1381,-0.1359,-0.1557,-0.1757,-0.1317,-0.1185,-0.1154,-0.1179,-0.1618,-0.2069,-0.2084,0.0,0.0,0.0,0.0,-0.3004,-0.2697,0.0,-0.2557,0.0,-0.2056,0.0,0.0,0.0,0.0,-0.1256,-0.1144,-0.1107,-0.1269,-0.1286,-0.1339,-0.1512,-0.1608,-0.1745,-0.18,-0.1959,-0.2084,-0.2102,-0.2164,-0.2204,-0.2221,-0.2221,-0.2221,-0.2221,-0.2221,-0.2221,-0.2221,-0.2221,-0.2221,-0.2221,-0.2221,-0.2221,-0.2221,-0.2221,-0.2221,-0.2221,-0.2221,-0.2288,-0.2354,-0.2221,-0.2221,-0.2087,-0.148,-0.1277,-0.1277,-0.0941,-0.0874,-0.0879,-0.0973,-0.071,-0.058,-0.1117,-0.0381,0.0155,-0.14,-0.1798,-0.1491,-0.0236,0.0471,0.0943,0.0943,0.0471,-0.0,-0.0,-0.0,-0.0,-0.0,-0.0,-0.0,-0.0,-0.0,-0.0,-0.0,0.0236,0.0628,0.1257,0.1021,0.0943,0.1257,0.1335,0.1335,0.1335,0.1335,0.1335,0.1335,0.1335,0.1335,0.1335,0.1335,0.1269,0.1291,0.1322,0.1351,-0.2617,-0.2672,-0.263,-0.2409,-0.2365,-0.2317,-0.2098,-0.2029,-0.2182,-0.2761,-0.3438,-0.388,-0.3826,-0.3667,-0.3471,-0.3125,-0.2921,0.0,0.0,0.0,0.0,0.0,0.0,0.0,0.0,-0.1124,-0.1134,-0.1274,-0.1239,-0.1252,-0.1286,-0.1518,-0.163,-0.163,-0.1798,-0.1916,-0.1974,-0.2099,-0.2161,-0.2221,-0.2221,-0.2221,-0.2221,-0.2221,-0.2221,-0.2221,-0.2221,-0.2221,-0.2221,-0.2221,-0.2221,-0.2221,-0.2221,-0.2221,-0.2221,-0.2221,-0.2421,-0.2619,-0.2287,-0.2221,-0.2087,-0.148,-0.1277,-0.1076,-0.0067,0.0269,0.0203,0.0139,0.0561,0.0706,-0.087,-0.0372,0.0455,-0.0,-0.0077,-0.0079,-0.0,-0.0,0.0079,0.0079,-0.0,-0.0,-0.0,-0.0,-0.0,-0.0,-0.0,-0.0,-0.0,-0.0,-0.0,-0.0,0.0786,0.1257,0.1335,0.1257,0.1257,0.1335,0.1335,0.1335,0.1335,0.1335,0.1335,0.1335,0.1335,0.1335,0.1335,0.1335,0.1336,0.1338,0.129,0.132,-0.2681,-0.2905,-0.3042,-0.2637,-0.2713,-0.278,-0.2405,-0.2539,-0.28,-0.2992,-0.348,-0.3876,-0.3823,-0.3648,-0.3462,-0.3321,-0.3121,-0.2884,0.0,0.0,0.0,0.0,0.0,0.0,0.0,0.0,-0.1314,-0.1486,-0.1474,-0.1511,-0.1623,-0.1685,-0.1741,-0.1741,-0.1852,-0.1891,-0.1911,-0.1971,-0.2098,-0.2159,-0.2159,-0.218,-0.2221,-0.2221,-0.2221,-0.2221,-0.2221,-0.2221,-0.2221,-0.2221,-0.2221,-0.2221,-0.2221,-0.2221,-0.2221,-0.2221,-0.2288,-0.2354,-0.2221,-0.1681,-0.1008,-0.0807,-0.0538,-0.0202,-0.0,0.0134,0.0067,-0.0204,-0.0138,0.007,0.0212,0.044,0.053,0.0454,0.0232,-0.0,-0.0,-0.0,-0.0,-0.0,-0.0,-0.0,-0.0,-0.0,-0.0,-0.0,-0.0,-0.0,-0.0,0.0471,0.0864,0.0864,0.11,0.1335,0.1335,0.1335,0.1335,0.1335,0.1335,0.1335,0.1335,0.1335,0.1335,0.1335,0.1335,0.1335,0.1335,0.1335,0.1335,0.1336,0.1268,0.1289,-0.3294,-0.3574,-0.3715,-0.3263,-0.3335,-0.3391,-0.2979,-0.3167,-0.3438,-0.3438,-0.3695,-0.3961,-0.3962,-0.3805,-0.3629,-0.3437,-0.33,-0.309,0.0,-0.24,0.0,0.0,0.0,0.0,0.0,0.0,-0.1424,-0.1575,-0.1583,-0.1636,-0.1758,-0.1785,-0.1797,-0.1797,-0.1832,-0.1861,-0.1882,-0.192,-0.197,-0.2095,-0.2095,-0.2114,-0.2155,-0.2178,-0.2187,-0.2189,-0.2211,-0.2221,-0.2221,-0.2221,-0.2221,-0.2221,-0.2221,-0.2221,-0.2221,-0.2221,-0.2221,-0.2221,-0.2354,-0.1816,-0.1008,-0.0605,-0.0269,0.0067,0.0336,0.0403,0.0336,-0.0,-0.0,0.0207,0.0898,0.0928,0.0811,0.0812,0.0681,0.0388,0.0078,-0.0,-0.0,-0.0,-0.0,-0.0,-0.0,0.0236,0.0393,0.0079,-0.0,0.0079,0.0393,0.0943,0.1335,0.1335,0.1335,0.1335,0.1335,0.1335,0.1335,0.1335,0.1335,0.1335,0.1335,0.1335,0.1335,0.1335,0.1335,0.1335,0.1335,0.1335,0.1335,0.1335,0.1335,0.1268]},{"header":{"parameterUnit":"m.s-1","parameterCategory":1,"la1":30.6,"la2":29.2853,"lo1":-89.7004,"lo2":-87.6739,"dy":0.0162,"dx":0.0183,"nx":112,"ny":82,"refTime":"2024-06-22T18:00:00:Z","depth":0,"parameterNumber":3,"parameterNumberName":"V-component_of_WINDS"},"data":[0.0,0.0,0.0,0.0,0.0,0.0,0.0,0.0,0.0,0.0,0.0,0.0,0.0,0.0,0.0,0.0,0.0,0.0,0.0,0.0,0.0,0.0,0.0,0.0,0.0,0.0,0.0,0.0,0.0,0.0,0.0,0.0,0.0,0.0,0.0,0.0,0.0,0.0,0.0,0.0,0.0,0.0,0.0,0.0,0.0,0.0,0.0,0.0,0.0,0.0,0.0,0.0,0.0,0.0,0.0,0.0,0.0,0.0,0.0,0.0,0.0,0.0,0.0,0.0,0.0,0.0,0.0,0.0,0.0,0.0,0.0,0.0,0.0,0.0,0.0,0.0,0.0,0.0,0.0,0.0,0.0,0.0,0.0,0.0,0.0,0.0,0.0,0.0,0.0,0.0,-2.3681,-2.541,-2.6738,-2.7314,-2.6832,-2.7236,-2.6959,-2.5712,0.0,0.0,0.0,0.0,0.0,0.0,0.0,0.0,0.0,0.0,0.0,0.0,0.0,0.0,0.0,0.0,0.0,0.0,0.0,0.0,0.0,0.0,0.0,0.0,0.0,0.0,0.0,0.0,0.0,0.0,0.0,0.0,0.0,0.0,0.0,0.0,0.0,0.0,0.0,0.0,0.0,0.0,0.0,0.0,0.0,0.0,0.0,0.0,0.0,0.0,0.0,0.0,0.0,0.0,0.0,0.0,0.0,0.0,0.0,0.0,0.0,0.0,0.0,0.0,0.0,0.0,0.0,0.0,0.0,0.0,0.0,0.0,0.0,0.0,0.0,0.0,0.0,0.0,0.0,0.0,0.0,0.0,0.0,0.0,0.0,0.0,0.0,0.0,0.0,0.0,0.0,0.0,0.0,0.0,0.0,0.0,0.0,0.0,0.0,0.0,0.0,0.0,0.0,0.0,-2.39,-2.625,-2.6064,-2.6302,-2.7593,-2.6467,-2.5956,-2.6539,0.0,0.0,0.0,0.0,0.0,0.0,0.0,0.0,0.0,0.0,0.0,0.0,0.0,0.0,0.0,0.0,0.0,0.0,0.0,0.0,0.0,0.0,0.0,0.0,0.0,0.0,0.0,0.0,0.0,0.0,0.0,0.0,0.0,0.0,0.0,0.0,0.0,0.0,0.0,0.0,0.0,0.0,0.0,0.0,0.0,0.0,0.0,0.0,0.0,0.0,0.0,0.0,0.0,0.0,0.0,0.0,0.0,0.0,0.0,0.0,0.0,0.0,0.0,0.0,0.0,0.0,0.0,0.0,0.0,0.0,0.0,0.0,0.0,0.0,0.0,0.0,0.0,0.0,0.0,0.0,0.0,0.0,0.0,0.0,0.0,0.0,0.0,0.0,0.0,0.0,0.0,0.0,0.0,0.0,0.0,0.0,0.0,0.0,0.0,0.0,0.0,0.0,0.0,-2.3255,-2.4455,-2.6521,-2.5964,-2.6156,-2.786,-2.6409,-2.5815,-2.6796,-2.3542,0.0,0.0,0.0,0.0,0.0,0.0,0.0,0.0,0.0,0.0,0.0,0.0,0.0,0.0,0.0,0.0,0.0,0.0,0.0,0.0,0.0,0.0,0.0,0.0,0.0,0.0,0.0,0.0,0.0,0.0,0.0,0.0,0.0,0.0,0.0,0.0,0.0,0.0,0.0,0.0,0.0,0.0,0.0,0.0,0.0,0.0,0.0,0.0,0.0,0.0,0.0,0.0,0.0,0.0,0.0,0.0,0.0,0.0,0.0,0.0,0.0,0.0,0.0,0.0,0.0,0.0,0.0,0.0,0.0,0.0,0.0,0.0,0.0,0.0,0.0,0.0,0.0,0.0,0.0,0.0,0.0,0.0,0.0,0.0,0.0,0.0,0.0,0.0,0.0,0.0,0.0,0.0,0.0,0.0,0.0,0.0,0.0,0.0,0.0,0.0,0.0,0.0,-2.5001,-2.5231,-2.6957,-2.6168,-2.6215,-2.7945,-2.6314,-2.5585,-2.6524,-2.2571,0.0,0.0,0.0,0.0,0.0,0.0,0.0,0.0,0.0,0.0,0.0,0.0,0.0,0.0,0.0,0.0,0.0,0.0,0.0,0.0,0.0,0.0,0.0,0.0,0.0,0.0,0.0,0.0,0.0,0.0,0.0,0.0,0.0,0.0,0.0,0.0,0.0,0.0,0.0,0.0,0.0,0.0,0.0,0.0,0.0,0.0,0.0,0.0,0.0,0.0,0.0,0.0,0.0,0.0,0.0,0.0,0.0,0.0,0.0,0.0,0.0,0.0,0.0,0.0,0.0,0.0,0.0,0.0,0.0,0.0,0.0,0.0,0.0,0.0,0.0,0.0,0.0,0.0,0.0,0.0,0.0,0.0,0.0,0.0,0.0,0.0,0.0,0.0,0.0,0.0,0.0,0.0,0.0,0.0,0.0,0.0,0.0,0.0,0.0,0.0,0.0,0.0,-2.5644,-2.6239,-2.7924,-2.6591,-2.6277,-2.7951,-2.5751,-2.4685,-2.5624,-2.1667,0.0,0.0,0.0,0.0,0.0,0.0,0.0,0.0,0.0,0.0,0.0,0.0,0.0,0.0,0.0,0.0,0.0,0.0,0.0,0.0,0.0,0.0,0.0,0.0,0.0,0.0,0.0,0.0,0.0,0.0,0.0,0.0,0.0,0.0,0.0,0.0,0.0,0.0,0.0,0.0,0.0,0.0,0.0,0.0,0.0,0.0,0.0,0.0,0.0,0.0,0.0,0.0,0.0,0.0,0.0,0.0,0.0,0.0,0.0,0.0,0.0,0.0,0.0,0.0,0.0,0.0,0.0,0.0,0.0,0.0,0.0,0.0,0.0,0.0,0.0,0.0,0.0,0.0,0.0,0.0,0.0,0.0,0.0,0.0,0.0,0.0,0.0,0.0,0.0,0.0,0.0,0.0,0.0,0.0,0.0,0.0,0.0,0.0,0.0,0.0,0.0,0.0,-2.4885,-2.5547,0.0,-2.6376,-2.635,-2.8072,-2.6337,-2.5288,-2.5648,0.0,0.0,0.0,0.0,0.0,0.0,0.0,0.0,0.0,0.0,0.0,0.0,0.0,0.0,0.0,0.0,0.0,0.0,0.0,0.0,0.0,0.0,0.0,0.0,0.0,0.0,0.0,0.0,0.0,0.0,0.0,0.0,0.0,0.0,0.0,0.0,0.0,0.0,0.0,0.0,0.0,0.0,0.0,0.0,0.0,0.0,0.0,0.0,0.0,0.0,0.0,0.0,0.0,0.0,0.0,0.0,0.0,0.0,0.0,0.0,0.0,0.0,0.0,0.0,0.0,0.0,0.0,0.0,0.0,0.0,0.0,0.0,0.0,0.0,0.0,0.0,0.0,0.0,0.0,0.0,0.0,0.0,0.0,0.0,0.0,0.0,0.0,0.0,0.0,0.0,0.0,0.0,0.0,0.0,0.0,0.0,0.0,0.0,0.0,0.0,0.0,0.0,-2.4007,-2.4631,-2.5375,0.0,-2.6214,-2.641,-2.8147,-2.6449,-2.5414,-2.5687,0.0,0.0,0.0,0.0,0.0,0.0,0.0,0.0,0.0,0.0,0.0,0.0,0.0,0.0,0.0,0.0,0.0,0.0,0.0,0.0,0.0,0.0,0.0,0.0,0.0,0.0,0.0,0.0,0.0,0.0,0.0,0.0,0.0,0.0,0.0,0.0,0.0,0.0,0.0,0.0,0.0,0.0,0.0,0.0,0.0,0.0,0.0,0.0,0.0,0.0,0.0,0.0,0.0,0.0,0.0,0.0,0.0,0.0,0.0,0.0,0.0,0.0,0.0,0.0,0.0,0.0,0.0,0.0,0.0,0.0,0.0,0.0,0.0,0.0,0.0,0.0,0.0,0.0,0.0,0.0,0.0,0.0,0.0,0.0,0.0,0.0,0.0,0.0,0.0,0.0,0.0,0.0,0.0,0.0,0.0,0.0,0.0,0.0,0.0,0.0,0.0,0.0,-2.4065,-2.516,-2.6039,-2.69,-2.6214,-2.641,-2.8147,-2.59,-2.4788,0.0,0.0,0.0,0.0,0.0,0.0,0.0,0.0,0.0,0.0,0.0,0.0,0.0,0.0,0.0,0.0,0.0,0.0,0.0,0.0,0.0,0.0,0.0,0.0,0.0,0.0,0.0,0.0,0.0,0.0,0.0,0.0,0.0,0.0,0.0,0.0,0.0,0.0,0.0,0.0,0.0,0.0,0.0,0.0,0.0,0.0,0.0,0.0,0.0,0.0,0.0,0.0,0.0,0.0,0.0,0.0,0.0,0.0,0.0,0.0,0.0,0.0,0.0,0.0,0.0,0.0,0.0,0.0,0.0,0.0,0.0,0.0,0.0,0.0,0.0,0.0,0.0,0.0,0.0,0.0,0.0,0.0,0.0,0.0,0.0,0.0,0.0,0.0,0.0,0.0,0.0,0.0,0.0,0.0,0.0,0.0,0.0,0.0,0.0,0.0,0.0,0.0,0.0,-2.3306,-2.5317,-2.6488,-2.6117,-2.5844,-2.641,-2.8147,-2.6468,-2.5434,-2.5687,0.0,0.0,0.0,0.0,0.0,0.0,0.0,0.0,0.0,0.0,0.0,0.0,0.0,0.0,0.0,0.0,0.0,0.0,0.0,0.0,0.0,0.0,0.0,0.0,0.0,0.0,0.0,0.0,0.0,0.0,0.0,0.0,0.0,0.0,0.0,0.0,0.0,0.0,0.0,0.0,0.0,0.0,0.0,0.0,0.0,0.0,0.0,0.0,0.0,0.0,0.0,0.0,0.0,0.0,0.0,0.0,0.0,0.0,0.0,0.0,0.0,0.0,0.0,0.0,0.0,0.0,0.0,0.0,0.0,0.0,0.0,0.0,0.0,0.0,0.0,0.0,0.0,0.0,0.0,0.0,0.0,0.0,0.0,0.0,0.0,0.0,0.0,0.0,0.0,0.0,0.0,0.0,0.0,0.0,0.0,0.0,0.0,0.0,0.0,0.0,0.0,0.0,-2.2994,-2.5377,-2.6802,-2.6273,-2.5902,-2.641,-2.8147,-2.6702,-2.5707,-2.5707,0.0,0.0,0.0,0.0,0.0,0.0,0.0,0.0,0.0,0.0,0.0,0.0,0.0,0.0,0.0,0.0,0.0,0.0,0.0,0.0,0.0,0.0,0.0,0.0,0.0,0.0,0.0,0.0,0.0,0.0,0.0,0.0,0.0,0.0,0.0,0.0,0.0,0.0,0.0,0.0,0.0,0.0,0.0,0.0,0.0,0.0,0.0,0.0,0.0,0.0,0.0,0.0,0.0,0.0,0.0,0.0,0.0,0.0,0.0,0.0,0.0,0.0,0.0,0.0,0.0,0.0,0.0,0.0,0.0,0.0,0.0,0.0,0.0,0.0,0.0,0.0,0.0,0.0,0.0,0.0,0.0,0.0,0.0,0.0,0.0,0.0,0.0,0.0,0.0,0.0,0.0,0.0,0.0,0.0,0.0,0.0,0.0,0.0,0.0,0.0,0.0,0.0,-2.3345,-2.5746,-2.7329,-2.7251,-2.6527,-2.6663,-2.8166,-2.6859,-2.5863,-2.5707,0.0,0.0,0.0,0.0,0.0,0.0,0.0,0.0,0.0,0.0,0.0,0.0,0.0,0.0,0.0,0.0,0.0,0.0,0.0,0.0,0.0,0.0,0.0,0.0,0.0,0.0,0.0,0.0,0.0,0.0,0.0,0.0,0.0,0.0,0.0,0.0,0.0,0.0,0.0,0.0,0.0,0.0,0.0,0.0,0.0,0.0,0.0,0.0,0.0,0.0,0.0,0.0,0.0,0.0,0.0,0.0,0.0,0.0,0.0,0.0,-2.0723,-1.998,0.0,0.0,0.0,0.0,0.0,0.0,0.0,0.0,0.0,0.0,0.0,0.0,0.0,0.0,0.0,0.0,0.0,0.0,0.0,0.0,0.0,0.0,0.0,0.0,0.0,0.0,0.0,0.0,0.0,0.0,0.0,0.0,0.0,0.0,0.0,0.0,0.0,0.0,0.0,0.0,-2.5885,-2.8401,-2.9747,-2.9105,-2.8889,-2.8635,-2.8323,-2.7952,-2.7151,-2.5785,-2.4362,0.0,0.0,0.0,0.0,0.0,0.0,0.0,0.0,0.0,0.0,0.0,0.0,0.0,0.0,0.0,0.0,0.0,0.0,0.0,0.0,0.0,0.0,0.0,0.0,0.0,0.0,0.0,0.0,0.0,0.0,0.0,0.0,0.0,0.0,0.0,0.0,0.0,0.0,0.0,0.0,0.0,0.0,0.0,0.0,0.0,0.0,0.0,0.0,0.0,0.0,0.0,0.0,0.0,0.0,0.0,0.0,0.0,0.0,0.0,-2.332,-2.2539,0.0,0.0,0.0,0.0,0.0,0.0,0.0,0.0,0.0,0.0,0.0,0.0,0.0,0.0,0.0,0.0,0.0,0.0,0.0,0.0,0.0,0.0,0.0,0.0,0.0,0.0,0.0,0.0,0.0,0.0,0.0,0.0,0.0,0.0,0.0,0.0,0.0,0.0,0.0,0.0,-2.6665,-2.8889,-3.0372,-3.0762,-3.0079,-2.9416,-2.8967,-2.8166,-2.7288,-2.6371,-2.4711,0.0,0.0,0.0,0.0,0.0,0.0,0.0,0.0,0.0,0.0,0.0,0.0,0.0,0.0,0.0,0.0,0.0,0.0,0.0,0.0,0.0,0.0,0.0,0.0,0.0,0.0,0.0,0.0,0.0,0.0,0.0,0.0,0.0,0.0,0.0,0.0,0.0,0.0,0.0,0.0,0.0,0.0,0.0,0.0,0.0,0.0,0.0,0.0,0.0,0.0,0.0,0.0,0.0,-2.7676,-2.8066,-2.8789,-2.9492,-2.9902,-2.9863,-2.6309,-2.5781,-2.7266,-2.4863,0.0,0.0,0.0,0.0,0.0,0.0,0.0,0.0,0.0,0.0,0.0,0.0,0.0,0.0,0.0,0.0,0.0,0.0,0.0,0.0,0.0,0.0,-2.6562,-2.7285,-2.8242,-2.793,-2.4062,0.0,0.0,0.0,0.0,0.0,0.0,0.0,0.0,0.0,0.0,0.0,-2.7327,-2.9181,-3.0782,-3.2187,-3.1094,-3.0138,-2.9845,-2.8518,-2.7485,-2.7036,-2.5121,-2.411,0.0,0.0,0.0,0.0,0.0,0.0,0.0,0.0,0.0,0.0,0.0,0.0,0.0,0.0,0.0,0.0,0.0,0.0,0.0,0.0,0.0,0.0,0.0,0.0,0.0,0.0,0.0,0.0,0.0,0.0,0.0,0.0,-1.6971,-1.9609,0.0,0.0,0.0,0.0,0.0,0.0,0.0,0.0,0.0,0.0,0.0,0.0,0.0,-2.8047,-2.8906,-2.9668,-3.0156,-3.0391,-3.0391,-3.0449,-3.0566,-3.0684,-3.1133,-3.1836,-3.1269,0.0,-2.9101,-2.7266,0.0,0.0,0.0,0.0,0.0,0.0,0.0,0.0,0.0,0.0,0.0,0.0,0.0,0.0,0.0,0.0,0.0,0.0,0.0,0.0,0.0,0.0,-2.9101,-2.9238,-3.0508,-3.1113,-2.9023,-2.6875,-2.4609,-2.2051,-2.1562,-2.1289,0.0,0.0,0.0,0.0,0.0,0.0,-2.9962,-3.1816,-3.2988,-3.3202,-3.3027,-3.2304,-3.086,-3.0528,-2.9416,-2.7134,-2.7383,-2.6646,-2.4488,-2.4081,0.0,0.0,0.0,0.0,0.0,0.0,0.0,0.0,0.0,0.0,0.0,0.0,0.0,0.0,0.0,0.0,0.0,0.0,0.0,0.0,0.0,0.0,0.0,0.0,0.0,0.0,0.0,0.0,0.0,-1.7017,-1.9509,-2.1133,-2.0996,-2.0762,0.0,0.0,0.0,0.0,0.0,0.0,0.0,0.0,0.0,-2.8574,-2.9355,-3.0391,-3.1719,-3.2109,-3.2559,-3.3047,-3.3535,-3.3769,-3.3789,-3.4277,-3.4707,-3.5098,-3.5586,-3.5098,-3.3711,-3.1035,-2.9922,-2.9746,0.0,0.0,0.0,0.0,-2.7988,-2.7988,-2.8574,-2.8203,-2.7383,-2.6797,0.0,0.0,0.0,0.0,0.0,0.0,0.0,-2.7519,-2.8398,-2.9844,-3.1055,-3.1055,-3.1992,-3.2539,-3.1328,-3.0156,-2.8437,-2.5352,-2.4766,-2.4336,-2.2969,-2.3142,0.0,0.0,0.0,-2.8106,-3.1133,-3.1777,-3.2304,-3.33,-3.3398,-3.2714,-3.1031,-3.0454,-2.9462,-2.7837,-2.7639,-2.7276,-2.662,-2.5644,-2.4375,0.0,0.0,0.0,0.0,0.0,0.0,0.0,0.0,0.0,0.0,0.0,0.0,0.0,0.0,0.0,0.0,0.0,0.0,0.0,0.0,0.0,0.0,0.0,0.0,0.0,0.0,0.0,0.0,-1.9415,-2.1422,-2.2715,-2.2676,-2.2539,0.0,0.0,0.0,0.0,0.0,0.0,-2.6621,-2.8359,-2.998,-3.1484,-3.1973,-3.291,-3.4375,-3.4629,-3.5059,-3.5703,-3.6367,-3.668,-3.6699,-3.7344,-3.7637,-3.7676,-3.832,-3.8223,-3.7402,-3.4414,-3.3164,-3.3008,-3.125,-3.0703,-3.0937,-3.1152,-3.0957,-3.0723,-3.1816,-3.1777,-3.1055,-2.9961,-2.9473,-2.9062,-2.7754,0.0,0.0,0.0,0.0,-3.041,-3.1055,-3.2031,-3.2832,-3.2832,-3.3476,-3.3848,-3.3027,-3.2832,-3.1816,-2.834,-2.7676,-2.7187,-2.5664,-2.5933,0.0,0.0,0.0,-2.8925,-3.1465,-3.1409,-3.1624,-3.2929,-3.307,-3.2658,-3.1633,-3.0747,-2.9777,-2.8703,-2.8234,-2.7984,-2.7969,-2.7148,-2.6074,-2.4766,0.0,0.0,0.0,0.0,0.0,0.0,0.0,0.0,0.0,0.0,0.0,0.0,0.0,0.0,0.0,0.0,0.0,0.0,0.0,0.0,0.0,0.0,0.0,0.0,0.0,0.0,0.0,0.0,0.0,-2.5215,-2.4785,0.0,0.0,0.0,0.0,-2.5508,-2.7851,-2.9316,-2.9394,-3.1055,-3.2383,-3.3242,-3.4883,-3.6172,-3.709,-3.793,-3.8359,-3.8398,-3.8457,-3.8476,-3.8476,-3.8516,-3.8535,-3.8535,-3.8574,-3.8574,-3.8398,-3.6562,-3.5801,-3.5644,-3.3887,-3.3711,-3.4258,-3.2715,-3.2598,-3.3105,-3.2422,-3.2168,-3.2246,-3.293,-3.2637,-3.1992,-3.1894,-3.1328,0.0,0.0,-3.1406,-3.207,-3.2129,-3.3359,-3.457,-3.457,-3.5234,-3.5625,-3.4766,-3.457,-3.3555,-3.0137,-2.9473,-2.918,-2.8262,0.0,-2.8475,-2.934,-3.0172,-3.0777,-3.0936,-3.1591,-3.2061,-3.217,-3.2178,-3.2473,-3.3219,-3.2475,-3.1276,-2.9648,-3.0273,-2.9609,-2.7168,-2.8574,-2.8223,-2.5684,-2.4707,0.0,0.0,0.0,0.0,0.0,0.0,0.0,0.0,0.0,0.0,0.0,0.0,0.0,0.0,0.0,0.0,0.0,0.0,0.0,0.0,0.0,0.0,0.0,0.0,0.0,0.0,0.0,0.0,-2.7129,-2.7109,0.0,-2.7695,-2.8027,-2.8437,-2.9004,-3.043,-3.1504,-3.2012,-3.3691,-3.5039,-3.5879,-3.7051,-3.7812,-3.8125,-3.9004,-3.9434,-3.9434,-4.0019,-4.0273,-4.0273,-4.0273,-4.0273,-4.0273,-4.0273,-4.0273,-4.0234,-3.9609,-3.8691,-3.7559,-3.6367,-3.6094,-3.6309,-3.5703,-3.5664,-3.5957,-3.6211,-3.6328,-3.6269,-3.5996,-3.5332,-3.4648,-3.4648,-3.4434,-3.4297,-3.4863,-3.5234,-3.5605,-3.6172,-3.6758,-3.7207,-3.7207,-3.7012,-3.6758,-3.6445,-3.5937,-3.5176,-3.3965,-3.2812,-3.1777,-3.0957,-3.123,-3.1699,-3.199,-3.2318,-3.2702,-3.328,-3.2625,-3.2125,-3.2165,-3.2121,-3.2237,-3.2594,-3.1832,-3.1072,-3.0469,-3.0195,-2.9648,-2.8711,-2.9277,-2.8906,-2.7402,-2.5977,-2.3828,0.0,0.0,0.0,0.0,0.0,0.0,0.0,0.0,0.0,0.0,0.0,0.0,0.0,0.0,0.0,0.0,0.0,0.0,0.0,0.0,0.0,0.0,0.0,0.0,0.0,0.0,-2.6465,-2.8496,-2.873,-2.9082,-2.9941,-3.0293,-3.082,-3.168,-3.2812,-3.3848,-3.4668,-3.6094,-3.7285,-3.8144,-3.873,-3.918,-3.9473,-4.0059,-4.0332,-4.0351,-4.0918,-4.1191,-4.1191,-4.1191,-4.1191,-4.1191,-4.1191,-4.1191,-4.1191,-4.1191,-4.0527,-3.9394,-3.8516,-3.8184,-3.8144,-3.7851,-3.7734,-3.7812,-3.8398,-3.8594,-3.8496,-3.793,-3.7344,-3.6875,-3.6875,-3.6875,-3.6992,-3.7578,-3.7734,-3.7871,-3.8457,-3.8594,-3.8594,-3.8594,-3.8164,-3.7734,-3.7734,-3.7285,-3.6875,-3.6875,-3.5469,-3.4101,-3.3574,-3.3926,-3.4277,-3.4277,-3.4277,-3.4489,-3.5068,-3.4137,-3.332,-3.3066,-3.2731,-3.2672,-3.3008,-3.1992,-3.1348,-3.1348,-3.0801,-3.0078,-2.9199,-2.9434,-2.9043,-2.7871,-2.6152,-2.457,-2.3164,0.0,0.0,0.0,0.0,0.0,0.0,0.0,0.0,0.0,0.0,0.0,0.0,0.0,0.0,0.0,0.0,0.0,0.0,0.0,0.0,0.0,0.0,0.0,-2.4473,-2.5273,-2.6816,-2.9375,-2.9707,-3.0078,-3.0976,-3.1816,-3.2656,-3.3496,-3.5137,-3.6465,-3.7324,-3.8184,-3.9043,-3.9902,-3.9941,-4.0351,-4.1191,-4.1191,-4.1191,-4.1191,-4.1191,-4.1191,-4.1191,-4.1191,-4.1191,-4.1191,-4.1191,-4.1191,-4.1191,-4.1191,-4.1191,-4.1113,-4.0273,-3.9941,-3.9844,-3.8984,-3.8672,-3.8672,-3.8672,-3.8672,-3.8672,-3.8672,-3.8672,-3.8672,-3.8672,-3.8672,-3.8672,-3.8672,-3.8672,-3.8672,-3.8672,-3.8672,-3.8672,-3.8672,-3.8652,-3.8633,-3.8633,-3.8613,-3.8613,-3.8633,-3.7285,-3.6113,-3.6094,-3.6074,-3.6074,-3.6074,-3.6074,0.0,-3.6074,-3.6055,-3.5723,-3.4863,-3.3984,-3.3789,-3.4629,-3.3164,-3.2207,-3.2207,-3.2168,-3.1016,-2.8496,-2.9199,-2.8828,-2.7109,-2.5371,-2.4883,-2.5703,0.0,0.0,0.0,0.0,0.0,0.0,0.0,0.0,0.0,0.0,0.0,0.0,0.0,0.0,0.0,0.0,0.0,0.0,0.0,0.0,0.0,-2.5,-2.6289,-2.6289,-2.8125,-2.9961,-3.1328,-3.1992,-3.2949,-3.4453,-3.4805,-3.5566,-3.7051,-3.7617,-3.8262,-3.9141,-3.9414,-3.9941,-4.082,-4.084,-4.0957,-4.1191,-4.1191,-4.1191,-4.1191,-4.1191,-4.1191,-4.1191,-4.1191,-4.1191,-4.1191,-4.1191,-4.1191,-4.1191,-4.1191,-4.1191,-4.1172,-4.0937,-4.084,-4.0801,-4.0566,-4.0488,-4.0488,-4.0488,-4.0488,-4.0488,-4.0488,-4.0488,-4.0488,-4.0488,-4.0488,-4.0488,-4.0488,-4.0488,-4.0488,-4.0488,-4.0488,-4.0488,-4.0488,-4.0,-3.9531,-3.9531,-3.9043,-3.8789,-3.9414,-3.916,-3.8633,-3.7988,-3.7891,-3.7891,-3.7891,-3.7891,-3.7891,-3.7891,-3.7324,-3.6855,-3.6601,-3.5234,-3.4434,-3.4687,-3.3164,-3.2207,-3.2207,-3.1601,-3.0937,-3.0215,-3.043,-3.0019,-2.8906,-2.7168,-2.6094,0.0,0.0,0.0,0.0,0.0,0.0,0.0,0.0,0.0,0.0,0.0,0.0,0.0,0.0,0.0,0.0,0.0,0.0,0.0,0.0,0.0,0.0,-2.7266,-2.8769,-2.9121,-3.0488,-3.1894,-3.3105,-3.3984,-3.5039,-3.6406,-3.6875,-3.7656,-3.9043,-3.9141,-3.9531,-4.0391,-4.0449,-4.0684,-4.1172,-4.1191,-4.1191,-4.1191,-4.1191,-4.1191,-4.1191,-4.1191,-4.1191,-4.1191,-4.1191,-4.1191,-4.1191,-4.1191,-4.1191,-4.1191,-4.1191,-4.1191,-4.1191,0.0,0.0,0.0,0.0,-4.1191,-4.1191,-4.1191,-4.1191,-4.1191,-4.1191,-4.1191,-4.1191,-4.1191,-4.1191,-4.1191,-4.1191,-4.1191,-4.1191,-4.1191,-4.1191,-4.1191,-4.1191,-4.0801,-4.0449,-4.0449,-4.0059,-3.9844,-4.0351,-4.0449,0.0,-3.9785,-3.9687,-3.9687,-3.9687,-3.9687,-3.9687,-3.9687,-3.9258,-3.8789,-3.8437,-3.7168,-3.6328,-3.6328,-3.4101,0.0,0.0,0.0,-3.1289,-3.0918,-3.0547,0.0,0.0,0.0,0.0,0.0,0.0,0.0,0.0,-2.6758,-2.664,0.0,0.0,0.0,0.0,0.0,0.0,0.0,0.0,0.0,0.0,0.0,0.0,0.0,0.0,0.0,0.0,-2.9551,-3.1484,-3.2363,-3.2656,-3.3281,-3.4687,-3.5625,-3.6523,-3.75,-3.8281,-3.9101,-3.998,-4.0059,-4.0371,-4.1152,0.0,0.0,0.0,0.0,-4.1191,-4.1191,-4.1191,-4.1191,-4.1191,-4.1191,-4.1191,-4.1191,-4.1191,-4.1191,-4.1191,-4.1191,-4.1191,-4.1191,-4.1191,-4.1191,-4.1191,-4.1191,-4.1191,-4.1191,-4.1191,-4.1191,-4.1191,-4.1191,0.0,0.0,-4.1191,-4.1191,-4.1191,-4.1191,-4.1191,-4.1191,-4.1191,-4.1191,-4.1191,-4.1191,-4.1191,-4.1191,-4.1191,-4.1191,-4.1191,-4.1191,-4.1191,-4.1191,-4.1191,-4.1191,-4.1191,-4.1191,-4.1191,-4.1191,-4.1191,-4.1191,-4.1191,-4.1191,-4.1191,-4.0898,-4.0137,-3.9277,0.0,-3.8613,-3.5664,-3.4375,-3.5625,-3.3418,-3.1719,-3.0937,-3.0156,-3.0117,-3.0879,-3.0898,-3.1289,-3.2051,-3.2148,-3.1855,-3.1113,-2.8711,-2.8457,0.0,0.0,0.0,0.0,0.0,0.0,0.0,0.0,0.0,0.0,0.0,0.0,0.0,0.0,0.0,-2.9746,-3.1699,-3.3223,-3.4082,-3.543,-3.6172,-3.5781,-3.6523,-3.7676,-3.9238,-3.9551,-4.0019,-4.0879,-4.0957,-4.1016,-4.1191,-4.1191,-4.1191,-4.1191,-4.1191,-4.1191,-4.1191,-4.1191,-4.1191,-4.1191,-4.1191,0.0,-4.1191,-4.1191,-4.1191,-4.1191,-4.1191,-4.1191,-4.1191,-4.1191,-4.1191,-4.1191,-4.1191,-4.1191,-4.1191,-4.1191,-4.1191,-4.1191,-4.1191,-4.1191,-4.1191,-4.1191,-4.1191,-4.1191,-4.1191,-4.1191,0.0,-4.1191,-4.1191,-4.1191,-4.1191,-4.1191,-4.1191,-4.1191,-4.1191,-4.1191,-4.1191,-4.1191,-4.1191,-4.1191,-4.1191,-4.1191,-4.1191,-4.1191,-4.1191,-4.1191,-4.1191,-4.1191,-4.1191,-4.1191,-4.1133,-4.0976,-4.0176,-3.9355,-3.8652,-3.7344,-3.5781,-3.4004,-3.2168,-3.1074,-3.0918,-3.0742,-3.0723,-3.0898,-3.0898,-3.0976,-3.1152,-3.1855,-3.2441,-3.2891,-3.1738,-3.1719,0.0,0.0,0.0,0.0,0.0,0.0,0.0,0.0,0.0,0.0,0.0,-2.6224,-2.7984,0.0,-3.0156,-3.1875,-3.3223,-3.4355,-3.5234,-3.6484,-3.7148,-3.6699,-3.7812,-3.8945,-3.9824,-4.0293,-4.0723,-4.1172,-4.1191,-4.1191,-4.1191,-4.1191,-4.1191,-4.1191,-4.1191,-4.1191,-4.1191,-4.1191,-4.1191,-4.1191,-4.1191,-4.1191,-4.1191,-4.1191,-4.1191,-4.1191,-4.1191,-4.1191,-4.1191,-4.1191,-4.1191,-4.1191,-4.1191,-4.1191,-4.1191,-4.1191,-4.1191,-4.1191,-4.1191,-4.1191,-4.1191,-4.1191,-4.1191,-4.1191,-4.1191,-4.1191,-4.1191,-4.1191,-4.1191,-4.1191,-4.1191,-4.1191,-4.1191,-4.1191,-4.1191,-4.1191,-4.1191,-4.1191,-4.1191,-4.1191,-4.1191,-4.1191,-4.1191,-4.1191,-4.1191,-4.1191,-4.1191,-4.1191,-4.1191,-4.1191,-4.1191,-4.1191,-4.0801,-4.0371,-3.9941,-3.9101,-3.7676,-3.5488,-3.498,-3.4551,-3.4121,-3.4101,-3.4101,-3.4101,-3.4101,-3.4101,-3.4101,-3.4531,-3.4726,-3.4707,-3.4746,-3.4726,0.0,0.0,0.0,0.0,0.0,0.0,0.0,0.0,-2.4856,-2.7459,-2.8434,-2.9115,-3.0147,-3.1482,-3.2695,-3.3516,-3.4531,-3.5449,-3.6152,-3.7148,-3.7812,-3.7812,-3.9043,-3.9961,-4.0137,-4.0781,-4.1191,-4.1191,-4.1191,-4.1191,-4.1191,-4.1191,-4.1191,-4.1191,-4.1191,-4.1191,-4.1191,-4.1191,-4.1191,-4.1191,-4.1191,-4.1191,-4.1191,-4.1191,-4.1191,-4.1191,-4.1191,-4.1289,-4.1426,-4.1269,-4.1191,-4.1191,-4.1191,-4.1191,-4.1191,-4.1191,-4.1191,-4.1191,-4.1191,-4.1191,-4.1191,-4.1191,-4.1191,-4.1191,-4.1191,-4.1191,-4.1191,-4.1191,-4.1191,-4.1191,-4.1191,-4.1191,-4.1191,-4.1191,-4.1191,-4.1191,-4.1191,-4.1191,-4.1191,-4.1191,-4.1191,-4.1191,-4.1191,-4.1191,-4.1191,-4.1191,-4.1191,-4.1191,-4.1191,-4.1191,-4.1191,-4.1191,-4.1191,-4.1191,-4.1191,-4.0254,-3.9043,-3.7637,-3.7891,-3.7773,-3.707,-3.7051,-3.7051,-3.7051,-3.7051,-3.7051,-3.7051,-3.7226,-3.6934,-3.6289,-3.7324,-3.7344,-2.3675,-2.4536,-2.5453,-2.6234,-2.5844,-2.6097,0.0,0.0,-2.8435,-3.0996,-3.1035,-3.1094,-3.2676,-3.3125,-3.3555,-3.4414,-3.5937,-3.7031,-3.7148,-3.8574,-3.9609,-3.9609,-3.9785,-4.0195,-4.0976,-4.1133,-4.1191,-4.1191,-4.1191,-4.1191,-4.1191,-4.1191,-4.1191,-4.1191,-4.1191,-4.1191,-4.1191,-4.1191,-4.1191,-4.1191,-4.1191,-4.1191,-4.1191,-4.1191,-4.1191,-4.1191,-4.1191,-4.1601,-4.2207,-4.1484,-4.1191,-4.1191,-4.1191,-4.1191,-4.1191,-4.1191,-4.1191,-4.1191,-4.1191,-4.1191,-4.1191,-4.1191,-4.1191,-4.1191,-4.1191,-4.1191,-4.1191,-4.1191,-4.1191,-4.1191,-4.1191,-4.1191,-4.1191,-4.1191,-4.1191,-4.1191,-4.1191,-4.1191,-4.1191,-4.1191,-4.1191,-4.1191,-4.1191,-4.1191,-4.1191,-4.1191,-4.1191,-4.1191,-4.1191,-4.1191,-4.1191,-4.1191,-4.1191,-4.1191,-4.1191,-3.9687,-3.8652,-3.8476,-3.709,-3.625,-3.6152,-3.6152,-3.6152,-3.6152,-3.6152,-3.6152,-3.6152,-3.6914,-3.7246,-3.7187,-3.8848,-3.9141,-2.7054,-2.7327,-2.7425,0.0,-2.8244,-2.8479,-3.045,-3.0337,-3.0383,-3.2441,-3.2988,-3.332,-3.4023,-3.457,-3.5195,0.0,-3.6816,-3.748,-3.7988,-3.8672,-3.9141,-3.9141,-3.959,-4.0234,-4.1113,-4.1191,-4.1191,-4.1191,-4.1191,-4.1191,-4.1191,-4.1191,-4.1191,-4.1191,-4.1191,-4.1191,-4.1191,-4.1191,-4.1191,-4.1211,-4.168,-4.1894,-4.1914,-4.2422,-4.2656,-4.2656,-4.2656,-4.2851,-4.3086,-4.2246,-4.1894,-4.1855,-4.1387,-4.1191,-4.1191,-4.1191,-4.1191,-4.1191,-4.1191,-4.1191,-4.1191,-4.1191,-4.1191,-4.1191,-4.1191,-4.1191,-4.1191,-4.1191,-4.1191,-4.1191,-4.1191,-4.1191,-4.1191,-4.1191,-4.1191,-4.1191,-4.1191,-4.1191,-4.1191,-4.1191,-4.1191,-4.1191,-4.1191,-4.1191,-4.1191,-4.1191,-4.1191,-4.1191,-4.1191,-4.1191,-4.1191,-4.1191,-4.1191,-4.1191,-4.1191,-4.0527,-4.0117,-4.0117,-3.9434,-3.9023,-3.9023,-3.9023,-3.9023,-3.9023,-3.9023,-3.9023,-3.9023,-3.9394,-3.957,-3.959,-4.0312,-4.0469,-2.8617,0.0,0.0,-2.9435,-2.9943,-3.045,-3.1094,-3.1426,-3.1997,-3.3454,-3.4257,-3.4765,-3.5019,-3.5566,-3.6289,-3.7168,-3.75,-3.7969,-3.8848,-3.8965,-3.8965,-3.8965,-3.9297,-3.9883,-4.0762,-4.1055,-4.1191,-4.1191,-4.1191,-4.1191,-4.1191,-4.1191,-4.1191,-4.1191,-4.1191,-4.1191,-4.1191,-4.1426,-4.1523,-4.1543,-4.2363,-4.2754,-4.2773,-4.3418,-4.3828,-4.4043,-4.3808,-4.3848,-4.3984,-4.3125,-4.2754,-4.2695,-4.2129,-4.1894,-4.1894,-4.1894,-4.1601,-4.1191,-4.1191,-4.1191,-4.1191,-4.1191,-4.1191,-4.1191,-4.1191,-4.1191,-4.1191,-4.1191,-4.1191,-4.1191,-4.1191,-4.1191,-4.1191,-4.1191,-4.1191,-4.1191,-4.1191,-4.1191,-4.1191,-4.1191,-4.1191,-4.1191,-4.1191,-4.1191,-4.1191,-4.1191,-4.1191,-4.1191,-4.1191,-4.1191,-4.1191,-4.1191,-4.1191,-4.1191,-4.1191,-4.1191,-4.1191,-4.1191,-4.1191,-4.1191,-4.1191,-4.1191,-4.1191,-4.1191,-4.1191,-4.1191,-4.1191,-4.1191,-4.1191,-4.1191,-4.1191,-4.1191,0.0,0.0,-2.9574,-2.9593,-3.0821,-3.2031,-3.2051,-3.2714,-3.3573,-3.4471,-3.4677,-3.4956,-3.5797,-3.5976,-3.6289,-3.7168,-3.8008,-3.8867,-3.9746,-3.9863,-3.9863,-3.9863,-3.9141,-3.8984,-3.9844,-4.0703,-4.1191,-4.1191,-4.1191,-4.1191,-4.1191,-4.1191,-4.1191,-4.1191,-4.1191,-4.1191,-4.1191,-4.1973,-4.2363,-4.2363,-4.3242,-4.3652,-4.3652,-4.3691,-4.416,-4.4902,-4.4062,-4.418,-4.4883,-4.4023,-4.3652,-4.3652,-4.3633,-4.3613,-4.3613,-4.3613,-4.2598,-4.1191,-4.1191,-4.1191,-4.1191,-4.1191,-4.1191,-4.1191,-4.1191,-4.1191,-4.1191,-4.1191,-4.1191,-4.1191,-4.1191,-4.1191,-4.1191,-4.1191,-4.1191,-4.1191,-4.1191,-4.1191,-4.1191,-4.1191,-4.1191,-4.1191,-4.1191,-4.1191,-4.1191,-4.1191,-4.1191,-4.1191,-4.1191,-4.1191,-4.1191,-4.1191,-4.1191,-4.1191,-4.1191,-4.1191,-4.1191,-4.1191,-4.1191,-4.1191,-4.1191,-4.1191,-4.1191,-4.1191,-4.1191,-4.1191,-4.1191,-4.1191,-4.1191,-4.1191,-4.1191,-4.1191,-2.9142,0.0,-2.9865,-3.0977,-3.168,-3.2402,-3.3554,-3.4042,-3.4354,-3.4647,-3.471,-3.4615,-3.4322,-3.4754,-3.5618,-3.7051,-3.8027,-3.9101,-4.0566,-4.0254,-3.9687,-3.9101,-3.9297,0.0,-3.9062,-3.9824,0.0,-4.1152,-4.1191,-4.1191,-4.1191,-4.1191,-4.1191,-4.1191,-4.1191,-4.1191,-4.1191,-4.1992,-4.2402,-4.2422,-4.3867,-4.4863,-4.543,-4.543,-4.5586,-4.5859,-4.5547,-4.5586,-4.5781,-4.4922,-4.4551,-4.4512,-4.3926,-4.3691,-4.3691,-4.3691,-4.334,-4.2851,-4.2851,-4.248,-4.1992,-4.1992,-4.1641,-4.1191,-4.1191,-4.1191,-4.1191,-4.1191,-4.1191,-4.1191,-4.1191,-4.1191,-4.1191,-4.1191,-4.1191,-4.1191,-4.1191,-4.1191,-4.1191,-4.1191,-4.1191,-4.1191,-4.1191,-4.1641,-4.1992,-4.1992,-4.1543,-4.1191,-4.1191,-4.1191,-4.1191,-4.1191,-4.1191,-4.1191,-4.1191,-4.1191,-4.1191,-4.1191,-4.1191,-4.1191,-4.1191,-4.1191,-4.1191,-4.1191,-4.1191,-4.1191,-4.1191,-4.1191,-4.1191,-4.1211,-4.1758,-4.1992,-3.0353,-3.0645,-3.0821,-3.2226,-3.2792,-3.3241,-3.4042,-3.4471,-3.4608,-3.4295,-3.4237,-3.4061,-3.3495,-3.3866,-3.4808,-3.6558,-3.7577,-3.875,-4.0488,-4.0254,-3.9687,-3.9121,-3.9277,-3.9336,0.0,0.0,0.0,-4.1133,-4.1191,-4.1191,-4.1191,-4.1191,-4.1191,-4.1191,-4.1191,-4.1191,-4.1191,-4.2305,-4.3183,-4.3808,-4.4922,-4.5762,-4.6308,-4.6308,-4.6308,-4.6308,-4.6308,-4.6308,-4.6269,-4.5703,-4.5469,-4.541,-4.4844,-4.4629,-4.4629,-4.4629,-4.4629,-4.4531,-4.3926,-4.332,-4.2812,-4.25,-4.2051,-4.1582,-4.1289,-4.1191,-4.1191,-4.1191,-4.1191,-4.1269,-4.1543,-4.1621,-4.1621,-4.1621,-4.1621,-4.1543,-4.1269,-4.1191,-4.1191,-4.1191,-4.1191,-4.1289,-4.1582,-4.2051,-4.2519,-4.2812,-4.2168,-4.1523,-4.123,-4.1191,-4.1191,-4.1191,-4.1191,-4.1191,-4.1191,-4.1191,-4.1191,-4.1191,-4.1191,-4.1191,-4.1191,-4.1191,-4.1191,-4.1191,-4.1191,-4.1191,-4.1191,-4.1191,-4.1348,-4.1641,-4.2168,-4.2578,-3.0843,-3.1504,-3.2383,-3.3241,-3.4042,-3.4432,-3.3632,-3.4061,-3.4374,-3.3456,-3.328,-3.3241,-3.3144,0.0,-3.3888,-3.5584,-3.6706,-3.7964,-3.9667,-3.9941,-3.9941,0.0,0.0,0.0,0.0,0.0,0.0,-4.1133,0.0,-4.1191,-4.1191,-4.1191,-4.1191,-4.1191,-4.1191,-4.1211,-4.1269,-4.293,-4.4629,-4.6308,-4.6308,-4.6308,-4.6308,-4.6308,-4.6308,-4.6308,-4.6308,-4.6308,-4.6308,-4.6308,-4.6308,-4.6308,-4.6308,-4.6308,-4.6308,-4.6308,-4.6308,-4.6055,-4.4414,-4.3808,-4.3633,-4.2793,-4.25,-4.2324,-4.1562,-4.1328,-4.1328,-4.1328,-4.1328,-4.1504,-4.2266,-4.2461,-4.2461,-4.2402,-4.2422,-4.2246,-4.1445,-4.1308,-4.1328,-4.1328,-4.1328,-4.1582,-4.2383,-4.25,-4.2754,-4.3633,-4.3027,-4.2187,-4.1426,-4.1328,-4.1328,-4.1328,-4.1328,-4.1328,-4.1328,-4.1289,-4.1289,-4.1328,-4.125,-4.1211,-4.1269,-4.1211,-4.1191,-4.1191,-4.1191,-4.1191,-4.1191,-4.123,-4.1641,-4.2402,-4.248,-4.2988,-3.1591,-3.2409,-3.328,-3.4159,-3.4042,-3.3846,-3.4276,-3.4042,-3.33,-3.1777,-3.1465,-3.1075,-2.9826,0.0,0.0,-3.3888,-3.6428,0.0,-3.9752,-4.0423,0.0,-3.9961,0.0,-4.0312,-3.9941,-4.0488,0.0,0.0,-4.1191,-4.1191,-4.1191,-4.1191,-4.1191,-4.1191,-4.1191,-4.1484,-4.209,-4.3808,-4.5215,-4.6308,-4.6308,-4.6308,-4.6308,-4.6308,-4.6308,-4.6308,-4.6308,-4.6308,-4.6308,-4.6308,-4.6308,-4.6308,-4.6308,-4.6308,-4.6308,-4.6308,-4.6308,-4.623,-4.5781,-4.5215,-4.4629,-4.4414,-4.3906,-4.332,-4.3125,-4.3066,-4.3066,-4.3066,-4.3066,-4.3105,-4.332,-4.3379,-4.3203,-4.2558,-4.2891,-4.3125,-4.2285,-4.2598,-4.3066,-4.3066,-4.3066,-4.332,-4.4199,-4.3808,-4.3652,-4.4531,-4.3926,-4.3281,-4.3086,-4.3066,-4.3066,-4.3066,-4.3066,-4.3066,-4.3066,-4.2461,-4.2363,-4.3027,-4.1894,-4.1465,-4.207,-4.1523,-4.1191,-4.1191,-4.1191,-4.1191,-4.1191,-4.1797,-4.2207,-4.2422,-4.373,-4.4453,-3.3005,-3.3861,-3.4619,-3.5132,-3.4627,-3.3905,-3.3612,-3.2871,-3.1777,-3.006,-2.9708,0.0,-2.8479,-2.9786,0.0,0.0,0.0,0.0,-3.9156,-4.0355,-4.0928,0.0,-4.0839,0.0,-4.0508,-4.0918,-4.1191,0.0,-4.1191,-4.1191,-4.1191,-4.1191,-4.1367,-4.1719,-4.1738,-4.2305,-4.3535,-4.4512,-4.5449,-4.6308,-4.6308,-4.6308,-4.6308,-4.6306,-4.6307,-4.6308,-4.6308,-4.6308,-4.6308,-4.6308,-4.6308,-4.6308,-4.6308,-4.6308,-4.6308,-4.6308,-4.6308,-4.6308,-4.6308,-4.5976,-4.5508,-4.5117,-4.4668,-4.4199,-4.3828,-4.3691,-4.3691,-4.3691,-4.3691,-4.3789,-4.418,-4.4277,-4.4141,-4.3652,-4.3906,-4.4023,-4.3164,-4.3359,-4.3691,-4.3691,-4.4004,-4.4433,-4.4922,-4.459,-4.457,-4.5449,-4.4824,-4.4414,-4.4785,-4.418,-4.3691,-4.3691,-4.3691,-4.3691,-4.3691,-4.3242,-4.3183,-4.3672,-4.2812,-4.2324,-4.2402,-4.1973,-4.1562,-4.1211,-4.1191,-4.1367,-4.1738,-4.2187,-4.2793,-4.3555,-4.4531,-4.5195,-3.4293,-3.5206,-3.5892,-3.5848,-3.5171,-3.4061,-3.2324,-3.125,-3.0157,-2.8479,0.0,-2.8088,-2.7971,-2.8752,-2.9982,-3.166,0.0,-3.6482,-3.8336,-3.9956,-4.0971,-4.1088,-4.1107,-4.1132,-4.1191,-4.1191,-4.1191,-4.1191,-4.1191,-4.1191,-4.1191,-4.1191,-4.1523,-4.2226,-4.2344,-4.3125,-4.4648,-4.4766,-4.5215,-4.5957,-4.6074,-4.6133,-4.6133,-4.6256,-4.6295,-4.6308,-4.6308,-4.6308,-4.6308,-4.6308,-4.6308,-4.6308,-4.6308,-4.6308,-4.6308,-4.6308,-4.6308,-4.6308,-4.6308,-4.6308,-4.6172,-4.543,-4.5176,-4.5039,-4.4277,-4.4043,-4.4043,-4.4043,-4.4043,-4.4219,-4.498,-4.5176,-4.5117,-4.4883,-4.4922,-4.4726,-4.373,-4.3711,-4.3906,-4.4023,-4.4668,-4.5137,-4.5019,-4.5098,-4.5391,-4.6035,-4.5586,-4.5449,-4.6191,-4.498,-4.4043,-4.4043,-4.4043,-4.4043,-4.4043,-4.3828,-4.3808,-4.4023,-4.3711,-4.3242,-4.2598,-4.2578,-4.2187,-4.1387,-4.1465,-4.1875,-4.2578,-4.2695,-4.3516,-4.5,-4.5117,-4.5586,-3.3578,-3.4745,-3.5732,-3.5092,-3.4267,-3.3163,-3.1426,-3.0392,0.0,0.0,-2.7231,-2.7015,-2.6273,-2.7444,0.0,-3.0743,0.0,0.0,0.0,0.0,-4.0346,0.0,0.0,0.0,0.0,0.0,0.0,0.0,-4.1191,-4.1191,-4.1191,-4.1191,-4.1269,-4.1406,-4.2051,-4.2558,-4.2851,-4.3574,-4.4004,-4.416,-4.4883,-4.5234,-4.5254,-4.5963,-4.6303,-4.629,-4.6307,-4.6308,-4.6305,-4.6308,-4.6308,-4.6308,-4.6308,-4.6308,-4.6308,-4.6308,-4.6308,-4.6308,-4.6308,-4.6308,-4.6289,-4.6113,-4.6074,-4.6055,-4.5898,-4.5859,-4.5859,-4.5859,-4.5859,-4.5879,-4.6035,-4.6074,-4.5703,-4.4277,-4.4473,-4.4551,-4.2969,-4.3769,-4.498,-4.5703,-4.5976,-4.5859,-4.5117,-4.5605,-4.5879,-4.5312,-4.5703,-4.6133,-4.6289,-4.6035,-4.5859,-4.5859,-4.5859,-4.5859,-4.5859,-4.4531,-4.4316,-4.5762,-4.3828,-4.2871,-4.3457,-4.3476,-4.3066,-4.2207,-4.2891,-4.334,-4.3476,-4.4199,-4.4707,-4.5019,-4.5742,-4.6152,-3.3824,-3.4667,-3.519,-3.4811,-3.4036,-3.2831,-3.0665,0.0,0.0,0.0,-2.5961,-2.5668,-2.5687,0.0,0.0,0.0,0.0,0.0,0.0,0.0,0.0,0.0,0.0,0.0,0.0,0.0,0.0,-4.1191,-4.1191,-4.1191,-4.1191,-4.1601,-4.1816,-4.1816,-4.2637,-4.3086,-4.3086,-4.3496,-4.3691,-4.3711,-4.457,-4.5,-4.5039,-4.5896,-4.6295,-4.63,-4.6297,-4.6297,-4.6293,-4.63,-4.6306,-4.6308,-4.6308,-4.6308,-4.6308,-4.6308,-4.6308,-4.6308,-4.6308,-4.6308,-4.6308,-4.6308,-4.6308,-4.6308,-4.6308,-4.6308,-4.6308,-4.6308,-4.6308,-4.6308,-4.6308,-4.5957,-4.5527,-4.5137,-4.5039,-4.4648,-4.3359,-4.373,-4.4453,-4.4863,-4.4941,-4.4961,-4.498,-4.5351,-4.5644,-4.5664,-4.6035,-4.6133,-4.5683,-4.6016,-4.6308,-4.6308,-4.6308,-4.6308,-4.6308,-4.5117,-4.4922,-4.6211,-4.4707,-4.3945,-4.4355,-4.3945,-4.3496,-4.3086,-4.3047,-4.3476,-4.4375,-4.4805,-4.5234,-4.5683,-4.6113,-4.6308,-3.3778,-3.4289,-3.4371,-3.4189,-3.3492,-3.2226,-2.9865,-2.7971,0.0,0.0,-2.4885,-2.4612,-2.5297,0.0,0.0,0.0,0.0,0.0,0.0,0.0,0.0,0.0,0.0,0.0,0.0,0.0,0.0,-4.1191,-4.1191,-4.1191,-4.1191,-4.1797,-4.2148,-4.2148,-4.2812,-4.3164,-4.3164,-4.3164,-4.3164,-4.3164,-4.4023,-4.4531,-4.4746,-4.5625,-4.6129,-4.6306,-4.6306,-4.6303,-4.63,-4.63,-4.6295,-4.6307,-4.6308,-4.6308,-4.6308,-4.6308,-4.6308,-4.6308,-4.6308,-4.6308,-4.6308,-4.6308,-4.6308,-4.6308,-4.6308,-4.6172,-4.6016,-4.6016,-4.5898,-4.5742,-4.5742,-4.5234,-4.4844,-4.5351,-4.4805,-4.4043,-4.3535,-4.3418,-4.3476,-4.3652,-4.3691,-4.3867,-4.4355,-4.4609,-4.4941,-4.5644,-4.5742,-4.5566,-4.5058,-4.543,-4.5742,-4.5742,-4.5918,-4.5957,-4.5762,-4.4941,-4.4805,-4.5683,-4.4922,-4.4531,-4.4707,-4.4062,-4.3789,-4.3965,-4.3301,-4.3711,-4.5273,-4.5273,-4.5625,-4.6308,-4.6308,-4.6308,-3.2299,-3.2923,-3.3333,-3.2533,-3.1688,-3.0587,-2.883,0.0,0.0,-2.469,-2.4456,-2.4417,-2.4495,-2.5238,-2.639,0.0,0.0,-3.094,0.0,0.0,0.0,0.0,0.0,0.0,0.0,0.0,0.0,-4.1191,-4.1191,-4.1191,-4.1191,-4.1269,-4.1308,-4.1308,-4.1387,-4.1426,-4.1426,-4.1426,-4.1426,-4.1445,-4.2246,-4.3047,-4.3848,-4.4724,-4.5559,-4.63,-4.63,-4.6295,-4.63,-4.63,-4.6303,-4.6309,-4.6307,-4.6308,-4.6308,-4.6308,-4.6308,-4.6308,-4.6308,-4.6308,-4.6308,-4.6308,-4.6308,-4.6308,-4.6308,-4.5742,-4.5117,-4.5117,-4.4551,-4.3945,-4.3945,-4.3887,-4.3633,-4.293,-4.2148,-4.1738,-4.2383,-4.2519,-4.2754,-4.3555,-4.3691,-4.3476,-4.2754,-4.3301,-4.3848,-4.3926,-4.3945,-4.4199,-4.4902,-4.4375,-4.3945,-4.3945,-4.4648,-4.4805,-4.4004,-4.3144,-4.3008,-4.3887,-4.3125,-4.2988,-4.3789,-4.373,-4.4062,-4.4863,-4.4805,-4.5234,-4.6172,-4.6172,-4.6211,-4.6308,-4.6308,-4.6308,-3.1828,-3.2355,-3.2531,-3.2199,-3.1441,-3.0353,-2.8674,0.0,-2.4827,-2.4475,-2.3987,-2.3775,-2.43,-2.5102,-2.6097,-2.7325,-2.7372,0.0,0.0,0.0,0.0,0.0,0.0,0.0,0.0,0.0,-4.1191,-4.1191,-4.1191,-4.1191,-4.1191,-4.1191,-4.1191,-4.1191,-4.1191,-4.1191,-4.1191,-4.1191,-4.1191,-4.1211,-4.2012,-4.2578,-4.2949,-4.3821,-4.4692,-4.5528,-4.5528,-4.5829,-4.6303,-4.6295,-4.6306,-4.6303,-4.6307,-4.6308,-4.6308,-4.6308,-4.6308,-4.6308,-4.6308,-4.6308,-4.6211,-4.5683,-4.5527,-4.5527,-4.5527,-4.5273,-4.4883,-4.4375,-4.3965,-4.3691,-4.3691,-4.3691,-4.3359,-4.1992,-4.1797,-4.1875,-4.1719,-4.168,-4.1777,-4.2129,-4.2207,-4.2246,-4.2383,-4.2695,-4.3105,-4.3613,-4.3691,-4.3633,-4.3457,-4.3594,-4.3496,-4.2969,-4.418,-4.4648,-4.3769,-4.3379,-4.332,-4.3672,-4.2871,-4.2793,-4.3652,-4.3203,-4.332,-4.4199,-4.4219,-4.4648,-4.5527,-4.6035,-4.6308,-4.6308,-4.6308,-4.6308,-3.1036,-3.1524,-3.1719,-3.1719,-3.088,-2.9747,0.0,0.0,-2.4085,-2.4358,-2.3716,-2.3365,-2.4243,-2.5102,-2.5902,-2.6525,-2.6317,-2.7418,0.0,0.0,0.0,0.0,0.0,0.0,0.0,0.0,-4.1191,-4.1191,-4.1191,-4.1191,-4.1191,-4.1191,-4.1191,-4.1191,-4.1191,-4.1191,-4.1191,-4.1191,-4.1191,-4.1211,-4.1777,-4.2168,-4.2422,-4.3042,-4.3793,-4.4621,-4.4621,-4.4965,-4.5544,-4.5815,-4.5924,-4.5913,-4.5911,-4.6073,-4.623,-4.5723,-4.5683,-4.5879,-4.5625,-4.5527,-4.543,-4.4824,-4.4629,-4.457,-4.4316,-4.4238,-4.4101,-4.3496,-4.3144,-4.2969,-4.2969,-4.2969,-4.2656,-4.1484,-4.1621,-4.1894,-4.1328,-4.1191,-4.1191,-4.1191,-4.1191,-4.1387,-4.1953,-4.2051,-4.2324,-4.3183,-4.3105,-4.2812,-4.2441,-4.2734,-4.2734,-4.2109,-4.3359,-4.3984,-4.3379,-4.3105,-4.2969,-4.2969,-4.2383,-4.2422,-4.3281,-4.25,-4.2578,-4.3672,-4.3691,-4.4121,-4.5,-4.5879,-4.6308,-4.6308,-4.6308,-4.6308,-2.9613,-3.0216,-3.0801,-3.0801,-2.9552,-2.8323,0.0,-2.5609,-2.3365,-2.4222,-2.3716,-2.3365,-2.4245,-2.5102,-2.5707,-2.5707,-2.6429,0.0,0.0,0.0,0.0,0.0,0.0,0.0,0.0,0.0,-4.1191,-4.1191,-4.1191,0.0,-4.1191,-4.1191,-4.1191,-4.1191,-4.1191,-4.1191,-4.1191,-4.1191,-4.1191,-4.1191,-4.1211,-4.1621,-4.2402,-4.2402,-4.2887,-4.3707,-4.3704,-4.372,-4.3782,-4.4665,-4.5014,-4.5012,-4.5012,-4.5538,-4.6094,-4.4355,-4.4277,-4.4883,-4.4023,-4.373,-4.373,-4.3711,-4.3711,-4.3555,-4.2695,-4.2422,-4.2422,-4.2422,-4.1836,-4.123,-4.123,-4.123,-4.1211,-4.1191,-4.1211,-4.1211,-4.1191,-4.1191,-4.1191,-4.1191,-4.1191,-4.1191,-4.1211,-4.1211,-4.1484,-4.2285,-4.1738,-4.1504,-4.2305,-4.1719,-4.1211,-4.1211,-4.1933,-4.2422,-4.2402,-4.168,-4.123,-4.123,-4.1211,-4.1562,-4.2383,-4.1641,-4.1992,-4.3672,-4.3691,-4.4121,-4.5,-4.5879,-4.6308,-4.6308,-4.6308,-4.6308,-2.7661,-2.844,-2.8947,-2.8342,-2.7795,-2.7405,-2.7405,-2.518,-2.3345,-2.4222,-2.3716,-2.3365,-2.4245,-2.5102,-2.6097,-2.727,-2.7709,-2.8808,0.0,0.0,0.0,0.0,0.0,0.0,0.0,0.0,-4.1191,-4.1191,-4.1191,-4.1191,-4.1191,-4.1191,-4.1191,-4.1191,-4.1191,-4.1191,-4.1191,-4.1191,-4.1191,-4.1191,-4.1191,-4.1328,-4.1582,-4.1523,-4.1992,-4.281,-4.2804,-4.3156,-4.3728,-4.4,-4.4117,-4.4117,-4.4103,-4.4288,-4.4453,-4.3906,-4.3867,-4.4062,-4.3808,-4.3691,-4.3594,-4.3008,-4.2812,-4.2656,-4.1836,-4.1953,-4.2285,-4.1738,-4.1406,-4.1191,-4.1191,-4.1191,-4.1191,-4.1191,-4.1191,-4.1191,-4.1191,-4.1191,-4.1191,-4.1191,-4.1191,-4.1191,-4.1191,-4.1191,-4.1289,-4.1543,-4.1367,-4.1289,-4.1543,-4.1367,-4.1406,-4.1953,-4.1758,-4.1582,-4.1582,-4.1855,-4.1797,-4.123,-4.1191,-4.1308,-4.1562,-4.1348,-4.1445,-4.1973,-4.2539,-4.3242,-4.4101,-4.498,-4.5723,-4.6308,-4.6308,-4.6308,0.0,-2.6898,-2.7678,-2.7134,-2.6743,-2.6507,-2.6507,-2.4516,-2.2896,-2.3735,-2.3482,-2.3366,-2.4248,-2.511,-2.6068,-2.7143,-2.7597,-2.8711,0.0,0.0,0.0,0.0,0.0,0.0,0.0,-4.1016,-4.1191,-4.1191,-4.1191,-4.1191,-4.1191,-4.1191,-4.1191,-4.1191,-4.1191,-4.1191,-4.1191,-4.1191,-4.1191,-4.1191,-4.1191,-4.1191,-4.1191,-4.1152,-4.1426,-4.1953,-4.1952,-4.2265,0.0,-4.3084,-4.322,-4.3219,-4.3214,-4.3411,-4.3629,-4.2965,-4.2926,-4.3161,-4.2832,-4.2715,-4.2637,-4.2129,-4.1953,-4.1855,-4.1348,-4.1543,-4.1836,-4.1348,-4.1191,-4.1191,-4.1191,-4.1191,-4.1191,-4.1191,-4.1191,-4.1191,-4.1191,-4.1191,-4.1191,-4.1191,-4.1191,-4.1191,-4.1191,-4.1191,-4.1191,-4.1191,-4.1191,-4.1191,-4.1191,-4.1191,-4.1387,-4.1894,-4.1504,-4.1191,-4.1191,-4.166,-4.1738,-4.123,-4.1191,-4.1191,-4.1191,-4.1191,-4.1348,-4.1641,-4.2461,-4.332,-4.4199,-4.5078,-4.5762,-4.6308,-4.6308,-4.6308,0.0,-2.5356,-2.6704,-2.6646,-2.6078,-2.5512,-2.5512,-2.3638,0.0,-2.2935,-2.3091,-2.3387,-2.4312,-2.5155,-2.5762,-2.5957,-2.666,0.0,0.0,0.0,0.0,0.0,0.0,0.0,-3.998,-4.0723,-4.1191,-4.1191,-4.1191,-4.1191,-4.1191,-4.1191,-4.1191,-4.1191,-4.1191,-4.1191,-4.1191,-4.1191,-4.1191,-4.1191,-4.1191,-4.1191,-4.1191,-4.1191,-4.1191,-4.1191,-4.1191,-4.1191,-4.1269,-4.2012,-4.2301,-4.2307,-4.2303,-4.2807,-4.3317,-4.1696,-4.1618,-4.2187,-4.1385,-4.1094,-4.1113,-4.1172,-4.1191,-4.1191,-4.1191,-4.1191,-4.1191,-4.1191,-4.1191,-4.1191,-4.1191,-4.1191,-4.1191,-4.1191,-4.1191,-4.1191,-4.1191,-4.1191,-4.1191,-4.1191,-4.1191,-4.1191,-4.1191,-4.1191,-4.1191,-4.1191,-4.1191,-4.1191,-4.1191,-4.1191,-4.1191,-4.1191,-4.1191,-4.1191,-4.1191,-4.1191,-4.1191,-4.1191,-4.1191,-4.1191,-4.1191,-4.125,-4.1641,-4.2383,-4.332,-4.4199,-4.5,-4.5879,-4.6308,-4.6308,-4.6308,-4.6308,-2.0144,0.0,-2.3872,-2.3247,-2.3404,-2.3716,0.0,-2.2779,-2.2133,0.0,0.0,-2.3563,-2.5105,-2.5564,-2.6348,-2.8359,-2.8867,0.0,0.0,0.0,0.0,0.0,0.0,0.0,-4.0898,-4.1074,-4.1191,-4.1191,-4.1191,-4.1191,-4.1191,-4.1191,-4.1191,-4.1191,-4.1191,-4.1191,-4.1191,-4.1191,-4.1191,-4.1191,-4.1191,-4.1191,-4.1191,-4.1191,-4.1191,-4.1191,-4.1191,-4.1191,-4.1211,-4.1406,-4.1484,-4.1483,-4.1435,-4.1526,-4.1657,-4.1244,-4.1225,-4.1384,-4.1175,-4.1105,-4.1111,-4.1172,-4.1172,-4.1113,-4.1123,-4.1168,-4.1191,-4.1191,-4.1191,-4.1191,-4.1191,-4.1191,-4.1191,-4.1191,-4.1191,-4.1191,-4.1191,-4.1191,-4.1191,-4.1191,-4.1191,-4.1191,-4.1191,-4.1191,-4.1191,-4.1191,-4.1191,-4.1191,-4.1191,-4.1191,-4.1191,-4.1191,-4.1191,-4.1191,-4.1191,-4.1191,-4.1191,-4.1191,-4.1191,-4.1191,-4.1191,-4.1797,-4.2207,-4.2402,-4.3906,-4.4805,-4.5,-4.5879,-4.6308,-4.6308,-4.6308,-4.6308,-1.798,-2.0283,-2.2527,-2.2468,-2.2779,-2.3091,-2.3091,0.0,0.0,0.0,0.0,0.0,-2.4323,0.0,0.0,-2.8183,-2.9082,0.0,0.0,0.0,0.0,0.0,0.0,-4.1191,0.0,-4.1191,-4.1191,-4.1191,-4.1191,-4.1191,-4.1191,-4.1191,-4.1191,-4.1191,-4.1191,-4.1191,-4.1191,-4.1191,-4.1191,-4.1191,-4.1191,-4.1191,-4.1191,-4.1191,-4.1191,-4.1191,-4.1191,-4.1191,-4.1191,-4.1191,-4.1172,-4.1152,-4.1149,-4.114,-4.1108,-4.1108,-4.1108,-4.1108,-4.1108,-4.1099,-4.1107,-4.1147,-4.1129,-4.1091,-4.1103,-4.1123,-4.1149,-4.1152,-4.1172,-4.1191,-4.1191,-4.1191,-4.1191,-4.1191,-4.1191,-4.1191,-4.1191,-4.1191,-4.1191,-4.1191,-4.1191,-4.1191,-4.1191,-4.1191,-4.1191,-4.1191,-4.1191,-4.1191,-4.1191,-4.1191,-4.1191,-4.1191,-4.1191,-4.1191,-4.1191,-4.1191,-4.1191,-4.1191,-4.1191,-4.1191,-4.1191,-4.1621,-4.2012,-4.2383,-4.3711,-4.4609,-4.5,-4.5469,-4.5918,-4.6308,-4.6308,-4.6308,-1.6989,-1.935,-2.1865,-2.2549,-2.2919,-2.3093,-2.3093,0.0,0.0,0.0,0.0,0.0,0.0,0.0,0.0,0.0,0.0,0.0,0.0,0.0,0.0,0.0,0.0,0.0,-4.1191,-4.1191,-4.1191,-4.1191,-4.1191,-4.1191,-4.1191,-4.1191,-4.1191,-4.1191,-4.1191,-4.1191,-4.1191,-4.1191,-4.1191,-4.1191,-4.1191,-4.1191,-4.1191,-4.1191,-4.1191,-4.1191,-4.1191,-4.1191,-4.1191,-4.1191,-4.1152,-4.1113,-4.1171,-4.1166,-4.1108,-4.1108,-4.1108,-4.1108,-4.1108,-4.1097,-4.1103,-4.1094,-4.1097,-4.1105,-4.1105,-4.1099,-4.1094,-4.1091,-4.1132,-4.1172,-4.1171,-4.1172,-4.1172,-4.1172,-4.1191,-4.1191,-4.1191,-4.1191,-4.1191,-4.1191,-4.1191,-4.1191,-4.1191,-4.1191,-4.1191,-4.1191,-4.1191,-4.1191,-4.1191,-4.1191,-4.1191,-4.1191,-4.1191,-4.1191,-4.1191,-4.1191,-4.1191,-4.1191,-4.1191,-4.1269,-4.1387,-4.1387,-4.1777,-4.2578,-4.332,-4.4062,-4.4805,-4.4941,-4.5371,-4.6094,-4.623,-4.6308,-1.8299,-1.982,-2.0835,-2.0952,-2.2046,-2.3101,-2.3101,0.0,0.0,0.0,0.0,0.0,0.0,0.0,0.0,0.0,0.0,0.0,0.0,0.0,0.0,0.0,0.0,-4.1191,-4.1191,-4.1191,-4.1191,-4.1191,-4.1191,-4.1191,-4.1191,-4.1191,-4.1191,-4.1191,-4.1191,-4.1191,-4.1191,-4.1191,-4.1191,-4.1191,-4.1191,-4.1191,-4.1191,-4.1191,-4.1191,-4.1191,-4.1191,-4.1191,-4.1191,-4.1191,-4.1169,-4.1116,-4.1175,-4.1153,-4.1108,-4.1108,-4.1108,-4.1108,-4.1108,-4.1091,-4.1091,-4.1111,-4.1091,-4.1094,-4.1094,-4.1091,-4.1091,-4.1094,-4.1103,-4.1126,-4.1119,-4.1128,-4.1113,-4.1113,-4.1152,-4.1191,-4.1191,-4.1191,-4.1191,-4.1191,-4.1191,-4.1191,-4.1191,-4.1191,-4.1191,-4.1191,-4.1191,-4.1191,-4.1191,-4.1191,-4.1191,-4.1191,-4.1191,-4.1191,-4.1191,-4.1191,-4.1191,-4.1191,-4.1191,-4.1504,-4.2187,-4.2226,-4.2617,-4.3476,-4.3633,-4.3769,-4.3906,-4.4648,-4.5078,-4.5215,-4.5957,-4.6308,-1.6875,-1.8515,-2.0019,-2.0487,-2.2206,-2.3808,-2.3808,0.0,0.0,0.0,0.0,0.0,0.0,0.0,0.0,0.0,0.0,0.0,0.0,0.0,-3.7617,0.0,0.0,-4.0684,-4.1152,-4.1191,-4.1191,-4.1191,-4.1191,-4.1191,-4.1191,-4.1191,-4.1191,-4.1191,-4.1191,-4.1191,-4.1191,-4.1191,-4.1191,-4.1191,-4.1191,-4.1191,-4.1191,-4.1191,-4.1191,-4.1191,-4.1191,-4.1191,-4.1191,-4.1168,-4.116,-4.1147,-4.1147,-4.1133,-4.1099,-4.1091,-4.1108,-4.1108,-4.1108,-4.1108,-4.1108,-4.1108,-4.1108,-4.1108,-4.1108,-4.1108,-4.1108,-4.1108,-4.1099,-4.1105,-4.1094,-4.1099,-4.1108,-4.1094,-4.1113,-4.1151,-4.1191,-4.1172,-4.1152,-4.1191,-4.1191,-4.1191,-4.1191,-4.1191,-4.1191,-4.1191,-4.1191,-4.1191,-4.1191,-4.1191,-4.1191,-4.1191,-4.1191,-4.1191,-4.1191,-4.1191,-4.1191,-4.1191,-4.1191,-4.1367,-4.1738,-4.1758,-4.1933,-4.2344,-4.2344,-4.2558,-4.3008,-4.3398,-4.3848,-4.4316,-4.5195,-4.5351,-1.5898,-1.7617,-1.9551,-2.0644,-2.2676,-2.4512,-2.4922,0.0,0.0,0.0,0.0,0.0,0.0,0.0,0.0,0.0,0.0,0.0,-3.4844,-3.6328,-3.7559,-3.8223,-3.9062,-3.9863,-4.0527,-4.0781,-4.0898,-4.0898,-4.1074,-4.1191,-4.1191,-4.1191,-4.1191,-4.1191,-4.1191,-4.1191,-4.1191,-4.1191,-4.1191,-4.1191,-4.1191,-4.1191,-4.1191,-4.1191,-4.1191,-4.1191,-4.1171,-4.117,-4.117,-4.1119,-4.1127,-4.1166,-4.1127,-4.1097,-4.1103,-4.1094,-4.1108,-4.1108,-4.1108,-4.1108,-4.1108,-4.1108,-4.1108,-4.1108,-4.1108,-4.1108,-4.1108,-4.1108,-4.1097,-4.1101,-4.1091,-4.1108,-4.1094,-4.109,-4.1091,-4.111,-4.117,-4.1152,-4.1133,-4.1191,-4.1191,-4.1191,-4.1191,-4.1191,-4.1191,-4.1191,-4.1191,-4.1191,-4.1191,-4.1191,-4.1191,-4.1191,-4.1191,-4.1191,-4.1191,-4.1191,-4.1191,-4.1191,-4.1191,-4.1191,-4.1191,-4.1191,-4.1191,-4.1191,-4.1191,-4.1504,-4.2129,-4.2305,-4.2734,-4.3418,-4.4297,-4.4336,-1.7363,-1.8535,-1.9707,-2.1387,-2.3105,0.0,-2.6445,-2.6758,0.0,0.0,0.0,0.0,0.0,0.0,0.0,0.0,0.0,-3.3984,-3.5664,0.0,-3.7324,-3.7383,-3.8164,-3.8711,-3.8789,-3.9512,-3.998,-3.998,-4.0742,-4.1191,-4.1191,-4.1191,-4.1191,-4.1191,-4.1191,-4.1191,-4.1191,-4.1191,-4.1191,-4.1191,-4.1191,-4.1191,-4.1191,-4.1191,-4.1191,-4.1191,-4.1123,-4.1114,-4.1111,-4.1091,-4.1108,-4.1108,-4.1108,-4.1111,-4.1091,-4.1111,-4.1108,-4.1108,-4.1108,-4.1108,-4.1108,-4.1108,-4.1108,-4.1108,-4.1108,-4.1108,-4.1108,-4.1108,-4.1091,-4.1091,-4.1108,-4.1108,-4.1111,-4.1091,-4.1108,-4.1093,-4.1119,-4.1147,-4.1191,-4.1191,-4.1191,-4.1191,-4.1191,-4.1191,-4.1191,-4.1191,-4.1191,-4.1191,-4.1191,-4.1191,-4.1191,-4.1191,-4.1191,-4.1191,-4.1191,-4.1191,-4.1191,-4.1191,-4.1191,-4.1191,-4.1191,-4.1191,-4.1191,-4.1191,-4.1191,-4.123,-4.1289,-4.2031,-4.2422,-4.2519,-4.3398,-4.3769,-1.6191,-1.7812,-1.959,-2.0781,0.0,0.0,0.0,0.0,0.0,0.0,-2.8301,0.0,0.0,0.0,0.0,0.0,0.0,-3.4004,-3.5742,-3.6289,-3.6699,-3.7246,-3.7598,-3.8008,-3.8555,-3.8906,-3.9082,-3.9082,-3.9394,-3.9824,-4.0351,-3.9883,-4.0078,-4.1172,-4.0664,-4.0644,-4.1191,-4.1191,-4.1191,-4.1191,-4.1191,-4.1191,-4.1191,-4.1191,-4.1191,-4.1191,-4.1121,-4.1108,-4.1108,-4.1108,-4.1094,-4.1101,-4.1094,-4.1108,-4.1108,-4.1108,-4.1108,-4.1108,-4.1108,-4.1108,-4.1108,-4.1108,-4.1108,-4.1108,-4.1108,-4.1108,-4.1108,-4.1108,-4.1108,-4.1108,-4.1108,-4.1108,-4.1108,-4.1108,-4.1097,-4.1105,-4.1149,-4.1146,-4.1146,-4.1191,-4.1191,-4.1191,-4.1191,-4.1163,-4.114,-4.114,-4.1143,-4.1133,-4.1133,-4.1172,-4.1191,-4.1191,-4.1191,-4.1191,-4.1191,-4.1191,-4.1191,-4.1191,-4.1191,-4.1191,-4.1191,-4.1191,-4.1191,-4.1191,-4.1191,-4.1191,-4.1191,-4.1504,-4.1641,-4.168,-4.25,-4.2617,-1.5801,-1.7715,-1.9844,-2.0449,0.0,0.0,0.0,0.0,0.0,0.0,-2.9121,0.0,0.0,0.0,0.0,0.0,-3.3398,-3.4004,-3.5742,-3.5996,-3.6211,-3.6816,-3.6894,-3.7129,-3.7715,-3.8027,-3.8184,-3.8184,-3.8437,-3.8867,-3.9453,-3.8926,-3.9141,-4.0332,-3.9805,-3.9785,-4.0371,-4.0371,-4.0371,-4.0371,-4.0664,-4.0937,-4.1191,-4.1191,-4.1191,-4.1191,-4.1121,-4.1108,-4.1108,-4.1108,-4.1094,-4.1101,-4.1094,-4.1108,-4.1108,-4.1108,-4.1108,-4.1108,-4.1108,-4.1108,-4.1091,-4.1097,-4.1099,-4.1099,-4.1099,-4.1099,-4.1097,-4.1091,-4.1108,-4.1108,-4.1108,-4.1108,-4.1108,-4.1108,-4.1091,-4.1119,-4.1169,-4.1125,-4.1101,-4.1152,-4.1172,-4.117,-4.116,-4.1138,-4.1093,-4.1074,-4.1062,-4.1062,-4.1062,-4.1103,-4.1142,-4.1142,-4.1142,-4.1147,-4.1172,-4.1172,-4.1172,-4.1191,-4.1191,-4.1191,-4.1191,-4.1191,-4.1191,-4.1191,-4.1191,-4.1191,-4.1191,-4.1191,-4.1191,-4.1211,-4.1758,-4.1738,-1.6699,-1.8613,-2.0605,0.0,0.0,0.0,0.0,0.0,0.0,0.0,0.0,-3.0898,-3.0898,0.0,0.0,-3.3125,-3.3398,-3.4004,-3.5742,-3.5996,-3.5996,-3.5996,-3.5996,-3.5996,-3.5996,-3.6777,-3.7285,-3.7285,-3.8086,-3.8574,-3.8594,-3.8574,-3.8574,-3.8594,-3.8594,-3.8594,-3.8594,-3.8594,-3.8594,-3.8613,-3.9473,-4.0332,-4.1191,-4.1191,-4.1191,-4.1191,-4.1121,-4.1108,-4.1108,-4.1108,-4.1108,-4.1108,-4.1108,-4.1108,-4.1108,-4.1108,-4.1108,-4.1108,-4.1108,-4.1108,-4.1094,-4.1108,-4.1092,-4.1092,-4.1092,-4.1092,-4.111,-4.1097,-4.1108,-4.1108,-4.1108,-4.1108,-4.1108,-4.1111,-4.1097,-4.1101,-4.1101,-4.1105,-4.111,-4.1094,-4.1094,-4.1094,-4.1098,-4.1093,-4.1074,-4.1016,-4.0996,-4.1001,-4.0993,-4.1007,-4.1007,-4.1007,-4.1007,-4.1037,-4.1093,-4.1094,-4.1133,-4.1191,-4.1191,-4.1191,-4.1191,-4.1191,-4.1191,-4.1191,-4.1191,-4.1191,-4.1191,-4.1191,-4.1191,-4.1191,-4.1191,-4.1191,-1.6699,-1.8613,0.0,0.0,0.0,0.0,0.0,0.0,0.0,0.0,0.0,-3.0891,-3.0896,0.0,0.0,-3.2303,-3.3006,-3.3786,-3.4938,-3.5605,-3.5996,-3.5996,-3.5996,-3.5996,-3.5996,-3.623,-3.6387,-3.6387,-3.6621,-3.7031,-3.7656,-3.7109,-3.7324,-3.8555,-3.8008,-3.7988,-3.8594,-3.8594,-3.8592,-3.8602,-3.8856,-3.9442,-4.0301,-4.0867,-4.1125,-4.1129,-4.1116,-4.1108,-4.1108,-4.1108,-4.1108,-4.1108,-4.1108,-4.1108,-4.1108,-4.1108,-4.1108,-4.1108,-4.1108,-4.1099,-4.1108,-4.1091,-4.1094,-4.1092,-4.1092,-4.1094,-4.1091,-4.1108,-4.1099,-4.1094,-4.1105,-4.1099,-4.1094,-4.111,-4.1103,-4.1094,-4.1094,-4.1094,-4.1097,-4.1101,-4.1069,-4.1022,-4.1042,-4.0983,-4.0958,-4.0938,-4.0938,-4.0943,-4.0992,-4.1003,-4.1022,-4.108,-4.108,-4.1111,-4.1168,-4.1163,-4.1172,-4.1191,-4.1191,-4.1175,-4.1127,-4.1129,-4.1136,-4.1133,-4.1133,-4.1152,-4.1191,-4.1191,-4.1191,-4.1191,-4.1191,-4.1191,-1.7967,-1.9899,0.0,0.0,0.0,0.0,0.0,0.0,0.0,0.0,0.0,-3.0901,-3.0907,-3.0909,0.0,-3.1963,-3.2549,-3.3193,-3.4053,-3.4643,-3.5095,-3.5449,-3.5488,-3.5625,-3.5976,-3.5996,-3.5996,-3.5993,-3.5992,-3.6228,-3.6758,-3.6289,-3.6484,-3.7539,-3.7069,-3.7048,-3.7555,-3.7577,-3.7575,-3.7565,-3.7909,-3.8355,-3.8902,-3.9722,-4.0118,-4.0125,-4.0469,-4.062,-4.0659,-4.0971,-4.1108,-4.1108,-4.1108,-4.1108,-4.1108,-4.1108,-4.1094,-4.1101,-4.1101,-4.111,-4.1094,-4.1092,-4.1105,-4.1097,-4.1097,-4.1105,-4.1091,-4.1094,-4.1091,-4.1105,-4.1093,-4.1093,-4.109,-4.1093,-4.1105,-4.1108,-4.1108,-4.1108,-4.1094,-4.1103,-4.1068,-4.1028,-4.0964,-4.0937,-4.0897,-4.0861,-4.0848,-4.0868,-4.0919,-4.0938,-4.0977,-4.0977,-4.102,-4.1072,-4.1111,-4.1149,-4.1179,-4.1191,-4.1186,-4.1148,-4.1108,-4.1139,-4.115,-4.1145,-4.1144,-4.1152,-4.1191,-4.1191,-4.1191,-4.1191,-4.1191,-4.1191,-1.9791,0.0,0.0,0.0,0.0,0.0,0.0,0.0,0.0,0.0,0.0,-3.0899,-3.0899,-3.0899,-3.1133,-3.1856,-3.2051,-3.2383,-3.3163,-3.3358,-3.3697,-3.4492,-3.4588,-3.4899,-3.5683,-3.584,-3.5877,-3.5879,-3.5955,-3.6003,-3.5996,-3.5996,-3.5996,-3.5996,-3.6007,-3.5994,-3.5991,-3.6005,-3.601,-3.6009,-3.6799,-3.7184,-3.7204,-3.816,-3.8593,-3.8632,-3.9449,-3.978,-3.9839,-4.0561,-4.0873,-4.0873,-4.0873,-4.0873,-4.0873,-4.0952,-4.0984,-4.0994,-4.1072,-4.1094,-4.1105,-4.1104,-4.109,-4.1109,-4.1109,-4.109,-4.1097,-4.1101,-4.1093,-4.1094,-4.1108,-4.1107,-4.111,-4.1094,-4.1108,-4.1099,-4.1099,-4.1097,-4.1101,-4.1094,-4.109,-4.1042,-4.0926,-4.0907,-4.0876,-4.0815,-4.0803,-4.0815,-4.0803,-4.0861,-4.0873,-4.0827,-4.0935,-4.1,-4.1025,-4.1072,-4.1143,-4.1191,-4.1132,-4.1101,-4.1108,-4.1146,-4.119,-4.119,-4.1189,-4.119,-4.1191,-4.1191,-4.1191,-4.1191,-4.1191,-4.1191,-1.9062,-2.0839,0.0,0.0,0.0,0.0,0.0,0.0,0.0,0.0,-3.0862,-3.088,-3.0841,-3.0821,-3.088,-3.1055,-3.1641,-3.2168,-3.2343,-3.2968,-3.348,-3.366,-3.3685,-3.3743,-3.3934,-3.4583,-3.4976,-3.4972,-3.5608,-3.5994,-3.6001,-3.6009,-3.5993,-3.5993,-3.601,-3.6003,-3.5994,-3.5996,-3.5996,-3.5996,-3.6189,-3.6286,-3.6325,-3.7887,-3.8593,-3.8612,-3.8804,-3.8882,-3.8882,-3.9078,-3.9139,-3.9139,-3.9139,-3.9139,-3.9214,-3.9858,-4.0076,-4.0179,-4.0855,-4.1094,-4.1105,-4.1104,-4.1096,-4.1103,-4.1103,-4.1091,-4.1094,-4.1101,-4.1099,-4.1108,-4.1091,-4.1097,-4.1105,-4.1094,-4.1094,-4.1099,-4.1099,-4.1108,-4.1093,-4.109,-4.1049,-4.1008,-4.0974,-4.0941,-4.0878,-4.0815,-4.0848,-4.0858,-4.0815,-4.0865,-4.0917,-4.0957,-4.1024,-4.1107,-4.1142,-4.1179,-4.1182,-4.1191,-4.119,-4.1141,-4.1102,-4.1056,-4.1074,-4.1112,-4.1119,-4.1143,-4.1191,-4.1191,-4.1191,-4.1191,-4.1191,-4.1191,0.0,0.0,0.0,0.0,0.0,0.0,0.0,0.0,0.0,0.0,-3.0841,-3.0841,-3.0801,-3.0801,-3.0801,-3.0801,-3.1172,-3.1485,-3.1485,-3.1875,-3.2304,-3.2736,-3.278,-3.2938,-3.3361,-3.3814,-3.4072,-3.4072,-3.4496,-3.4764,-3.4764,-3.514,-3.5378,-3.5378,-3.5788,-3.6001,-3.5991,-3.5991,-3.5991,-3.5991,-3.5991,-3.5991,-3.603,-3.6931,-3.736,-3.7379,-3.7809,-3.7985,-3.8004,-3.8436,-3.8593,-3.8593,-3.8593,-3.8593,-3.8651,-3.9078,-3.9207,-3.9237,-3.9707,-3.9856,-3.9923,-4.0335,-4.0485,-4.0565,-4.0974,-4.1109,-4.1106,-4.1106,-4.1094,-4.1108,-4.1096,-4.1094,-4.1108,-4.1096,-4.1105,-4.1104,-4.1091,-4.1104,-4.1104,-4.1105,-4.1074,-4.1045,-4.1017,-4.0945,-4.0898,-4.0849,-4.0869,-4.0898,-4.0849,-4.0877,-4.0898,-4.0904,-4.1018,-4.1095,-4.1108,-4.1168,-4.1191,-4.1191,-4.1168,-4.1155,-4.1144,-4.1074,-4.1061,-4.1104,-4.1124,-4.1163,-4.1191,-4.1191,-4.1191,-4.1191,-4.1191,-4.1191,0.0,0.0,0.0,0.0,0.0,0.0,0.0,0.0,0.0,-3.0801,-3.0801,-3.0801,-3.0801,-3.0801,-3.0801,-3.0801,-3.0801,-3.0801,-3.0801,-3.0801,-3.1075,-3.1797,-3.1875,-3.2168,-3.2873,-3.3088,-3.3185,-3.3185,-3.3302,-3.3398,-3.3398,-3.4078,-3.4488,-3.4488,-3.5171,-3.5542,-3.5542,-3.5542,-3.5545,-3.5547,-3.5703,-3.5782,-3.5782,-3.5935,-3.5991,-3.603,-3.6755,-3.7087,-3.7126,-3.7848,-3.8141,-3.8141,-3.8141,-3.8141,-3.816,-3.8316,-3.8335,-3.8318,-3.8452,-3.8509,-3.8619,-3.9343,-3.9571,-3.9708,-4.0429,-4.0643,-4.0643,-4.0643,-4.0652,-4.0647,-4.0655,-4.0652,-4.0647,-4.0649,-4.0779,-4.0929,-4.1077,-4.11,-4.1095,-4.1091,-4.11,-4.1071,-4.1031,-4.0972,-4.0926,-4.0917,-4.0926,-4.0926,-4.0907,-4.0908,-4.0907,-4.0848,-4.0998,-4.1072,-4.1047,-4.1125,-4.1191,-4.1191,-4.1133,-4.1127,-4.117,-4.1141,-4.1111,-4.1099,-4.117,-4.1191,-4.1191,-4.1191,-4.1191,-4.1191,-4.1191,-4.1191,0.0,0.0,0.0,0.0,0.0,0.0,0.0,0.0,0.0,0.0,-3.0801,-3.0801,-3.0801,-3.0801,-3.0801,-3.0801,-3.0801,-3.0801,-3.0801,-3.0801,-3.0841,-3.0958,-3.0977,-3.1016,-3.1133,-3.1836,-3.2265,-3.2265,-3.2968,-3.3398,-3.3398,-3.3512,-3.3571,-3.3571,-3.369,-3.3749,-3.3749,-3.3749,-3.3756,-3.3766,-3.4508,-3.4879,-3.4898,-3.5667,-3.5991,-3.601,-3.613,-3.6169,-3.6189,-3.6306,-3.6345,-3.6345,-3.6345,-3.6345,-3.6443,-3.7204,-3.746,-3.7567,-3.826,-3.8506,-3.8517,-3.8639,-3.8675,-3.8694,-3.8811,-3.885,-3.885,-3.885,-3.8856,-3.8856,-3.885,-3.8856,-3.8856,-3.885,-3.9421,-4.0187,-4.0933,-4.1097,-4.1091,-4.1109,-4.1097,-4.111,-4.1091,-4.1085,-4.1045,-4.0996,-4.1038,-4.103,-4.0917,-4.0945,-4.0974,-4.0976,-4.1062,-4.1124,-4.1167,-4.1147,-4.1142,-4.1191,-4.1133,-4.1093,-4.1107,-4.1157,-4.1168,-4.1108,-4.1175,-4.1191,-4.1191,-4.1191,-4.1191,-4.1191,-4.1191,-4.1191,0.0,0.0,0.0,0.0,0.0,0.0,0.0,0.0,0.0,-3.0138,-3.0489,-3.0801,-3.0801,-3.0801,-3.0801,-3.0801,-3.0801,-3.0801,-3.0801,-3.0801,-3.0801,-3.0801,-3.0801,-3.0801,-3.0801,-3.1153,-3.1368,-3.1368,-3.1738,-3.1934,-3.1934,-3.2402,-3.2675,-3.2675,-3.3153,-3.341,-3.341,-3.3395,-3.3398,-3.3398,-3.3789,-3.3965,-3.4004,-3.4863,-3.5544,-3.6009,-3.6009,-3.5992,-3.5995,-3.5995,-3.5995,-3.5995,-3.5991,-3.6009,-3.6046,-3.6426,-3.6571,-3.6621,-3.699,-3.7072,-3.7125,-3.7615,-3.7779,-3.7857,-3.8344,-3.85,-3.85,-3.85,-3.85,-3.85,-3.85,-3.85,-3.85,-3.85,-3.8792,-3.9318,-4.0175,-4.076,-4.111,-4.111,-4.1089,-4.11,-4.1091,-4.111,-4.1085,-4.1071,-4.1045,-4.103,-4.0952,-4.0936,-4.0937,-4.0937,-4.1036,-4.1098,-4.1135,-4.1144,-4.1167,-4.1203,-4.1171,-4.1152,-4.1152,-4.1179,-4.1198,-4.1151,-4.1183,-4.1191,-4.1191,-4.1191,-4.1191,-4.1191,-4.1191,-4.1191,0.0,0.0,0.0,0.0,0.0,0.0,0.0,0.0,-2.9008,0.0,-2.9569,-2.9899,-3.0094,-3.0504,-3.0794,-3.081,-3.0794,-3.0796,-3.0796,-3.0799,-3.0801,-3.0801,-3.0801,-3.0801,-3.0801,-3.0801,-3.0801,-3.0801,-3.0801,-3.0801,-3.0801,-3.1426,-3.176,-3.1764,-3.2397,-3.2733,-3.2734,-3.2732,-3.2748,-3.2748,-3.2962,-3.306,-3.3099,-3.3961,-3.4724,-3.5351,-3.5801,-3.5996,-3.5991,-3.5991,-3.5991,-3.5992,-3.5996,-3.5995,-3.5996,-3.6007,-3.5995,-3.5991,-3.5987,-3.5946,-3.6002,-3.6654,-3.6863,-3.6999,-3.7642,-3.7837,-3.7837,-3.7837,-3.7837,-3.7837,-3.7837,-3.7837,-3.7837,-3.7837,-3.8013,-3.848,-3.9552,-4.0487,-4.111,-4.111,-4.11,-4.1091,-4.1097,-4.111,-4.1085,-4.1078,-4.103,-4.0988,-4.098,-4.0926,-4.0917,-4.0927,-4.1013,-4.1075,-4.1093,-4.1128,-4.1151,-4.116,-4.1168,-4.1152,-4.1191,-4.1191,-4.1208,-4.1189,-4.1205,-4.1191,-4.1191,-4.1191,-4.1191,-4.1191,-4.1191,-4.1191,0.0,0.0,0.0,0.0,0.0,0.0,0.0,0.0,0.0,-2.8205,-2.7747,-2.7426,-2.819,-2.9689,-3.0794,-3.0808,-3.0806,-3.0801,-3.0801,-3.0794,-3.0801,-3.0801,-3.0801,-3.0801,-3.0801,-3.0801,-3.0801,-3.0801,-3.0801,-3.0801,-3.0801,-3.0841,-3.0866,-3.0877,-3.0916,-3.0937,-3.0934,-3.094,-3.093,-3.095,-3.1772,-3.2163,-3.2202,-3.3079,-3.3488,-3.3629,-3.5284,-3.5992,-3.5991,-3.5991,-3.5991,-3.5992,-3.5996,-3.5996,-3.5993,-3.5996,-3.5996,-3.5989,-3.5932,-3.5903,-3.5916,-3.5938,-3.5967,-3.5986,-3.6025,-3.6045,-3.6045,-3.6045,-3.6045,-3.6045,-3.6045,-3.6045,-3.6045,-3.6045,-3.6668,-3.774,-3.9435,-4.0487,-4.111,-4.111,-4.1091,-4.1091,-4.111,-4.111,-4.1078,-4.1003,-4.0996,-4.098,-4.0917,-4.091,-4.0928,-4.0981,-4.1,-4.1038,-4.1086,-4.1049,-4.1046,-4.1094,-4.1052,-4.1072,-4.1191,-4.1191,-4.1191,-4.119,-4.1191,-4.1191,-4.1191,-4.1191,-4.1191,-4.1191,-4.1191,-4.1191,0.0,0.0,0.0,0.0,0.0,0.0,0.0,-2.6195,-2.6937,-2.6674,-2.7234,-2.7693,-2.7413,-2.8786,-2.9979,-2.997,-3.0442,-3.0802,-3.0798,-3.0804,-3.0791,-3.0799,-3.0801,-3.0801,-3.0801,-3.0801,-3.0801,-3.0801,-3.0801,-3.0801,-3.0801,-3.0801,-3.0808,-3.0799,-3.0801,-3.0793,-3.0798,-3.081,-3.0802,-3.0802,-3.1114,-3.1274,-3.1293,-3.2163,-3.2572,-3.2639,-3.3821,-3.4332,-3.4371,-3.4897,-3.5092,-3.5155,-3.5723,-3.5942,-3.5938,-3.5972,-3.597,-3.5935,-3.5907,-3.5908,-3.5909,-3.5894,-3.5908,-3.5908,-3.5908,-3.5908,-3.5908,-3.5908,-3.5908,-3.5908,-3.5908,-3.5908,-3.5908,-3.5908,-3.6571,-3.737,-3.7993,-3.926,-4.0273,-4.0273,-4.0721,-4.111,-4.111,-4.111,-4.1085,-4.1071,-4.103,-4.098,-4.0917,-4.0935,-4.096,-4.0933,-4.1055,-4.1111,-4.1105,-4.1124,-4.1131,-4.1163,-4.1136,-4.1152,-4.1191,-4.1191,-4.1191,-4.1191,-4.1191,-4.1191,-4.1191,-4.1191,-4.1191,-4.1191,-4.1206,-4.1182,-1.3125,0.0,0.0,0.0,0.0,0.0,0.0,0.0,-2.5373,-2.564,-2.6353,-2.6825,-2.6524,-2.7644,-2.872,-2.8987,-2.9771,-3.0365,-3.0364,-3.0618,-3.0791,-3.0799,-3.0801,-3.0801,-3.0801,-3.0796,-3.0794,-3.0794,-3.0799,-3.0804,-3.0808,-3.081,-3.0797,-3.08,-3.079,-3.0807,-3.0799,-3.0799,-3.0799,-3.0799,-3.0799,-3.0799,-3.0818,-3.1408,-3.1661,-3.17,-3.2284,-3.2849,-3.3434,-3.3979,-3.435,-3.4667,-3.5268,-3.5662,-3.5912,-3.5957,-3.5932,-3.5908,-3.5908,-3.589,-3.5908,-3.5908,-3.5908,-3.5908,-3.5908,-3.5908,-3.5908,-3.5908,-3.5908,-3.5908,-3.5908,-3.5899,-3.5904,-3.5894,-3.6348,-3.6762,-3.6771,-3.8129,-3.9357,-3.9357,-3.9825,-4.0312,-4.0604,-4.0655,-4.0752,-4.1039,-4.1025,-4.0991,-4.0935,-4.0968,-4.098,-4.0977,-4.1093,-4.113,-4.1073,-4.112,-4.1135,-4.113,-4.1129,-4.1132,-4.1171,-4.1171,-4.1171,-4.1171,-4.1171,-4.1171,-4.1171,-4.117,-4.119,-4.119,-4.1182,-4.1133,0.0,0.0,0.0,0.0,0.0,0.0,0.0,0.0,-2.2582,-2.5102,-2.4946,-2.4608,-2.5407,-2.6262,-2.7116,-2.7906,-2.8851,-2.9516,-2.9536,-3.0264,-3.0799,-3.0801,-3.0801,-3.0801,-3.0801,-3.0791,-3.0801,-3.0801,-3.0796,-3.081,-3.0799,-3.08,-3.08,-3.0794,-3.0802,-3.0799,-3.0799,-3.0799,-3.0799,-3.0799,-3.0799,-3.0799,-3.0799,-3.0799,-3.0799,-3.0799,-3.0799,-3.1758,-3.3336,-3.3356,-3.3824,-3.453,-3.4624,-3.5143,-3.5836,-3.5853,-3.5864,-3.5869,-3.5889,-3.5908,-3.5908,-3.5908,-3.5908,-3.5908,-3.5908,-3.5908,-3.5908,-3.5908,-3.5908,-3.5908,-3.5889,-3.5899,-3.5892,-3.5899,-3.5899,-3.5896,-3.5899,-3.7233,-3.8422,-3.8461,-3.848,-3.8772,-3.963,-3.9784,-4.0062,-4.0855,-4.0987,-4.1006,-4.1003,-4.1008,-4.103,-4.1088,-4.1093,-4.1074,-4.1009,-4.1009,-4.0996,-4.0996,-4.0994,-4.1029,-4.1108,-4.1107,-4.1107,-4.1107,-4.1107,-4.1107,-4.1107,-4.1097,-4.1136,-4.1205,-4.1126,-4.1101,-1.2695,0.0,0.0,0.0,0.0,0.0,0.0,0.0,-2.1507,-2.3413,-2.3637,-2.3699,-2.4514,-2.5372,-2.6037,-2.6262,-2.8055,-2.9642,-3.0269,-3.0618,-3.081,-3.0799,-3.0795,-3.08,-3.08,-3.08,-3.08,-3.0801,-3.0801,-3.08,-3.08,-3.0793,-3.0804,-3.0794,-3.0802,-3.0799,-3.0799,-3.0799,-3.0799,-3.0799,-3.0799,-3.0799,-3.0799,-3.0799,-3.0799,-3.0799,-3.0799,-3.1072,-3.1563,-3.2206,-3.2601,-3.2854,-3.3507,-3.3892,-3.416,-3.4754,-3.4964,-3.5051,-3.5675,-3.5908,-3.5908,-3.5908,-3.5908,-3.5908,-3.5908,-3.5908,-3.5908,-3.5908,-3.5908,-3.5894,-3.5903,-3.5899,-3.589,-3.5908,-3.5896,-3.59,-3.5892,-3.6278,-3.682,-3.7434,-3.8071,-3.8578,-3.8811,-3.9375,-3.988,-4.0096,-4.0672,-4.1042,-4.1011,-4.1031,-4.1067,-4.1027,-4.1074,-4.1091,-4.1074,-4.1077,-4.106,-4.1069,-4.1069,-4.1086,-4.1097,-4.1097,-4.1097,-4.1097,-4.1097,-4.1097,-4.1097,-4.1101,-4.1101,-4.1136,-4.1116,-4.1099,0.0,0.0,0.0,0.0,0.0,0.0,-2.058,-2.0575,0.0,0.0,-2.3388,-2.3787,-2.4257,-2.5035,-2.5717,-2.609,-2.7394,-2.8521,-2.9051,-2.9468,-2.9857,-3.0216,-3.0251,-3.039,-3.0761,-3.0801,-3.0801,-3.08,-3.0798,-3.0795,-3.081,-3.081,-3.0794,-3.0794,-3.0793,-3.0799,-3.0799,-3.0799,-3.0799,-3.0799,-3.0799,-3.0799,-3.0799,-3.0799,-3.0799,-3.0799,-3.0799,-3.0799,-3.0838,-3.1349,-3.1778,-3.2153,-3.2659,-3.3088,-3.3453,-3.3921,-3.4096,-3.4174,-3.4681,-3.5071,-3.5304,-3.4973,-3.5324,-3.583,-3.546,-3.5616,-3.5908,-3.5908,-3.5908,-3.5899,-3.5896,-3.5908,-3.5899,-3.59,-3.591,-3.5935,-3.5903,-3.5896,-3.6044,-3.6557,-3.7069,-3.7531,-3.7898,-3.8381,-3.8846,-3.9198,-3.9697,-4.0129,-4.0457,-4.0535,-4.0686,-4.1012,-4.1074,-4.1108,-4.1108,-4.1108,-4.1091,-4.1094,-4.1091,-4.0932,-4.0561,-4.0561,-4.0405,-4.0054,-4.0385,-4.0737,-4.1108,-4.1097,-4.1097,-4.1108,-4.1108,-4.1094,-1.4746,-1.5723,0.0,0.0,-1.7559,0.0,-2.0798,-2.0266,-1.983,0.0,-2.3298,-2.3893,-2.4088,-2.4845,-2.5697,-2.6369,-2.6626,-2.6823,-2.7012,-2.7718,-2.85,-2.9266,-2.9354,-2.9668,-3.0449,-3.0527,-3.0566,-3.0644,-3.076,-3.081,-3.0791,-3.0802,-3.0804,-3.0799,-3.0799,-3.0799,-3.0799,-3.0799,-3.0799,-3.0799,-3.0799,-3.0799,-3.0799,-3.0799,-3.0799,-3.0799,-3.0799,-3.0799,-3.0799,-3.0799,-3.1252,-3.1953,-3.1953,-3.2421,-3.3122,-3.322,-3.3264,-3.3264,-3.3375,-3.3863,-3.435,-3.3629,-3.4408,-3.548,-3.4817,-3.5148,-3.5772,-3.5869,-3.5908,-3.5899,-3.5896,-3.5903,-3.5903,-3.5903,-3.596,-3.5966,-3.5929,-3.5908,-3.5895,-3.5916,-3.5914,-3.6148,-3.6926,-3.7151,-3.7475,-3.8254,-3.8455,-3.8789,-3.9567,-3.9678,-3.9964,-4.0743,-4.0916,-4.0935,-4.0821,-4.0915,-4.0938,-4.0826,-4.0821,-4.0464,-3.9702,-3.9663,-3.9331,-3.8612,-3.9292,-4.0093,-4.0952,-4.1049,-4.1108,-4.1108,-4.1108,-4.1108,-1.7282,-1.8007,-1.8672,-1.8125,0.0,0.0,-1.8926,-1.8492,-1.8581,0.0,-2.0181,-2.0708,-2.2053,-2.3571,-2.4461,-2.3923,-2.4973,-2.635,-2.7746,-2.8083,-2.827,-2.8436,-2.8494,-2.86,-2.8771,-2.8791,-2.9062,-2.9701,-3.0401,-3.0804,-3.081,-3.0802,-3.0793,-3.0799,-3.0799,-3.0799,-3.0799,-3.0799,-3.0799,-3.0799,-3.0799,-3.0799,-3.0799,-3.0799,-3.0799,-3.0799,-3.0799,-3.0799,-3.0799,-3.0799,-3.0896,-3.1057,-3.1057,-3.1154,-3.1388,-3.209,-3.2348,-3.2445,-3.3166,-3.3492,-3.3609,-3.3453,-3.3609,-3.3979,-3.4467,-3.472,-3.4993,-3.5694,-3.5908,-3.5899,-3.5896,-3.5903,-3.5903,-3.5903,-3.591,-3.5938,-3.5971,-3.5935,-3.5919,-3.5966,-3.5947,-3.597,-3.6206,-3.6811,-3.7339,-3.7514,-3.8123,-3.8639,-3.8817,-3.8838,-3.8902,-3.9062,-3.972,-3.985,-3.9159,-3.9735,-3.9819,-3.912,-3.9081,-3.9,-3.8843,-3.8824,-3.8765,-3.8593,-3.8746,-3.9234,-4.0054,-4.0756,-4.1108,-4.1108,-4.1108,-4.1108,-1.8761,-1.8979,-1.9294,-1.9296,0.0,0.0,0.0,-1.8964,-1.902,-2.0325,-2.0247,-2.0462,-2.2141,-2.3142,-2.371,-2.3743,-2.4796,-2.5772,-2.6236,-2.6672,-2.7106,-2.7558,-2.7631,-2.7813,-2.8259,-2.8293,-2.8444,-2.8828,-2.9257,-2.9507,-2.9496,-2.9924,-3.0154,-3.0156,-3.0565,-3.0799,-3.0799,-3.0799,-3.0799,-3.0799,-3.0799,-3.0799,-3.0799,-3.0799,-3.0799,-3.0799,-3.0799,-3.0799,-3.0799,-3.0799,-3.0799,-3.0799,-3.0799,-3.0799,-3.0857,-3.1291,-3.1447,-3.1505,-3.1953,-3.2382,-3.2674,-3.2245,-3.2694,-3.3395,-3.3356,-3.3648,-3.4179,-3.5056,-3.5295,-3.5396,-3.5802,-3.5896,-3.5912,-3.5946,-3.591,-3.5916,-3.5999,-3.5955,-3.5926,-3.5981,-3.595,-3.5924,-3.5992,-3.6362,-3.6653,-3.664,-3.7024,-3.7458,-3.7906,-3.7946,-3.8127,-3.8547,-3.8998,-3.9079,-3.8633,-3.8999,-3.9069,-3.8622,-3.8595,-3.8414,-3.7965,-3.7946,-3.7946,-3.7946,-3.7946,-3.8355,-3.9195,-3.9644,-4.0288,-4.1108,-4.1108,-4.1108,0.0,0.0,-2.038,0.0,0.0,-2.0292,0.0,0.0,0.0,-2.0936,-2.072,0.0,0.0,0.0,0.0,-2.3552,0.0,0.0,0.0,-2.4781,0.0,-2.6425,-2.6652,-2.7034,-2.7735,-2.7808,-2.7842,-2.7953,-2.7972,-2.8047,-2.8216,-2.8895,-2.9258,-2.9245,-3.0102,-3.0546,-3.0546,-3.0721,-3.0799,-3.0799,-3.0799,-3.0799,-3.0799,-3.0799,-3.0799,-3.0799,-3.0799,-3.0799,-3.0799,-3.0799,-3.0799,-3.0799,-3.0799,-3.0799,-3.0799,-3.0799,-3.0799,-3.0799,-3.0799,-3.1252,-3.1719,-3.1037,-3.1875,-3.303,-3.2313,-3.2708,-3.3589,-3.4452,-3.4697,-3.4892,-3.5681,-3.5912,-3.5931,-3.599,-3.5952,-3.5925,-3.5999,-3.5949,-3.5923,-3.5991,-3.5962,-3.593,-3.5985,-3.6001,-3.6009,-3.5995,-3.6007,-3.6255,-3.6958,-3.7053,-3.7324,-3.8024,-3.8256,-3.8281,-3.8105,-3.8259,-3.8274,-3.8118,-3.811,-3.777,-3.7087,-3.7048,-3.7048,-3.7048,-3.7048,-3.7477,-3.8355,-3.8355,-3.9214,-4.0854,-4.0854,-4.0932,0.0,0.0,0.0,0.0,-2.2782,0.0,-2.0112,0.0,-2.0078,-1.8711,0.0,0.0,0.0,0.0,0.0,0.0,0.0,0.0,-2.2332,-2.3517,-2.4583,-2.4681,-2.5371,-2.5881,-2.5993,-2.5996,-2.631,-2.7073,-2.7132,-2.7479,-2.8249,-2.8379,-2.8411,-2.8345,-2.9191,-2.9649,-2.9649,-3.0409,-3.0799,-3.0799,-3.0799,-3.0799,-3.0799,-3.0799,-3.0799,-3.0799,-3.0799,-3.0799,-3.0799,-3.0799,-3.0799,-3.0799,-3.0799,-3.0799,-3.0799,-3.0799,-3.0799,-3.0799,-3.0799,-3.0857,-3.0935,-3.0838,-3.1466,-3.2235,-3.2127,-3.2716,-3.3574,-3.4456,-3.4705,-3.4886,-3.57,-3.5932,-3.5987,-3.6009,-3.5946,-3.5918,-3.5986,-3.5947,-3.5926,-3.5994,-3.5981,-3.5996,-3.6009,-3.5996,-3.5996,-3.5996,-3.5996,-3.6035,-3.6132,-3.6149,-3.6181,-3.6286,-3.6992,-3.714,-3.6367,-3.7005,-3.7128,-3.6348,-3.6306,-3.6247,-3.615,-3.615,-3.615,-3.615,-3.615,-3.6579,-3.7458,-3.7458,-3.8316,-3.9956,-3.9956,-4.0366,0.0,0.0,0.0,0.0,0.0,0.0,-2.1123,-2.0662,-2.0475,0.0,0.0,0.0,0.0,0.0,0.0,0.0,-2.2109,0.0,0.0,0.0,-2.3072,-2.3598,0.0,-2.4388,-2.4893,-2.4959,-2.5312,-2.6186,-2.5776,-2.5869,-2.6737,-2.728,-2.7507,-2.7441,-2.8777,-2.9494,-2.9494,-3.0351,-3.0799,-3.0799,-3.0799,-3.0799,-3.0799,-3.0799,-3.0799,-3.0799,-3.0799,-3.0799,-3.0799,-3.0799,-3.0799,-3.0799,-3.0799,-3.0799,-3.0799,-3.0799,-3.0799,-3.0799,-3.0799,-3.0799,-3.0804,-3.0806,-3.1047,-3.1344,-3.1354,-3.1591,-3.2079,-3.2957,-3.3554,-3.4144,-3.4979,-3.5579,-3.5956,-3.5986,-3.5953,-3.5918,-3.5999,-3.5977,-3.5962,-3.5996,-3.6001,-3.5997,-3.5995,-3.5996,-3.5996,-3.5996,-3.5996,-3.5996,-3.5996,-3.5996,-3.5995,-3.5992,-3.6324,-3.6401,-3.6028,-3.6337,-3.6392,-3.6013,-3.5991,-3.5991,-3.5991,-3.5991,-3.5991,-3.5991,-3.5991,-3.6189,-3.656,-3.656,-3.7165,-3.8355,-3.8863,-3.9546,-2.3926,-2.3758,-2.3646,-2.3185,-2.2606,-2.2021,-2.1589,-2.1149,-2.1012,-2.1638,0.0,0.0,0.0,0.0,-2.0405,-2.1196,0.0,-2.1607,0.0,-2.0876,0.0,0.0,0.0,0.0,-2.3971,-2.382,-2.4154,-2.5261,-2.4537,-2.4534,-2.5639,-2.6298,-2.6623,-2.658,-2.8017,-2.889,-2.9143,-3.0,-3.0565,-3.0799,-3.0799,-3.0799,-3.0799,-3.0799,-3.0799,-3.0799,-3.0799,-3.0799,-3.0799,-3.0799,-3.0799,-3.0799,-3.0799,-3.0799,-3.0799,-3.0799,-3.0794,-3.0769,-3.0799,-3.0799,-3.0808,-3.0804,-3.0794,-3.0794,-3.0806,-3.0808,-3.0984,-3.1841,-3.2551,-3.3237,-3.4122,-3.4959,-3.5586,-3.5636,-3.5795,-3.5946,-3.5995,-3.5993,-3.6003,-3.6003,-3.5993,-3.5996,-3.5996,-3.5996,-3.5996,-3.5996,-3.5996,-3.5996,-3.5996,-3.5996,-3.5996,-3.5996,-3.5995,-3.5991,-3.5994,-3.6001,-3.6003,-3.5994,-3.5991,-3.5991,-3.5991,-3.5991,-3.5991,-3.5991,-3.5991,-3.5991,-3.5991,-3.5991,-3.6325,-3.697,-3.7848,-3.8687,-2.5432,-2.5426,-2.5018,-2.3411,-2.2984,-2.2518,-2.0832,-2.1074,-2.1668,-2.17,-2.2335,-2.2876,-2.2866,-2.2832,-2.2231,-2.0604,-2.1817,0.0,0.0,0.0,0.0,0.0,0.0,0.0,0.0,-2.2374,-2.2589,-2.4303,-2.3639,-2.3893,-2.5612,-2.5736,-2.573,-2.573,-2.6541,-2.7394,-2.8232,-2.9104,-2.9961,-3.0799,-3.0799,-3.0799,-3.0799,-3.0799,-3.0799,-3.0799,-3.0799,-3.0799,-3.0799,-3.0799,-3.0799,-3.0799,-3.0799,-3.0799,-3.0799,-3.0799,-3.0764,-3.0709,-3.0774,-3.0799,-3.0808,-3.0804,-3.0794,-3.0801,-3.0801,-3.08,-3.0976,-3.1855,-3.2124,-3.2336,-3.3211,-3.4099,-3.4743,-3.4746,-3.5371,-3.5996,-3.5996,-3.5996,-3.5996,-3.5996,-3.5996,-3.5996,-3.5996,-3.5996,-3.5996,-3.5996,-3.5996,-3.5996,-3.5996,-3.5996,-3.5996,-3.5996,-3.6007,-3.5994,-3.5991,-3.5994,-3.5994,-3.5991,-3.5991,-3.5991,-3.5991,-3.5991,-3.5991,-3.5991,-3.5991,-3.5991,-3.5991,-3.5991,-3.601,-3.6049,-3.6931,-3.7809,-2.5504,-2.5499,-2.5227,-2.4075,-2.3359,-2.2642,-2.1526,-2.1452,-2.1636,-2.163,-2.2288,-2.2857,-2.2846,-2.24,-2.1856,-2.1266,-2.1197,-2.0521,0.0,0.0,0.0,0.0,0.0,0.0,0.0,0.0,-2.2285,-2.3449,-2.3274,-2.3858,-2.5613,-2.5707,-2.5703,-2.5703,-2.6478,-2.7043,-2.7336,-2.8193,-2.9085,-2.9942,-2.9942,-3.0234,-3.0799,-3.0799,-3.0799,-3.0799,-3.0799,-3.0799,-3.0799,-3.0799,-3.0799,-3.0799,-3.0799,-3.0799,-3.0799,-3.0799,-3.0794,-3.0769,-3.0799,-3.0794,-3.0804,-3.081,-3.0796,-3.08,-3.0801,-3.08,-3.0859,-3.1152,-3.166,-3.2168,-3.246,-3.361,-3.4703,-3.4704,-3.537,-3.5996,-3.5996,-3.5996,-3.5996,-3.5996,-3.5996,-3.5996,-3.5996,-3.5996,-3.5996,-3.5996,-3.5996,-3.5996,-3.5996,-3.5993,-3.6005,-3.6005,-3.5999,-3.5991,-3.5991,-3.5991,-3.5991,-3.5991,-3.5991,-3.5991,-3.5991,-3.5991,-3.5991,-3.5991,-3.5991,-3.5991,-3.5991,-3.5991,-3.5991,-3.601,-3.6306,-3.6911,-2.5452,-2.5434,-2.5236,-2.4372,-2.3732,-2.3033,-2.1888,-2.1842,-2.2018,-2.2018,-2.2689,-2.3358,-2.3675,-2.3047,-2.2284,-2.1702,-2.1131,-2.0076,0.0,-1.7354,0.0,0.0,0.0,0.0,0.0,0.0,-2.1026,-2.2523,-2.264,-2.34,-2.5134,-2.5524,-2.5699,-2.5699,-2.6205,-2.6615,-2.6907,-2.7452,-2.8173,-2.9046,-2.9046,-2.9318,-2.9883,-3.0195,-3.0331,-3.0351,-3.0662,-3.0799,-3.0799,-3.0799,-3.0799,-3.0799,-3.0799,-3.0799,-3.0799,-3.0799,-3.0799,-3.0799,-3.0769,-3.0786,-3.0804,-3.0795,-3.08,-3.0801,-3.0838,-3.0818,-3.0799,-3.082,-3.123,-3.1679,-3.1667,-3.2721,-3.3779,-3.3818,-3.47,-3.5545,-3.5547,-3.5781,-3.5996,-3.5996,-3.5996,-3.5996,-3.5996,-3.5995,-3.5994,-3.5996,-3.5996,-3.5996,-3.5994,-3.6003,-3.5991,-3.5991,-3.5991,-3.5991,-3.5991,-3.5991,-3.5991,-3.5991,-3.5991,-3.5991,-3.5991,-3.5991,-3.5991,-3.5991,-3.5991,-3.5991,-3.5991,-3.5991,-3.5991,-3.5991,-3.5991,-3.6306]}]]